| time (UTC) | temp C | wind direction | speed KPH | gust KPH | rain 1hr cm | rain 24hr cm | rain mn cm | humidity % | barometer mb |
| 20260509115426 | 8 | 10 | 6.4 | 9.7 | 0.00 | 0.08 | 0.08 | 92 | 1004.9 |
| 20260509115309 | 8 | 355 | 3.2 | 9.7 | 0.00 | 0.08 | 0.08 | 92 | 1004.9 |
| 20260509115216 | 8 | 342 | 4.8 | 9.7 | 0.00 | 0.08 | 0.08 | 92 | 1004.8 |
| 20260509115121 | 8 | 346 | 6.4 | 9.7 | 0.00 | 0.08 | 0.08 | 92 | 1004.9 |
| 20260509115023 | 8 | 15 | 6.4 | 9.7 | 0.00 | 0.08 | 0.08 | 92 | 1004.9 |
| 20260509114907 | 8 | 5 | 4.8 | 9.7 | 0.00 | 0.08 | 0.08 | 92 | 1004.9 |
| 20260509114811 | 8 | 355 | 4.8 | 9.7 | 0.00 | 0.08 | 0.08 | 92 | 1004.8 |
| 20260509114716 | 8 | 355 | 6.4 | 9.7 | 0.00 | 0.08 | 0.08 | 92 | 1004.8 |
| 20260509114624 | 8 | 19 | 6.4 | 9.7 | 0.00 | 0.08 | 0.08 | 92 | 1004.7 |
| 20260509114528 | 8 | 355 | 6.4 | 9.7 | 0.00 | 0.08 | 0.08 | 92 | 1004.8 |
| 20260509114406 | 8 | 17 | 6.4 | 9.7 | 0.00 | 0.08 | 0.08 | 92 | 1004.7 |
| 20260509114331 | 8 | 355 | 6.4 | 9.7 | 0.00 | 0.08 | 0.08 | 92 | 1004.8 |
| 20260509114215 | 8 | 355 | 6.4 | 9.7 | 0.00 | 0.08 | 0.08 | 92 | 1004.8 |
| 20260509114120 | 8 | 350 | 6.4 | 12.9 | 0.00 | 0.08 | 0.08 | 92 | 1004.7 |
| 20260509114030 | 8 | 31 | 4.8 | 12.9 | 0.00 | 0.08 | 0.08 | 92 | 1004.7 |
| 20260509113906 | 8 | 9 | 4.8 | 12.9 | 0.00 | 0.08 | 0.08 | 92 | 1004.7 |
| 20260509113830 | 8 | 5 | 4.8 | 12.9 | 0.00 | 0.08 | 0.08 | 92 | 1004.7 |
| 20260509113708 | 8 | 5 | 3.2 | 12.9 | 0.00 | 0.08 | 0.08 | 92 | 1004.7 |
| 20260509113633 | 8 | 328 | 3.2 | 12.9 | 0.03 | 0.08 | 0.08 | 91 | 1004.7 |
| 20260509113509 | 8 | 343 | 3.2 | 12.9 | 0.03 | 0.08 | 0.08 | 91 | 1004.6 |
| 20260509113419 | 8 | 343 | 4.8 | 12.9 | 0.03 | 0.08 | 0.08 | 91 | 1004.6 |
| 20260509113343 | 8 | 337 | 6.4 | 12.9 | 0.03 | 0.08 | 0.08 | 91 | 1004.6 |
| 20260509113228 | 8 | 345 | 6.4 | 8.0 | 0.03 | 0.08 | 0.08 | 92 | 1004.6 |
| 20260509113131 | 8 | 351 | 6.4 | 8.0 | 0.03 | 0.08 | 0.08 | 92 | 1004.5 |
| 20260509113008 | 8 | 355 | 4.8 | 6.4 | 0.05 | 0.08 | 0.08 | 91 | 1004.6 |
| 20260509112912 | 8 | 331 | 3.2 | 6.4 | 0.05 | 0.08 | 0.08 | 91 | 1004.5 |
| 20260509112818 | 8 | 316 | 3.2 | 6.4 | 0.05 | 0.08 | 0.08 | 91 | 1004.5 |
| 20260509112740 | 8 | 346 | 3.2 | 6.4 | 0.05 | 0.08 | 0.08 | 91 | 1004.5 |
| 20260509112607 | 8 | 351 | 1.6 | 8.0 | 0.05 | 0.08 | 0.08 | 91 | 1004.5 |
| 20260509112533 | 8 | 351 | 1.6 | 8.0 | 0.05 | 0.08 | 0.08 | 91 | 1004.5 |
| 20260509112410 | 8 | 351 | 3.2 | 8.0 | 0.05 | 0.08 | 0.08 | 91 | 1004.4 |
| 20260509112334 | 8 | 351 | 3.2 | 8.0 | 0.05 | 0.08 | 0.08 | 91 | 1004.4 |
| 20260509112216 | 8 | 351 | 3.2 | 8.0 | 0.05 | 0.08 | 0.08 | 91 | 1004.4 |
| 20260509112121 | 8 | 347 | 3.2 | 8.0 | 0.05 | 0.08 | 0.08 | 91 | 1004.4 |
| 20260509112008 | 8 | 340 | 3.2 | 8.0 | 0.05 | 0.08 | 0.08 | 91 | 1004.3 |
| 20260509111911 | 8 | 329 | 4.8 | 8.0 | 0.05 | 0.08 | 0.08 | 91 | 1004.3 |
| 20260509111814 | 8 | 355 | 4.8 | 8.0 | 0.05 | 0.08 | 0.08 | 91 | 1004.3 |
| 20260509111717 | 8 | 339 | 4.8 | 8.0 | 0.08 | 0.08 | 0.08 | 91 | 1004.3 |
| 20260509111622 | 8 | 360 | 3.2 | 6.4 | 0.08 | 0.08 | 0.08 | 91 | 1004.2 |
| 20260509111543 | 8 | 360 | 3.2 | 6.4 | 0.08 | 0.08 | 0.08 | 91 | 1004.2 |
| 20260509111411 | 8 | 355 | 3.2 | 6.4 | 0.08 | 0.08 | 0.08 | 91 | 1004.2 |
| 20260509111314 | 8 | 332 | 3.2 | 6.4 | 0.08 | 0.08 | 0.08 | 90 | 1004.2 |
| 20260509111219 | 8 | 329 | 3.2 | 6.4 | 0.08 | 0.08 | 0.08 | 90 | 1004.0 |
| 20260509111123 | 8 | 15 | 3.2 | 6.4 | 0.08 | 0.08 | 0.08 | 90 | 1004.0 |
| 20260509111045 | 8 | 16 | 3.2 | 6.4 | 0.08 | 0.08 | 0.08 | 90 | 1004.0 |
| 20260509110910 | 8 | 355 | 3.2 | 6.4 | 0.08 | 0.08 | 0.08 | 90 | 1004.0 |
| 20260509110815 | 8 | 355 | 3.2 | 6.4 | 0.08 | 0.08 | 0.08 | 90 | 1004.0 |
| 20260509110726 | 8 | 333 | 3.2 | 6.4 | 0.08 | 0.08 | 0.08 | 90 | 1004.0 |
| 20260509110646 | 8 | 333 | 3.2 | 6.4 | 0.08 | 0.08 | 0.08 | 90 | 1004.0 |
| 20260509110511 | 8 | 349 | 3.2 | 6.4 | 0.08 | 0.08 | 0.08 | 90 | 1003.8 |
| 20260509110416 | 8 | 348 | 3.2 | 6.4 | 0.08 | 0.08 | 0.08 | 90 | 1003.9 |
| 20260509110321 | 8 | 350 | 3.2 | 6.4 | 0.08 | 0.08 | 0.08 | 90 | 1003.9 |
| 20260509110207 | 8 | 350 | 3.2 | 6.4 | 0.08 | 0.08 | 0.08 | 90 | 1003.9 |
| 20260509110135 | 8 | 350 | 3.2 | 6.4 | 0.08 | 0.08 | 0.08 | 90 | 1003.9 |
| 20260509110040 | 8 | 345 | 4.8 | 6.4 | 0.08 | 0.08 | 0.08 | 90 | 1003.9 |
| 20260509105944 | 8 | 13 | 4.8 | 6.4 | 0.08 | 0.08 | 0.08 | 90 | 1003.8 |
| 20260509105809 | 8 | 10 | 3.2 | 6.4 | 0.08 | 0.08 | 0.08 | 90 | 1003.8 |
| 20260509105715 | 8 | 307 | 3.2 | 8.0 | 0.08 | 0.08 | 0.08 | 90 | 1003.8 |
| 20260509105620 | 8 | 10 | 3.2 | 8.0 | 0.08 | 0.08 | 0.08 | 90 | 1003.8 |
| 20260509105525 | 8 | 11 | 3.2 | 8.0 | 0.08 | 0.08 | 0.08 | 89 | 1003.9 |
| 20260509105432 | 8 | 13 | 3.2 | 8.0 | 0.08 | 0.08 | 0.08 | 89 | 1003.8 |
| 20260509105316 | 8 | 17 | 3.2 | 8.0 | 0.08 | 0.08 | 0.08 | 89 | 1003.7 |
| 20260509105220 | 8 | 22 | 3.2 | 8.0 | 0.08 | 0.08 | 0.08 | 89 | 1003.8 |
| 20260509105106 | 8 | 22 | 3.2 | 8.0 | 0.08 | 0.08 | 0.08 | 89 | 1003.7 |
| 20260509105031 | 8 | 23 | 4.8 | 8.0 | 0.08 | 0.08 | 0.08 | 89 | 1003.7 |
| 20260509104934 | 8 | 23 | 6.4 | 8.0 | 0.08 | 0.08 | 0.08 | 89 | 1003.7 |
| 20260509104809 | 8 | 355 | 6.4 | 8.0 | 0.08 | 0.08 | 0.08 | 89 | 1003.7 |
| 20260509104718 | 8 | 351 | 4.8 | 6.4 | 0.08 | 0.08 | 0.08 | 89 | 1003.6 |
| 20260509104622 | 8 | 9 | 3.2 | 4.8 | 0.08 | 0.08 | 0.08 | 89 | 1003.7 |
| 20260509104507 | 8 | 5 | 3.2 | 6.4 | 0.08 | 0.08 | 0.08 | 89 | 1003.7 |
| 20260509104410 | 8 | 5 | 3.2 | 6.4 | 0.08 | 0.08 | 0.08 | 89 | 1003.6 |
| 20260509104315 | 8 | 5 | 3.2 | 6.4 | 0.08 | 0.08 | 0.08 | 88 | 1003.6 |
| 20260509104219 | 8 | 360 | 3.2 | 6.4 | 0.08 | 0.08 | 0.08 | 88 | 1003.5 |
| 20260509104127 | 8 | 330 | 3.2 | 6.4 | 0.08 | 0.08 | 0.08 | 88 | 1003.5 |
| 20260509104031 | 8 | 325 | 3.2 | 6.4 | 0.08 | 0.08 | 0.08 | 88 | 1003.5 |
| 20260509103908 | 8 | 331 | 1.6 | 6.4 | 0.08 | 0.08 | 0.08 | 88 | 1003.4 |
| 20260509103813 | 8 | 331 | 3.2 | 6.4 | 0.08 | 0.08 | 0.08 | 88 | 1003.4 |
| 20260509103717 | 8 | 330 | 1.6 | 6.4 | 0.08 | 0.08 | 0.08 | 88 | 1003.4 |
| 20260509103622 | 8 | 338 | 1.6 | 6.4 | 0.05 | 0.05 | 0.05 | 88 | 1003.4 |
| 20260509103529 | 8 | 14 | 1.6 | 6.4 | 0.05 | 0.05 | 0.05 | 88 | 1003.5 |
| 20260509103453 | 8 | 14 | 1.6 | 6.4 | 0.05 | 0.05 | 0.05 | 88 | 1003.4 |
| 20260509103308 | 8 | 14 | 1.6 | 6.4 | 0.05 | 0.05 | 0.05 | 87 | 1003.4 |
| 20260509103231 | 8 | 14 | 3.2 | 6.4 | 0.05 | 0.05 | 0.05 | 87 | 1003.4 |
| 20260509103114 | 8 | 13 | 3.2 | 6.4 | 0.03 | 0.03 | 0.03 | 87 | 1003.5 |
| 20260509103019 | 8 | 13 | 4.8 | 6.4 | 0.03 | 0.03 | 0.03 | 87 | 1003.6 |
| 20260509102923 | 8 | 15 | 4.8 | 6.4 | 0.03 | 0.03 | 0.03 | 87 | 1003.6 |
| 20260509102831 | 8 | 43 | 3.2 | 6.4 | 0.03 | 0.03 | 0.03 | 87 | 1003.6 |
| 20260509102734 | 8 | 43 | 3.2 | 6.4 | 0.03 | 0.03 | 0.03 | 87 | 1003.5 |
| 20260509102610 | 8 | 49 | 3.2 | 4.8 | 0.03 | 0.03 | 0.03 | 86 | 1003.5 |
| 20260509102513 | 8 | 49 | 1.6 | 4.8 | 0.03 | 0.03 | 0.03 | 86 | 1003.4 |
| 20260509102437 | 8 | 49 | 1.6 | 4.8 | 0.03 | 0.03 | 0.03 | 86 | 1003.4 |
| 20260509102319 | 8 | 49 | 3.2 | 4.8 | 0.03 | 0.03 | 0.03 | 86 | 1003.3 |
| 20260509102223 | 9 | 49 | 3.2 | 4.8 | 0.03 | 0.03 | 0.03 | 86 | 1003.3 |
| 20260509102111 | 9 | 50 | 0.0 | 4.8 | 0.03 | 0.03 | 0.03 | 85 | 1003.3 |
| 20260509102036 | 9 | 50 | 1.6 | 4.8 | 0.03 | 0.03 | 0.03 | 85 | 1003.4 |
| 20260509101919 | 9 | 50 | 3.2 | 4.8 | 0.03 | 0.03 | 0.03 | 85 | 1003.4 |
| 20260509101822 | 9 | 50 | 3.2 | 4.8 | 0.00 | 0.00 | 0.00 | 85 | 1003.5 |
| 20260509101707 | 9 | 50 | 3.2 | 4.8 | 0.00 | 0.00 | 0.00 | 85 | 1003.5 |
| 20260509101611 | 9 | 50 | 3.2 | 4.8 | 0.00 | 0.00 | 0.00 | 85 | 1003.5 |
| 20260509101535 | 9 | 50 | 1.6 | 4.8 | 0.00 | 0.00 | 0.00 | 84 | 1003.5 |
| 20260509101422 | 9 | 50 | 1.6 | 4.8 | 0.00 | 0.00 | 0.00 | 84 | 1003.4 |
| 20260509101307 | 9 | 50 | 0.0 | 4.8 | 0.00 | 0.00 | 0.00 | 84 | 1003.3 |
| 20260509101231 | 9 | 50 | 1.6 | 4.8 | 0.00 | 0.00 | 0.00 | 84 | 1003.4 |
| 20260509101107 | 9 | 50 | 3.2 | 4.8 | 0.00 | 0.00 | 0.00 | 84 | 1003.3 |
| 20260509101011 | 9 | 50 | 3.2 | 4.8 | 0.00 | 0.00 | 0.00 | 84 | 1003.4 |
| 20260509100915 | 9 | 51 | 3.2 | 4.8 | 0.00 | 0.00 | 0.00 | 83 | 1003.4 |
| 20260509100823 | 9 | 51 | 3.2 | 4.8 | 0.00 | 0.00 | 0.00 | 83 | 1003.4 |
| 20260509100707 | 9 | 51 | 3.2 | 4.8 | 0.00 | 0.00 | 0.00 | 83 | 1003.4 |
| 20260509100631 | 9 | 51 | 3.2 | 4.8 | 0.00 | 0.00 | 0.00 | 83 | 1003.3 |
| 20260509100508 | 9 | 51 | 1.6 | 3.2 | 0.00 | 0.00 | 0.00 | 82 | 1003.3 |
| 20260509100412 | 9 | 51 | 0.0 | 3.2 | 0.00 | 0.00 | 0.00 | 82 | 1003.2 |
| 20260509100316 | 9 | 51 | 0.0 | 3.2 | 0.00 | 0.00 | 0.00 | 82 | 1003.3 |
| 20260509100224 | 9 | 51 | 1.6 | 3.2 | 0.00 | 0.00 | 0.00 | 82 | 1003.2 |
| 20260509100129 | 9 | 51 | 1.6 | 3.2 | 0.00 | 0.00 | 0.00 | 82 | 1003.2 |
| 20260509100006 | 9 | 51 | 0.0 | 3.2 | 0.00 | 0.00 | 0.00 | 82 | 1003.3 |
| 20260509095911 | 10 | 51 | 0.0 | 3.2 | 0.00 | 0.00 | 0.00 | 82 | 1003.3 |
| 20260509095817 | 10 | 51 | 0.0 | 4.8 | 0.00 | 0.00 | 0.00 | 81 | 1003.2 |
| 20260509095739 | 10 | 51 | 0.0 | 4.8 | 0.00 | 0.00 | 0.00 | 81 | 1003.3 |
| 20260509095606 | 10 | 51 | 0.0 | 4.8 | 0.00 | 0.00 | 0.00 | 81 | 1003.3 |
| 20260509095510 | 10 | 51 | 1.6 | 9.7 | 0.00 | 0.00 | 0.00 | 81 | 1003.3 |
| 20260509095434 | 10 | 51 | 1.6 | 9.7 | 0.00 | 0.00 | 0.00 | 81 | 1003.4 |
| 20260509095317 | 10 | 51 | 3.2 | 9.7 | 0.00 | 0.00 | 0.00 | 81 | 1003.3 |
| 20260509095220 | 10 | 51 | 3.2 | 9.7 | 0.00 | 0.00 | 0.00 | 80 | 1003.4 |
| 20260509095123 | 10 | 51 | 3.2 | 9.7 | 0.00 | 0.00 | 0.00 | 80 | 1003.4 |
| 20260509095027 | 10 | 51 | 3.2 | 9.7 | 0.00 | 0.00 | 0.00 | 79 | 1003.5 |
| 20260509094931 | 10 | 51 | 3.2 | 9.7 | 0.00 | 0.00 | 0.00 | 80 | 1003.3 |
| 20260509094806 | 10 | 51 | 4.8 | 9.7 | 0.00 | 0.00 | 0.00 | 79 | 1003.3 |
| 20260509094730 | 10 | 51 | 6.4 | 9.7 | 0.00 | 0.00 | 0.00 | 79 | 1003.3 |
| 20260509094607 | 10 | 10 | 6.4 | 12.9 | 0.00 | 0.00 | 0.00 | 78 | 1003.4 |
| 20260509094509 | 10 | 34 | 6.4 | 12.9 | 0.00 | 0.00 | 0.00 | 78 | 1003.5 |
| 20260509094413 | 10 | 24 | 6.4 | 12.9 | 0.00 | 0.00 | 0.00 | 78 | 1003.5 |
| 20260509094319 | 10 | 40 | 4.8 | 12.9 | 0.00 | 0.00 | 0.00 | 77 | 1003.5 |
| 20260509094206 | 10 | 35 | 4.8 | 12.9 | 0.00 | 0.00 | 0.00 | 77 | 1003.5 |
| 20260509094130 | 10 | 35 | 6.4 | 14.5 | 0.00 | 0.00 | 0.00 | 77 | 1003.6 |
| 20260509094007 | 10 | 44 | 4.8 | 14.5 | 0.00 | 0.00 | 0.00 | 76 | 1003.7 |
| 20260509093911 | 10 | 26 | 4.8 | 14.5 | 0.00 | 0.00 | 0.00 | 75 | 1003.6 |
| 20260509093815 | 10 | 26 | 6.4 | 14.5 | 0.00 | 0.00 | 0.00 | 75 | 1003.7 |
| 20260509093739 | 10 | 360 | 6.4 | 14.5 | 0.00 | 0.00 | 0.00 | 75 | 1003.7 |
| 20260509093606 | 10 | 17 | 6.4 | 14.5 | 0.00 | 0.00 | 0.00 | 74 | 1003.7 |
| 20260509093509 | 10 | 5 | 6.4 | 14.5 | 0.00 | 0.00 | 0.00 | 74 | 1003.8 |
| 20260509093412 | 10 | 26 | 9.7 | 16.1 | 0.00 | 0.00 | 0.00 | 73 | 1003.7 |
| 20260509093336 | 10 | 360 | 11.3 | 16.1 | 0.00 | 0.00 | 0.00 | 73 | 1003.6 |
| 20260509093218 | 10 | 15 | 9.7 | 16.1 | 0.00 | 0.00 | 0.00 | 73 | 1003.7 |
| 20260509093121 | 10 | 15 | 8.0 | 16.1 | 0.00 | 0.00 | 0.00 | 73 | 1003.8 |
| 20260509093045 | 11 | 5 | 4.8 | 16.1 | 0.00 | 0.00 | 0.00 | 72 | 1003.8 |
| 20260509092931 | 11 | 5 | 4.8 | 16.1 | 0.00 | 0.00 | 0.00 | 72 | 1003.8 |
| 20260509092807 | 11 | 340 | 6.4 | 16.1 | 0.00 | 0.00 | 0.00 | 71 | 1003.8 |
| 20260509092711 | 11 | 340 | 8.0 | 16.1 | 0.00 | 0.00 | 0.00 | 70 | 1003.8 |
| 20260509092613 | 11 | 5 | 9.7 | 16.1 | 0.00 | 0.00 | 0.00 | 70 | 1003.8 |
| 20260509092516 | 11 | 355 | 9.7 | 16.1 | 0.00 | 0.00 | 0.00 | 69 | 1003.8 |
| 20260509092418 | 11 | 355 | 8.0 | 16.1 | 0.00 | 0.00 | 0.00 | 69 | 1003.8 |
| 20260509092342 | 11 | 5 | 8.0 | 17.7 | 0.00 | 0.00 | 0.00 | 68 | 1003.8 |
| 20260509092228 | 11 | 11 | 9.7 | 17.7 | 0.00 | 0.00 | 0.00 | 68 | 1003.8 |
| 20260509092110 | 11 | 348 | 9.7 | 17.7 | 0.00 | 0.00 | 0.00 | 68 | 1003.8 |
| 20260509092032 | 11 | 32 | 9.7 | 17.7 | 0.00 | 0.00 | 0.00 | 67 | 1003.8 |
| 20260509091936 | 11 | 12 | 9.7 | 17.7 | 0.00 | 0.00 | 0.00 | 67 | 1003.7 |
| 20260509091837 | 11 | 348 | 9.7 | 17.7 | 0.00 | 0.00 | 0.00 | 66 | 1003.7 |
| 20260509091716 | 11 | 355 | 11.3 | 17.7 | 0.00 | 0.00 | 0.00 | 66 | 1003.7 |
| 20260509091619 | 11 | 40 | 11.3 | 17.7 | 0.00 | 0.00 | 0.00 | 65 | 1003.7 |
| 20260509091522 | 11 | 360 | 9.7 | 14.5 | 0.00 | 0.00 | 0.00 | 65 | 1003.7 |
| 20260509091431 | 11 | 11 | 8.0 | 14.5 | 0.00 | 0.00 | 0.00 | 65 | 1003.7 |
| 20260509091308 | 11 | 11 | 6.4 | 14.5 | 0.00 | 0.00 | 0.00 | 64 | 1003.7 |
| 20260509091232 | 11 | 11 | 6.4 | 14.5 | 0.00 | 0.00 | 0.00 | 64 | 1003.6 |
| 20260509091107 | 11 | 21 | 8.0 | 16.1 | 0.00 | 0.00 | 0.00 | 64 | 1003.6 |
| 20260509091031 | 11 | 13 | 6.4 | 16.1 | 0.00 | 0.00 | 0.00 | 64 | 1003.6 |
| 20260509090907 | 11 | 43 | 6.4 | 16.1 | 0.00 | 0.00 | 0.00 | 63 | 1003.4 |
| 20260509090830 | 11 | 355 | 6.4 | 16.1 | 0.00 | 0.00 | 0.00 | 63 | 1003.4 |
| 20260509090717 | 11 | 54 | 6.4 | 16.1 | 0.00 | 0.00 | 0.00 | 63 | 1003.4 |
| 20260509090621 | 11 | 18 | 8.0 | 16.1 | 0.00 | 0.00 | 0.00 | 62 | 1003.3 |
| 20260509090543 | 11 | 33 | 8.0 | 16.1 | 0.00 | 0.00 | 0.00 | 62 | 1003.4 |
| 20260509090427 | 11 | 33 | 8.0 | 16.1 | 0.00 | 0.00 | 0.00 | 62 | 1003.3 |
| 20260509090307 | 11 | 355 | 8.0 | 16.1 | 0.00 | 0.00 | 0.00 | 61 | 1003.3 |
| 20260509090211 | 11 | 37 | 9.7 | 16.1 | 0.00 | 0.00 | 0.00 | 61 | 1003.3 |
| 20260509090135 | 11 | 39 | 9.7 | 16.1 | 0.00 | 0.00 | 0.00 | 61 | 1003.3 |
| 20260509090038 | 11 | 17 | 9.7 | 16.1 | 0.00 | 0.00 | 0.00 | 60 | 1003.3 |
| 20260509085924 | 11 | 355 | 8.0 | 14.5 | 0.00 | 0.00 | 0.00 | 60 | 1003.3 |
| 20260509085828 | 11 | 36 | 4.8 | 17.7 | 0.00 | 0.00 | 0.00 | 59 | 1003.3 |
| 20260509085710 | 11 | 28 | 4.8 | 20.9 | 0.00 | 0.00 | 0.00 | 59 | 1003.3 |
| 20260509085613 | 11 | 28 | 6.4 | 20.9 | 0.00 | 0.00 | 0.00 | 59 | 1003.4 |
| 20260509085517 | 11 | 22 | 6.4 | 20.9 | 0.00 | 0.00 | 0.00 | 59 | 1003.4 |
| 20260509085440 | 11 | 30 | 6.4 | 20.9 | 0.00 | 0.00 | 0.00 | 58 | 1003.3 |
| 20260509085342 | 11 | 35 | 9.7 | 20.9 | 0.00 | 0.00 | 0.00 | 59 | 1003.4 |
| 20260509085210 | 11 | 22 | 9.7 | 20.9 | 0.00 | 0.00 | 0.00 | 58 | 1003.5 |
| 20260509085132 | 11 | 30 | 11.3 | 20.9 | 0.00 | 0.00 | 0.00 | 58 | 1003.5 |
| 20260509085008 | 11 | 12 | 11.3 | 20.9 | 0.00 | 0.00 | 0.00 | 58 | 1003.5 |
| 20260509084933 | 11 | 333 | 12.9 | 20.9 | 0.00 | 0.00 | 0.00 | 58 | 1003.5 |
| 20260509084809 | 11 | 26 | 11.3 | 20.9 | 0.00 | 0.00 | 0.00 | 57 | 1003.5 |
| 20260509084711 | 11 | 25 | 6.4 | 17.7 | 0.00 | 0.00 | 0.00 | 57 | 1003.5 |
| 20260509084618 | 11 | 355 | 8.0 | 16.1 | 0.00 | 0.00 | 0.00 | 56 | 1003.5 |
| 20260509084522 | 11 | 33 | 8.0 | 16.1 | 0.00 | 0.00 | 0.00 | 56 | 1003.4 |
| 20260509084445 | 11 | 5 | 8.0 | 16.1 | 0.00 | 0.00 | 0.00 | 56 | 1003.4 |
| 20260509084308 | 11 | 21 | 9.7 | 16.1 | 0.00 | 0.00 | 0.00 | 56 | 1003.4 |
| 20260509084212 | 11 | 15 | 9.7 | 16.1 | 0.00 | 0.00 | 0.00 | 56 | 1003.5 |
| 20260509084114 | 11 | 355 | 9.7 | 16.1 | 0.00 | 0.00 | 0.00 | 56 | 1003.5 |
| 20260509084017 | 11 | 5 | 9.7 | 16.1 | 0.00 | 0.00 | 0.00 | 55 | 1003.4 |
| 20260509083924 | 11 | 355 | 9.7 | 14.5 | 0.00 | 0.00 | 0.00 | 55 | 1003.4 |
| 20260509083827 | 11 | 355 | 9.7 | 14.5 | 0.00 | 0.00 | 0.00 | 55 | 1003.4 |
| 20260509083750 | 11 | 5 | 8.0 | 14.5 | 0.00 | 0.00 | 0.00 | 55 | 1003.4 |
| 20260509083606 | 11 | 13 | 4.8 | 14.5 | 0.00 | 0.00 | 0.00 | 55 | 1003.3 |
| 20260509083531 | 11 | 41 | 4.8 | 14.5 | 0.00 | 0.00 | 0.00 | 55 | 1003.3 |
| 20260509083407 | 11 | 355 | 6.4 | 14.5 | 0.00 | 0.00 | 0.00 | 55 | 1003.3 |
| 20260509083316 | 10 | 338 | 6.4 | 14.5 | 0.00 | 0.00 | 0.00 | 55 | 1003.3 |
| 20260509083218 | 10 | 348 | 6.4 | 14.5 | 0.00 | 0.00 | 0.00 | 55 | 1003.4 |
| 20260509083122 | 10 | 360 | 8.0 | 14.5 | 0.00 | 0.00 | 0.00 | 55 | 1003.4 |
| 20260509083027 | 10 | 5 | 8.0 | 14.5 | 0.00 | 0.00 | 0.00 | 55 | 1003.3 |
| 20260509082930 | 10 | 331 | 6.4 | 14.5 | 0.00 | 0.00 | 0.00 | 55 | 1003.2 |
| 20260509082806 | 10 | 15 | 4.8 | 14.5 | 0.00 | 0.00 | 0.00 | 55 | 1003.3 |
| 20260509082710 | 10 | 343 | 6.4 | 16.1 | 0.00 | 0.00 | 0.00 | 55 | 1003.2 |
| 20260509082619 | 10 | 5 | 6.4 | 16.1 | 0.00 | 0.00 | 0.00 | 55 | 1003.3 |
| 20260509082544 | 10 | 355 | 8.0 | 16.1 | 0.00 | 0.00 | 0.00 | 56 | 1003.3 |
| 20260509082428 | 10 | 325 | 8.0 | 16.1 | 0.00 | 0.00 | 0.00 | 55 | 1003.3 |
| 20260509082312 | 10 | 333 | 8.0 | 16.1 | 0.00 | 0.00 | 0.00 | 55 | 1003.3 |
| 20260509082236 | 10 | 5 | 9.7 | 16.1 | 0.00 | 0.00 | 0.00 | 55 | 1003.3 |
| 20260509082118 | 10 | 334 | 9.7 | 16.1 | 0.00 | 0.00 | 0.00 | 55 | 1003.4 |
| 20260509082023 | 10 | 20 | 9.7 | 16.1 | 0.00 | 0.00 | 0.00 | 56 | 1003.3 |
| 20260509081930 | 10 | 11 | 8.0 | 16.1 | 0.00 | 0.00 | 0.00 | 57 | 1003.3 |
| 20260509081814 | 10 | 355 | 8.0 | 16.1 | 0.00 | 0.00 | 0.00 | 57 | 1003.3 |
| 20260509081717 | 10 | 355 | 8.0 | 16.1 | 0.00 | 0.00 | 0.00 | 57 | 1003.2 |
| 20260509081621 | 10 | 25 | 8.0 | 16.1 | 0.00 | 0.00 | 0.00 | 57 | 1003.2 |
| 20260509081524 | 10 | 360 | 6.4 | 16.1 | 0.00 | 0.00 | 0.00 | 58 | 1003.1 |
| 20260509081409 | 10 | 16 | 4.8 | 14.5 | 0.00 | 0.00 | 0.00 | 59 | 1003.1 |
| 20260509081316 | 10 | 347 | 4.8 | 14.5 | 0.00 | 0.00 | 0.00 | 59 | 1003.1 |
| 20260509081221 | 10 | 17 | 8.0 | 14.5 | 0.00 | 0.00 | 0.00 | 59 | 1003.2 |
| 20260509081125 | 10 | 18 | 8.0 | 14.5 | 0.00 | 0.00 | 0.00 | 59 | 1003.1 |
| 20260509081028 | 9 | 351 | 6.4 | 14.5 | 0.00 | 0.00 | 0.00 | 61 | 1003.1 |
| 20260509080911 | 9 | 360 | 4.8 | 14.5 | 0.00 | 0.00 | 0.00 | 60 | 1003.1 |
| 20260509080816 | 9 | 327 | 6.4 | 14.5 | 0.00 | 0.00 | 0.00 | 61 | 1003.2 |
| 20260509080720 | 9 | 334 | 8.0 | 14.5 | 0.00 | 0.00 | 0.00 | 61 | 1003.2 |
| 20260509080628 | 9 | 346 | 8.0 | 14.5 | 0.00 | 0.00 | 0.00 | 62 | 1003.1 |
| 20260509080506 | 8 | 331 | 6.4 | 14.5 | 0.00 | 0.00 | 0.00 | 65 | 1003.2 |
| 20260509080410 | 8 | 355 | 6.4 | 14.5 | 0.00 | 0.00 | 0.00 | 65 | 1003.2 |
| 20260509080314 | 8 | 355 | 6.4 | 14.5 | 0.00 | 0.00 | 0.00 | 67 | 1003.0 |
| 20260509080237 | 8 | 340 | 4.8 | 9.7 | 0.00 | 0.00 | 0.00 | 68 | 1003.1 |
| 20260509080119 | 8 | 342 | 4.8 | 8.0 | 0.00 | 0.00 | 0.00 | 68 | 1003.1 |
| 20260509075931 | 8 | 53 | 3.2 | 6.4 | 0.00 | 0.00 | 0.00 | 68 | 1003.0 |
| 20260509075808 | 8 | 56 | 3.2 | 6.4 | 0.00 | 0.00 | 0.00 | 68 | 1003.0 |
| 20260509075712 | 8 | 69 | 3.2 | 6.4 | 0.00 | 0.00 | 0.00 | 69 | 1003.1 |
| 20260509075636 | 8 | 69 | 3.2 | 6.4 | 0.00 | 0.00 | 0.00 | 71 | 1003.1 |
| 20260509075520 | 8 | 69 | 3.2 | 4.8 | 0.00 | 0.00 | 0.00 | 69 | 1003.1 |
| 20260509075408 | 8 | 69 | 3.2 | 4.8 | 0.00 | 0.00 | 0.00 | 69 | 1003.1 |
| 20260509075332 | 8 | 69 | 3.2 | 4.8 | 0.00 | 0.00 | 0.00 | 69 | 1003.0 |
| 20260509075210 | 8 | 69 | 3.2 | 4.8 | 0.00 | 0.00 | 0.00 | 69 | 1002.9 |
| 20260509075113 | 8 | 69 | 3.2 | 3.2 | 0.00 | 0.00 | 0.00 | 69 | 1002.8 |
| 20260509075017 | 8 | 69 | 1.6 | 3.2 | 0.00 | 0.00 | 0.00 | 68 | 1002.8 |
| 20260509074921 | 8 | 69 | 1.6 | 3.2 | 0.00 | 0.00 | 0.00 | 66 | 1002.7 |
| 20260509074846 | 8 | 69 | 0.0 | 3.2 | 0.00 | 0.00 | 0.00 | 67 | 1002.6 |
| 20260509074732 | 8 | 69 | 0.0 | 0.0 | 0.00 | 0.00 | 0.00 | 67 | 1002.5 |
| 20260509074610 | 8 | 69 | 0.0 | 0.0 | 0.00 | 0.00 | 0.00 | 67 | 1002.4 |
| 20260509074515 | 8 | 69 | 0.0 | 0.0 | 0.00 | 0.00 | 0.00 | 67 | 1002.4 |
| 20260509074419 | 8 | 69 | 0.0 | 0.0 | 0.00 | 0.00 | 0.00 | 68 | 1002.4 |
| 20260509074323 | 8 | 69 | 0.0 | 0.0 | 0.00 | 0.00 | 0.00 | 68 | 1002.4 |
| 20260509074229 | 8 | 69 | 0.0 | 0.0 | 0.00 | 0.00 | 0.00 | 68 | 1002.5 |
| 20260509074131 | 8 | 69 | 0.0 | 0.0 | 0.00 | 0.00 | 0.00 | 68 | 1002.4 |
| 20260509074018 | 8 | 69 | 0.0 | 0.0 | 0.00 | 0.00 | 0.00 | 68 | 1002.4 |
| 20260509073922 | 8 | 69 | 0.0 | 1.6 | 0.00 | 0.00 | 0.00 | 68 | 1002.5 |
| 20260509073807 | 8 | 69 | 0.0 | 1.6 | 0.00 | 0.00 | 0.00 | 68 | 1002.5 |
| 20260509073712 | 8 | 69 | 0.0 | 3.2 | 0.00 | 0.00 | 0.00 | 69 | 1002.6 |
| 20260509073616 | 8 | 69 | 0.0 | 3.2 | 0.00 | 0.00 | 0.00 | 69 | 1002.5 |
| 20260509073521 | 8 | 69 | 0.0 | 3.2 | 0.00 | 0.00 | 0.00 | 69 | 1002.6 |
| 20260509073429 | 8 | 69 | 0.0 | 3.2 | 0.00 | 0.00 | 0.00 | 70 | 1002.6 |
| 20260509073306 | 8 | 69 | 0.0 | 3.2 | 0.00 | 0.00 | 0.00 | 70 | 1002.6 |
| 20260509073211 | 8 | 69 | 0.0 | 4.8 | 0.00 | 0.00 | 0.00 | 70 | 1002.7 |
| 20260509073116 | 8 | 69 | 1.6 | 8.0 | 0.00 | 0.00 | 0.00 | 69 | 1002.7 |
| 20260509073020 | 8 | 69 | 1.6 | 8.0 | 0.00 | 0.00 | 0.00 | 68 | 1002.8 |
| 20260509072907 | 8 | 69 | 1.6 | 8.0 | 0.00 | 0.00 | 0.00 | 68 | 1002.7 |
| 20260509072812 | 8 | 69 | 1.6 | 8.0 | 0.00 | 0.00 | 0.00 | 68 | 1002.7 |
| 20260509072717 | 8 | 69 | 1.6 | 9.7 | 0.00 | 0.00 | 0.00 | 68 | 1002.8 |
| 20260509072641 | 8 | 69 | 3.2 | 9.7 | 0.00 | 0.00 | 0.00 | 68 | 1002.8 |
| 20260509072429 | 8 | 69 | 4.8 | 9.7 | 0.00 | 0.00 | 0.00 | 67 | 1002.7 |
| 20260509072313 | 8 | 69 | 6.4 | 9.7 | 0.00 | 0.00 | 0.00 | 68 | 1002.7 |
| 20260509072237 | 8 | 70 | 6.4 | 9.7 | 0.00 | 0.00 | 0.00 | 70 | 1002.7 |
| 20260509072144 | 8 | 70 | 6.4 | 9.7 | 0.00 | 0.00 | 0.00 | 71 | 1002.8 |
| 20260509072028 | 8 | 71 | 8.0 | 9.7 | 0.00 | 0.00 | 0.00 | 72 | 1002.7 |
| 20260509071931 | 8 | 71 | 8.0 | 9.7 | 0.00 | 0.00 | 0.00 | 72 | 1002.7 |
| 20260509071808 | 8 | 71 | 8.0 | 9.7 | 0.00 | 0.00 | 0.00 | 71 | 1002.7 |
| 20260509071733 | 8 | 71 | 6.4 | 8.0 | 0.00 | 0.00 | 0.00 | 71 | 1002.7 |
| 20260509071616 | 8 | 70 | 4.8 | 6.4 | 0.00 | 0.00 | 0.00 | 71 | 1002.7 |
| 20260509071521 | 8 | 50 | 4.8 | 6.4 | 0.00 | 0.00 | 0.00 | 71 | 1002.7 |
| 20260509071429 | 8 | 48 | 3.2 | 6.4 | 0.00 | 0.00 | 0.00 | 71 | 1002.7 |
| 20260509071306 | 8 | 277 | 1.6 | 3.2 | 0.00 | 0.00 | 0.00 | 67 | 1002.8 |
| 20260509071231 | 8 | 275 | 1.6 | 3.2 | 0.00 | 0.00 | 0.00 | 66 | 1002.7 |
| 20260509071107 | 8 | 275 | 1.6 | 3.2 | 0.00 | 0.00 | 0.00 | 67 | 1002.8 |
| 20260509071011 | 8 | 275 | 1.6 | 3.2 | 0.00 | 0.00 | 0.00 | 68 | 1002.8 |
| 20260509070936 | 8 | 275 | 1.6 | 3.2 | 0.00 | 0.00 | 0.00 | 69 | 1002.8 |
| 20260509070820 | 8 | 275 | 1.6 | 3.2 | 0.00 | 0.00 | 0.00 | 69 | 1002.8 |
| 20260509070728 | 8 | 275 | 1.6 | 3.2 | 0.00 | 0.00 | 0.00 | 69 | 1002.8 |
| 20260509070606 | 8 | 275 | 1.6 | 3.2 | 0.00 | 0.00 | 0.00 | 68 | 1002.7 |
| 20260509070511 | 8 | 275 | 1.6 | 3.2 | 0.00 | 0.00 | 0.00 | 68 | 1002.7 |
| 20260509070415 | 8 | 275 | 1.6 | 3.2 | 0.00 | 0.00 | 0.00 | 68 | 1002.8 |
| 20260509070320 | 8 | 275 | 0.0 | 3.2 | 0.00 | 0.00 | 0.00 | 67 | 1002.7 |
| 20260509070208 | 8 | 275 | 0.0 | 3.2 | 0.00 | 0.00 | 0.00 | 69 | 1002.7 |
| 20260509070132 | 8 | 275 | 1.6 | 3.2 | 0.00 | 0.00 | 0.00 | 70 | 1002.8 |
| 20260509070010 | 8 | 275 | 1.6 | 3.2 | 0.00 | 0.00 | 0.00 | 71 | 1002.8 |
| 20260509065912 | 8 | 275 | 1.6 | 3.2 | 0.00 | 0.00 | 0.00 | 71 | 1002.8 |
| 20260509065816 | 8 | 275 | 1.6 | 3.2 | 0.00 | 0.00 | 0.00 | 71 | 1002.7 |
| 20260509065720 | 8 | 275 | 1.6 | 3.2 | 0.00 | 0.00 | 0.00 | 71 | 1002.8 |
| 20260509065608 | 8 | 275 | 1.6 | 3.2 | 0.00 | 0.00 | 0.00 | 71 | 1002.8 |
| 20260509065511 | 8 | 275 | 1.6 | 3.2 | 0.00 | 0.00 | 0.00 | 71 | 1002.8 |
| 20260509065416 | 8 | 275 | 1.6 | 3.2 | 0.00 | 0.00 | 0.00 | 72 | 1002.8 |
| 20260509065320 | 8 | 275 | 1.6 | 3.2 | 0.00 | 0.00 | 0.00 | 73 | 1002.8 |
| 20260509065224 | 8 | 275 | 1.6 | 3.2 | 0.00 | 0.00 | 0.00 | 73 | 1002.7 |
| 20260509065109 | 7 | 275 | 0.0 | 3.2 | 0.00 | 0.00 | 0.00 | 71 | 1002.8 |
| 20260509065016 | 7 | 275 | 0.0 | 3.2 | 0.00 | 0.00 | 0.00 | 71 | 1002.8 |
| 20260509064920 | 7 | 275 | 0.0 | 3.2 | 0.00 | 0.00 | 0.00 | 71 | 1002.8 |
| 20260509064824 | 7 | 275 | 0.0 | 3.2 | 0.00 | 0.00 | 0.00 | 72 | 1002.8 |
| 20260509064709 | 7 | 275 | 0.0 | 3.2 | 0.00 | 0.00 | 0.00 | 71 | 1002.8 |
| 20260509064614 | 7 | 275 | 1.6 | 3.2 | 0.00 | 0.00 | 0.00 | 70 | 1002.7 |
| 20260509064518 | 7 | 275 | 1.6 | 3.2 | 0.00 | 0.00 | 0.00 | 71 | 1002.8 |
| 20260509064442 | 7 | 275 | 1.6 | 3.2 | 0.00 | 0.00 | 0.00 | 71 | 1002.8 |
| 20260509064329 | 7 | 275 | 1.6 | 3.2 | 0.00 | 0.00 | 0.00 | 71 | 1002.7 |
| 20260509064213 | 7 | 275 | 1.6 | 3.2 | 0.00 | 0.00 | 0.00 | 71 | 1002.7 |
| 20260509064137 | 7 | 275 | 1.6 | 3.2 | 0.00 | 0.00 | 0.00 | 71 | 1002.7 |
| 20260509064020 | 7 | 275 | 1.6 | 3.2 | 0.00 | 0.00 | 0.00 | 72 | 1002.6 |
| 20260509063945 | 7 | 275 | 1.6 | 3.2 | 0.00 | 0.00 | 0.00 | 71 | 1002.5 |
| 20260509063808 | 7 | 275 | 0.0 | 4.8 | 0.00 | 0.00 | 0.00 | 70 | 1002.5 |
| 20260509063712 | 7 | 275 | 0.0 | 4.8 | 0.00 | 0.00 | 0.00 | 70 | 1002.4 |
| 20260509063640 | 7 | 275 | 0.0 | 4.8 | 0.00 | 0.00 | 0.00 | 70 | 1002.5 |
| 20260509063524 | 7 | 275 | 0.0 | 4.8 | 0.00 | 0.00 | 0.00 | 70 | 1002.5 |
| 20260509063409 | 7 | 275 | 0.0 | 4.8 | 0.00 | 0.00 | 0.00 | 70 | 1002.7 |
| 20260509063313 | 7 | 275 | 0.0 | 4.8 | 0.00 | 0.00 | 0.00 | 70 | 1002.5 |
| 20260509063217 | 7 | 275 | 1.6 | 4.8 | 0.00 | 0.00 | 0.00 | 70 | 1002.5 |
| 20260509063122 | 7 | 275 | 3.2 | 4.8 | 0.00 | 0.00 | 0.00 | 70 | 1002.4 |
| 20260509063010 | 7 | 275 | 3.2 | 4.8 | 0.00 | 0.00 | 0.00 | 70 | 1002.5 |
| 20260509062915 | 7 | 276 | 3.2 | 3.2 | 0.00 | 0.00 | 0.00 | 69 | 1002.4 |
| 20260509062819 | 7 | 276 | 1.6 | 3.2 | 0.00 | 0.00 | 0.00 | 68 | 1002.6 |
| 20260509062724 | 7 | 276 | 1.6 | 3.2 | 0.00 | 0.00 | 0.00 | 68 | 1002.7 |
| 20260509062609 | 7 | 276 | 1.6 | 3.2 | 0.00 | 0.00 | 0.00 | 69 | 1002.7 |
| 20260509062512 | 7 | 276 | 1.6 | 3.2 | 0.00 | 0.00 | 0.00 | 69 | 1002.7 |
| 20260509062441 | 7 | 276 | 1.6 | 3.2 | 0.00 | 0.00 | 0.00 | 69 | 1002.7 |
| 20260509062344 | 7 | 276 | 1.6 | 3.2 | 0.00 | 0.00 | 0.00 | 68 | 1002.7 |
| 20260509062228 | 7 | 276 | 1.6 | 3.2 | 0.00 | 0.00 | 0.00 | 67 | 1002.7 |
| 20260509062130 | 7 | 276 | 1.6 | 3.2 | 0.00 | 0.00 | 0.00 | 67 | 1002.7 |
| 20260509062007 | 7 | 276 | 1.6 | 3.2 | 0.00 | 0.00 | 0.00 | 65 | 1002.7 |
| 20260509061911 | 7 | 276 | 1.6 | 3.2 | 0.00 | 0.00 | 0.00 | 65 | 1002.6 |
| 20260509061815 | 7 | 276 | 1.6 | 3.2 | 0.00 | 0.00 | 0.00 | 65 | 1002.6 |
| 20260509061739 | 7 | 276 | 1.6 | 3.2 | 0.00 | 0.00 | 0.00 | 63 | 1002.6 |
| 20260509061607 | 7 | 276 | 0.0 | 3.2 | 0.00 | 0.00 | 0.00 | 61 | 1002.6 |
| 20260509061511 | 7 | 276 | 0.0 | 1.6 | 0.00 | 0.00 | 0.00 | 61 | 1002.7 |
| 20260509061437 | 7 | 276 | 0.0 | 1.6 | 0.00 | 0.00 | 0.00 | 61 | 1002.8 |
| 20260509061320 | 7 | 276 | 0.0 | 1.6 | 0.00 | 0.00 | 0.00 | 61 | 1002.8 |
| 20260509061225 | 7 | 276 | 0.0 | 1.6 | 0.00 | 0.00 | 0.00 | 61 | 1002.8 |
| 20260509061129 | 7 | 276 | 0.0 | 1.6 | 0.00 | 0.00 | 0.00 | 61 | 1002.8 |
| 20260509061017 | 7 | 276 | 0.0 | 3.2 | 0.00 | 0.00 | 0.00 | 61 | 1002.7 |
| 20260509060922 | 7 | 276 | 0.0 | 3.2 | 0.00 | 0.00 | 0.00 | 61 | 1002.7 |
| 20260509060826 | 7 | 276 | 0.0 | 3.2 | 0.00 | 0.00 | 0.00 | 61 | 1002.7 |
| 20260509060731 | 7 | 276 | 0.0 | 3.2 | 0.00 | 0.00 | 0.00 | 61 | 1002.7 |
| 20260509060633 | 7 | 276 | 0.0 | 3.2 | 0.00 | 0.00 | 0.00 | 61 | 1002.7 |
| 20260509060516 | 7 | 276 | 0.0 | 3.2 | 0.00 | 0.00 | 0.00 | 61 | 1002.6 |
| 20260509060421 | 7 | 276 | 1.6 | 3.2 | 0.00 | 0.00 | 0.00 | 61 | 1002.7 |
| 20260509060308 | 7 | 276 | 1.6 | 3.2 | 0.00 | 0.00 | 0.00 | 61 | 1002.7 |
| 20260509060233 | 7 | 276 | 1.6 | 3.2 | 0.00 | 0.00 | 0.00 | 61 | 1002.7 |
| 20260509060110 | 7 | 276 | 1.6 | 3.2 | 0.00 | 0.00 | 0.00 | 61 | 1002.8 |
| 20260509060015 | 7 | 276 | 1.6 | 3.2 | 0.00 | 0.00 | 0.00 | 62 | 1002.7 |
| 20260509055920 | 7 | 276 | 1.6 | 3.2 | 0.00 | 0.00 | 0.00 | 62 | 1002.7 |
| 20260509055823 | 7 | 276 | 1.6 | 3.2 | 0.00 | 0.00 | 0.00 | 62 | 1002.7 |
| 20260509055731 | 7 | 276 | 1.6 | 3.2 | 0.00 | 0.00 | 0.00 | 62 | 1002.7 |
| 20260509055615 | 7 | 276 | 1.6 | 3.2 | 0.00 | 0.00 | 0.00 | 62 | 1002.7 |
| 20260509055539 | 7 | 276 | 1.6 | 3.2 | 0.00 | 0.00 | 0.00 | 61 | 1002.7 |
| 20260509055422 | 7 | 276 | 3.2 | 3.2 | 0.00 | 0.00 | 0.00 | 60 | 1002.7 |
| 20260509055325 | 7 | 276 | 3.2 | 3.2 | 0.00 | 0.00 | 0.00 | 60 | 1002.7 |
| 20260509055209 | 7 | 277 | 3.2 | 3.2 | 0.00 | 0.00 | 0.00 | 62 | 1002.8 |
| 20260509055113 | 7 | 277 | 1.6 | 3.2 | 0.00 | 0.00 | 0.00 | 62 | 1002.8 |
| 20260509055021 | 7 | 277 | 1.6 | 3.2 | 0.00 | 0.00 | 0.00 | 63 | 1002.8 |
| 20260509054926 | 7 | 321 | 0.0 | 1.6 | 0.00 | 0.00 | 0.00 | 64 | 1002.8 |
| 20260509054810 | 7 | 321 | 0.0 | 1.6 | 0.00 | 0.00 | 0.00 | 65 | 1002.8 |
| 20260509054714 | 7 | 321 | 0.0 | 1.6 | 0.00 | 0.00 | 0.00 | 64 | 1003.0 |
| 20260509054617 | 7 | 321 | 0.0 | 1.6 | 0.00 | 0.00 | 0.00 | 64 | 1003.0 |
| 20260509054521 | 7 | 321 | 0.0 | 1.6 | 0.00 | 0.00 | 0.00 | 65 | 1003.1 |
| 20260509054409 | 7 | 321 | 0.0 | 1.6 | 0.00 | 0.00 | 0.00 | 64 | 1003.1 |
| 20260509054313 | 7 | 321 | 0.0 | 1.6 | 0.00 | 0.00 | 0.00 | 64 | 1003.1 |
| 20260509054217 | 7 | 321 | 0.0 | 1.6 | 0.00 | 0.00 | 0.00 | 65 | 1003.1 |
| 20260509054142 | 7 | 321 | 0.0 | 1.6 | 0.00 | 0.00 | 0.00 | 65 | 1003.0 |
| 20260509054006 | 7 | 321 | 0.0 | 1.6 | 0.00 | 0.00 | 0.00 | 65 | 1003.0 |
| 20260509053911 | 7 | 321 | 0.0 | 1.6 | 0.00 | 0.00 | 0.00 | 64 | 1003.1 |
| 20260509053839 | 7 | 321 | 0.0 | 1.6 | 0.00 | 0.00 | 0.00 | 64 | 1003.0 |
| 20260509053742 | 7 | 321 | 0.0 | 1.6 | 0.00 | 0.00 | 0.00 | 64 | 1003.1 |
| 20260509053624 | 7 | 321 | 0.0 | 1.6 | 0.00 | 0.00 | 0.00 | 64 | 1003.1 |
| 20260509053528 | 7 | 321 | 0.0 | 1.6 | 0.00 | 0.00 | 0.00 | 64 | 1003.1 |
| 20260509053451 | 7 | 321 | 0.0 | 0.0 | 0.00 | 0.00 | 0.00 | 64 | 1003.1 |
| 20260509053307 | 7 | 321 | 0.0 | 0.0 | 0.00 | 0.00 | 0.00 | 63 | 1003.1 |
| 20260509053212 | 7 | 321 | 0.0 | 0.0 | 0.00 | 0.00 | 0.00 | 63 | 1003.1 |
| 20260509053138 | 8 | 321 | 0.0 | 0.0 | 0.00 | 0.00 | 0.00 | 62 | 1003.1 |
| 20260509053024 | 8 | 321 | 0.0 | 0.0 | 0.00 | 0.00 | 0.00 | 62 | 1003.1 |
| 20260509052928 | 8 | 321 | 0.0 | 0.0 | 0.00 | 0.00 | 0.00 | 62 | 1003.1 |
| 20260509052853 | 8 | 321 | 0.0 | 0.0 | 0.00 | 0.00 | 0.00 | 62 | 1003.1 |
| 20260509052709 | 8 | 321 | 0.0 | 0.0 | 0.00 | 0.00 | 0.00 | 61 | 1003.1 |
| 20260509052635 | 8 | 321 | 0.0 | 0.0 | 0.00 | 0.00 | 0.00 | 60 | 1003.1 |
| 20260509052518 | 8 | 321 | 0.0 | 0.0 | 0.00 | 0.00 | 0.00 | 60 | 1003.1 |
| 20260509052407 | 8 | 321 | 0.0 | 0.0 | 0.00 | 0.00 | 0.00 | 60 | 1003.1 |
| 20260509052331 | 8 | 321 | 0.0 | 0.0 | 0.00 | 0.00 | 0.00 | 60 | 1003.2 |
| 20260509052206 | 8 | 321 | 0.0 | 0.0 | 0.00 | 0.00 | 0.00 | 59 | 1003.2 |
| 20260509052111 | 8 | 321 | 0.0 | 0.0 | 0.00 | 0.00 | 0.00 | 58 | 1003.2 |
| 20260509052035 | 8 | 321 | 0.0 | 0.0 | 0.00 | 0.00 | 0.00 | 58 | 1003.3 |
| 20260509051919 | 8 | 321 | 0.0 | 1.6 | 0.00 | 0.00 | 0.00 | 58 | 1003.2 |
| 20260509051824 | 8 | 321 | 0.0 | 1.6 | 0.00 | 0.00 | 0.00 | 57 | 1003.2 |
| 20260509051733 | 8 | 321 | 0.0 | 1.6 | 0.00 | 0.00 | 0.00 | 58 | 1003.1 |
| 20260509051636 | 8 | 321 | 0.0 | 1.6 | 0.00 | 0.00 | 0.00 | 57 | 1003.1 |
| 20260509051519 | 8 | 321 | 0.0 | 3.2 | 0.00 | 0.00 | 0.00 | 57 | 1003.2 |
| 20260509051443 | 8 | 321 | 0.0 | 3.2 | 0.00 | 0.00 | 0.00 | 58 | 1003.1 |
| 20260509051326 | 8 | 321 | 0.0 | 3.2 | 0.00 | 0.00 | 0.00 | 57 | 1003.2 |
| 20260509051231 | 8 | 321 | 0.0 | 3.2 | 0.00 | 0.00 | 0.00 | 57 | 1003.2 |
| 20260509051107 | 8 | 321 | 1.6 | 3.2 | 0.00 | 0.00 | 0.00 | 56 | 1003.1 |
| 20260509051031 | 8 | 321 | 1.6 | 3.2 | 0.00 | 0.00 | 0.00 | 54 | 1003.2 |
| 20260509050919 | 8 | 321 | 1.6 | 3.2 | 0.00 | 0.00 | 0.00 | 54 | 1003.1 |
| 20260509050823 | 8 | 321 | 1.6 | 3.2 | 0.00 | 0.00 | 0.00 | 54 | 1003.2 |
| 20260509050725 | 8 | 321 | 1.6 | 3.2 | 0.00 | 0.00 | 0.00 | 54 | 1003.2 |
| 20260509050629 | 9 | 321 | 1.6 | 3.2 | 0.00 | 0.00 | 0.00 | 54 | 1003.1 |
| 20260509050512 | 9 | 321 | 1.6 | 3.2 | 0.00 | 0.00 | 0.00 | 54 | 1003.2 |
| 20260509050416 | 9 | 321 | 0.0 | 3.2 | 0.00 | 0.00 | 0.00 | 54 | 1003.2 |
| 20260509050319 | 9 | 321 | 0.0 | 0.0 | 0.00 | 0.00 | 0.00 | 54 | 1003.2 |
| 20260509050228 | 9 | 321 | 0.0 | 1.6 | 0.00 | 0.00 | 0.00 | 54 | 1003.4 |
| 20260509050151 | 9 | 321 | 0.0 | 1.6 | 0.00 | 0.00 | 0.00 | 54 | 1003.4 |
| 20260509050008 | 9 | 321 | 0.0 | 1.6 | 0.00 | 0.00 | 0.00 | 53 | 1003.5 |
| 20260509045912 | 10 | 321 | 0.0 | 1.6 | 0.00 | 0.00 | 0.00 | 53 | 1003.4 |
| 20260509045817 | 10 | 321 | 0.0 | 1.6 | 0.00 | 0.00 | 0.00 | 53 | 1003.4 |
| 20260509045720 | 10 | 321 | 0.0 | 1.6 | 0.00 | 0.00 | 0.00 | 52 | 1003.4 |
| 20260509045609 | 10 | 321 | 0.0 | 3.2 | 0.00 | 0.00 | 0.00 | 53 | 1003.4 |
| 20260509045534 | 10 | 321 | 0.0 | 3.2 | 0.00 | 0.00 | 0.00 | 53 | 1003.4 |
| 20260509045417 | 10 | 321 | 0.0 | 3.2 | 0.00 | 0.00 | 0.00 | 54 | 1003.4 |
| 20260509045322 | 10 | 321 | 0.0 | 3.2 | 0.00 | 0.00 | 0.00 | 54 | 1003.4 |
| 20260509045227 | 10 | 321 | 1.6 | 3.2 | 0.00 | 0.00 | 0.00 | 54 | 1003.4 |
| 20260509045152 | 10 | 321 | 1.6 | 3.2 | 0.00 | 0.00 | 0.00 | 54 | 1003.4 |
| 20260509045009 | 10 | 321 | 1.6 | 3.2 | 0.00 | 0.00 | 0.00 | 53 | 1003.4 |
| 20260509044918 | 10 | 321 | 1.6 | 3.2 | 0.00 | 0.00 | 0.00 | 52 | 1003.5 |
| 20260509044821 | 10 | 321 | 1.6 | 3.2 | 0.00 | 0.00 | 0.00 | 51 | 1003.5 |
| 20260509044706 | 11 | 321 | 0.0 | 3.2 | 0.00 | 0.00 | 0.00 | 52 | 1003.5 |
| 20260509044610 | 11 | 321 | 0.0 | 3.2 | 0.00 | 0.00 | 0.00 | 51 | 1003.4 |
| 20260509044516 | 11 | 321 | 0.0 | 3.2 | 0.00 | 0.00 | 0.00 | 50 | 1003.4 |
| 20260509044420 | 11 | 321 | 0.0 | 3.2 | 0.00 | 0.00 | 0.00 | 49 | 1003.4 |
| 20260509044308 | 11 | 321 | 1.6 | 3.2 | 0.00 | 0.00 | 0.00 | 49 | 1003.5 |
| 20260509044211 | 11 | 321 | 1.6 | 3.2 | 0.00 | 0.00 | 0.00 | 50 | 1003.4 |
| 20260509044116 | 11 | 321 | 1.6 | 4.8 | 0.00 | 0.00 | 0.00 | 50 | 1003.5 |
| 20260509044040 | 11 | 321 | 3.2 | 4.8 | 0.00 | 0.00 | 0.00 | 49 | 1003.5 |
| 20260509043923 | 11 | 321 | 3.2 | 4.8 | 0.00 | 0.00 | 0.00 | 48 | 1003.4 |
| 20260509043807 | 11 | 321 | 3.2 | 4.8 | 0.00 | 0.00 | 0.00 | 48 | 1003.5 |
| 20260509043737 | 11 | 321 | 3.2 | 4.8 | 0.00 | 0.00 | 0.00 | 47 | 1003.6 |
| 20260509043642 | 11 | 321 | 3.2 | 4.8 | 0.00 | 0.00 | 0.00 | 46 | 1003.5 |
| 20260509043525 | 11 | 321 | 3.2 | 8.0 | 0.00 | 0.00 | 0.00 | 47 | 1003.5 |
| 20260509043428 | 12 | 321 | 3.2 | 8.0 | 0.00 | 0.00 | 0.00 | 47 | 1003.5 |
| 20260509043311 | 12 | 321 | 3.2 | 8.0 | 0.00 | 0.00 | 0.00 | 47 | 1003.6 |
| 20260509043216 | 12 | 321 | 3.2 | 8.0 | 0.00 | 0.00 | 0.00 | 46 | 1003.5 |
| 20260509043140 | 12 | 321 | 3.2 | 8.0 | 0.00 | 0.00 | 0.00 | 47 | 1003.5 |
| 20260509043008 | 12 | 321 | 3.2 | 8.0 | 0.00 | 0.00 | 0.00 | 45 | 1003.6 |
| 20260509042931 | 12 | 321 | 3.2 | 8.0 | 0.00 | 0.00 | 0.00 | 45 | 1003.5 |
| 20260509042815 | 12 | 321 | 4.8 | 8.0 | 0.00 | 0.00 | 0.00 | 44 | 1003.5 |
| 20260509042740 | 12 | 307 | 4.8 | 8.0 | 0.00 | 0.00 | 0.00 | 44 | 1003.6 |
| 20260509042623 | 12 | 322 | 4.8 | 6.4 | 0.00 | 0.00 | 0.00 | 44 | 1003.6 |
| 20260509042507 | 12 | 321 | 4.8 | 6.4 | 0.00 | 0.00 | 0.00 | 43 | 1003.6 |
| 20260509042412 | 12 | 321 | 4.8 | 8.0 | 0.00 | 0.00 | 0.00 | 43 | 1003.6 |
| 20260509042320 | 12 | 315 | 4.8 | 8.0 | 0.00 | 0.00 | 0.00 | 44 | 1003.6 |
| 20260509042245 | 12 | 316 | 3.2 | 8.0 | 0.00 | 0.00 | 0.00 | 43 | 1003.6 |
| 20260509042110 | 12 | 305 | 3.2 | 8.0 | 0.00 | 0.00 | 0.00 | 43 | 1003.5 |
| 20260509042013 | 12 | 301 | 4.8 | 8.0 | 0.00 | 0.00 | 0.00 | 43 | 1003.5 |
| 20260509041917 | 13 | 302 | 3.2 | 8.0 | 0.00 | 0.00 | 0.00 | 44 | 1003.5 |
| 20260509041839 | 13 | 302 | 3.2 | 9.7 | 0.00 | 0.00 | 0.00 | 42 | 1003.5 |
| 20260509041722 | 13 | 302 | 3.2 | 9.7 | 0.00 | 0.00 | 0.00 | 42 | 1003.7 |
| 20260509041610 | 13 | 302 | 4.8 | 9.7 | 0.00 | 0.00 | 0.00 | 42 | 1003.7 |
| 20260509041514 | 13 | 337 | 4.8 | 9.7 | 0.00 | 0.00 | 0.00 | 41 | 1003.8 |
| 20260509041420 | 13 | 333 | 4.8 | 9.7 | 0.00 | 0.00 | 0.00 | 42 | 1003.8 |
| 20260509041323 | 13 | 311 | 4.8 | 9.7 | 0.00 | 0.00 | 0.00 | 42 | 1003.7 |
| 20260509041207 | 13 | 326 | 4.8 | 12.9 | 0.00 | 0.00 | 0.00 | 41 | 1003.8 |
| 20260509041112 | 13 | 314 | 4.8 | 12.9 | 0.00 | 0.00 | 0.00 | 41 | 1003.8 |
| 20260509041022 | 13 | 298 | 4.8 | 12.9 | 0.00 | 0.00 | 0.00 | 42 | 1003.9 |
| 20260509040906 | 13 | 330 | 4.8 | 12.9 | 0.00 | 0.00 | 0.00 | 40 | 1003.9 |
| 20260509040830 | 13 | 315 | 4.8 | 12.9 | 0.00 | 0.00 | 0.00 | 42 | 1003.9 |
| 20260509040713 | 13 | 330 | 4.8 | 12.9 | 0.00 | 0.00 | 0.00 | 39 | 1003.9 |
| 20260509040637 | 13 | 342 | 6.4 | 12.9 | 0.00 | 0.00 | 0.00 | 40 | 1003.9 |
| 20260509040521 | 13 | 348 | 6.4 | 12.9 | 0.00 | 0.00 | 0.00 | 39 | 1003.9 |
| 20260509040409 | 13 | 334 | 4.8 | 12.9 | 0.00 | 0.00 | 0.00 | 40 | 1003.9 |
| 20260509040312 | 13 | 345 | 4.8 | 12.9 | 0.00 | 0.00 | 0.00 | 40 | 1004.0 |
| 20260509040217 | 13 | 327 | 6.4 | 12.9 | 0.00 | 0.00 | 0.00 | 39 | 1004.0 |
| 20260509040121 | 13 | 348 | 6.4 | 12.9 | 0.00 | 0.00 | 0.00 | 39 | 1003.9 |
| 20260509040024 | 13 | 344 | 6.4 | 12.9 | 0.00 | 0.00 | 0.00 | 39 | 1003.9 |
| 20260509035909 | 13 | 355 | 6.4 | 16.1 | 0.00 | 0.00 | 0.00 | 40 | 1004.0 |
| 20260509035818 | 13 | 342 | 6.4 | 16.1 | 0.00 | 0.00 | 0.00 | 39 | 1003.9 |
| 20260509035723 | 13 | 338 | 8.0 | 16.1 | 0.00 | 0.00 | 0.00 | 39 | 1003.9 |
| 20260509035628 | 14 | 355 | 8.0 | 16.1 | 0.00 | 0.00 | 0.00 | 39 | 1003.9 |
| 20260509035513 | 14 | 5 | 6.4 | 16.1 | 0.00 | 0.00 | 0.00 | 39 | 1003.8 |
| 20260509035420 | 14 | 346 | 8.0 | 16.1 | 0.00 | 0.00 | 0.00 | 38 | 1003.8 |
| 20260509035324 | 14 | 341 | 8.0 | 16.1 | 0.00 | 0.00 | 0.00 | 38 | 1003.8 |
| 20260509035230 | 14 | 15 | 9.7 | 16.1 | 0.00 | 0.00 | 0.00 | 38 | 1003.8 |
| 20260509035118 | 14 | 350 | 8.0 | 16.1 | 0.00 | 0.00 | 0.00 | 38 | 1003.9 |
| 20260509035023 | 14 | 346 | 6.4 | 16.1 | 0.00 | 0.00 | 0.00 | 38 | 1003.9 |
| 20260509034929 | 14 | 360 | 8.0 | 20.9 | 0.00 | 0.00 | 0.00 | 39 | 1003.8 |
| 20260509034813 | 14 | 302 | 8.0 | 20.9 | 0.00 | 0.00 | 0.00 | 38 | 1003.8 |
| 20260509034739 | 14 | 344 | 8.0 | 20.9 | 0.00 | 0.00 | 0.00 | 38 | 1003.8 |
| 20260509034642 | 14 | 340 | 6.4 | 20.9 | 0.00 | 0.00 | 0.00 | 38 | 1003.7 |
| 20260509034525 | 14 | 346 | 6.4 | 20.9 | 0.00 | 0.00 | 0.00 | 38 | 1003.8 |
| 20260509034415 | 14 | 320 | 8.0 | 20.9 | 0.00 | 0.00 | 0.00 | 38 | 1003.8 |
| 20260509034322 | 14 | 349 | 9.7 | 20.9 | 0.00 | 0.00 | 0.00 | 38 | 1003.8 |
| 20260509034245 | 14 | 329 | 11.3 | 20.9 | 0.00 | 0.00 | 0.00 | 38 | 1003.8 |
| 20260509034108 | 14 | 338 | 9.7 | 20.9 | 0.00 | 0.00 | 0.00 | 38 | 1003.7 |
| 20260509034032 | 14 | 341 | 9.7 | 17.7 | 0.00 | 0.00 | 0.00 | 38 | 1003.7 |
| 20260509033915 | 14 | 340 | 9.7 | 17.7 | 0.00 | 0.00 | 0.00 | 38 | 1003.7 |
| 20260509033839 | 14 | 339 | 8.0 | 17.7 | 0.00 | 0.00 | 0.00 | 38 | 1003.7 |
| 20260509033725 | 14 | 334 | 8.0 | 17.7 | 0.00 | 0.00 | 0.00 | 38 | 1003.7 |
| 20260509033609 | 14 | 331 | 8.0 | 17.7 | 0.00 | 0.00 | 0.00 | 38 | 1003.7 |
| 20260509033513 | 15 | 40 | 8.0 | 14.5 | 0.00 | 0.00 | 0.00 | 39 | 1003.7 |
| 20260509033418 | 14 | 12 | 8.0 | 14.5 | 0.00 | 0.00 | 0.00 | 38 | 1003.7 |
| 20260509033321 | 15 | 360 | 8.0 | 14.5 | 0.00 | 0.00 | 0.00 | 37 | 1003.6 |
| 20260509033225 | 15 | 340 | 8.0 | 14.5 | 0.00 | 0.00 | 0.00 | 38 | 1003.7 |
| 20260509033112 | 15 | 334 | 8.0 | 14.5 | 0.00 | 0.00 | 0.00 | 37 | 1003.7 |
| 20260509033036 | 15 | 355 | 8.0 | 14.5 | 0.00 | 0.00 | 0.00 | 38 | 1003.7 |
| 20260509032939 | 15 | 360 | 9.7 | 14.5 | 0.00 | 0.00 | 0.00 | 38 | 1003.6 |
| 20260509032822 | 15 | 360 | 8.0 | 14.5 | 0.00 | 0.00 | 0.00 | 38 | 1003.6 |
| 20260509032746 | 15 | 341 | 6.4 | 14.5 | 0.00 | 0.00 | 0.00 | 37 | 1003.6 |
| 20260509032608 | 15 | 355 | 8.0 | 14.5 | 0.00 | 0.00 | 0.00 | 37 | 1003.6 |
| 20260509032511 | 15 | 329 | 9.7 | 14.5 | 0.00 | 0.00 | 0.00 | 37 | 1003.6 |
| 20260509032415 | 15 | 347 | 9.7 | 14.5 | 0.00 | 0.00 | 0.00 | 37 | 1003.6 |
| 20260509032323 | 15 | 323 | 9.7 | 16.1 | 0.00 | 0.00 | 0.00 | 37 | 1003.6 |
| 20260509032227 | 15 | 360 | 9.7 | 16.1 | 0.00 | 0.00 | 0.00 | 37 | 1003.6 |
| 20260509032151 | 15 | 333 | 8.0 | 16.1 | 0.00 | 0.00 | 0.00 | 38 | 1003.6 |
| 20260509032006 | 15 | 341 | 8.0 | 16.1 | 0.00 | 0.00 | 0.00 | 37 | 1003.6 |
| 20260509031908 | 15 | 340 | 9.7 | 16.1 | 0.00 | 0.00 | 0.00 | 38 | 1003.6 |
| 20260509031832 | 15 | 336 | 9.7 | 16.1 | 0.00 | 0.00 | 0.00 | 37 | 1003.6 |
| 20260509031714 | 15 | 350 | 9.7 | 16.1 | 0.00 | 0.00 | 0.00 | 37 | 1003.7 |
| 20260509031623 | 15 | 343 | 9.7 | 16.1 | 0.00 | 0.00 | 0.00 | 38 | 1003.6 |
| 20260509031526 | 15 | 319 | 9.7 | 16.1 | 0.00 | 0.00 | 0.00 | 38 | 1003.6 |
| 20260509031409 | 15 | 347 | 9.7 | 16.1 | 0.00 | 0.00 | 0.00 | 37 | 1003.6 |
| 20260509031314 | 15 | 330 | 9.7 | 16.1 | 0.00 | 0.00 | 0.00 | 37 | 1003.6 |
| 20260509031218 | 15 | 342 | 9.7 | 16.1 | 0.00 | 0.00 | 0.00 | 38 | 1003.6 |
| 20260509031122 | 15 | 319 | 6.4 | 19.3 | 0.00 | 0.00 | 0.00 | 38 | 1003.5 |
| 20260509031029 | 15 | 9 | 9.7 | 19.3 | 0.00 | 0.00 | 0.00 | 37 | 1003.5 |
| 20260509030910 | 15 | 360 | 11.3 | 19.3 | 0.00 | 0.00 | 0.00 | 36 | 1003.6 |
| 20260509030812 | 15 | 5 | 9.7 | 20.9 | 0.00 | 0.00 | 0.00 | 37 | 1003.5 |
| 20260509030715 | 15 | 18 | 8.0 | 20.9 | 0.00 | 0.00 | 0.00 | 37 | 1003.5 |
| 20260509030616 | 15 | 355 | 8.0 | 20.9 | 0.00 | 0.00 | 0.00 | 36 | 1003.5 |
| 20260509030519 | 15 | 355 | 9.7 | 20.9 | 0.00 | 0.00 | 0.00 | 37 | 1003.5 |
| 20260509030423 | 15 | 324 | 11.3 | 20.9 | 0.00 | 0.00 | 0.00 | 36 | 1003.5 |
| 20260509030349 | 15 | 5 | 11.3 | 20.9 | 0.00 | 0.00 | 0.00 | 36 | 1003.5 |
| 20260509030253 | 15 | 32 | 12.9 | 20.9 | 0.00 | 0.00 | 0.00 | 36 | 1003.5 |
| 20260509030107 | 15 | 327 | 11.3 | 20.9 | 0.00 | 0.00 | 0.00 | 36 | 1003.4 |
| 20260509030013 | 15 | 355 | 9.7 | 22.5 | 0.00 | 0.00 | 0.00 | 36 | 1003.5 |
| 20260509025914 | 15 | 343 | 9.7 | 22.5 | 0.00 | 0.00 | 0.00 | 36 | 1003.5 |
| 20260509025818 | 15 | 12 | 9.7 | 22.5 | 0.00 | 0.00 | 0.00 | 37 | 1003.5 |
| 20260509025722 | 15 | 345 | 9.7 | 22.5 | 0.00 | 0.00 | 0.00 | 36 | 1003.4 |
| 20260509025628 | 16 | 9 | 12.9 | 22.5 | 0.00 | 0.00 | 0.00 | 36 | 1003.5 |
| 20260509025531 | 16 | 25 | 12.9 | 22.5 | 0.00 | 0.00 | 0.00 | 36 | 1003.5 |
| 20260509025409 | 16 | 360 | 12.9 | 22.5 | 0.00 | 0.00 | 0.00 | 36 | 1003.5 |
| 20260509025310 | 16 | 355 | 12.9 | 22.5 | 0.00 | 0.00 | 0.00 | 36 | 1003.4 |
| 20260509025214 | 16 | 346 | 9.7 | 24.1 | 0.00 | 0.00 | 0.00 | 36 | 1003.4 |
| 20260509025119 | 16 | 323 | 8.0 | 24.1 | 0.00 | 0.00 | 0.00 | 36 | 1003.4 |
| 20260509025007 | 16 | 51 | 11.3 | 24.1 | 0.00 | 0.00 | 0.00 | 36 | 1003.4 |
| 20260509024909 | 16 | 360 | 12.9 | 24.1 | 0.00 | 0.00 | 0.00 | 36 | 1003.5 |
| 20260509024832 | 16 | 321 | 14.5 | 25.7 | 0.00 | 0.00 | 0.00 | 36 | 1003.4 |
| 20260509024707 | 16 | 18 | 14.5 | 25.7 | 0.00 | 0.00 | 0.00 | 36 | 1003.4 |
| 20260509024612 | 16 | 355 | 14.5 | 25.7 | 0.00 | 0.00 | 0.00 | 36 | 1003.4 |
| 20260509024516 | 16 | 360 | 14.5 | 25.7 | 0.00 | 0.00 | 0.00 | 36 | 1003.3 |
| 20260509024440 | 16 | 311 | 14.5 | 25.7 | 0.00 | 0.00 | 0.00 | 36 | 1003.3 |
| 20260509024328 | 16 | 323 | 12.9 | 25.7 | 0.00 | 0.00 | 0.00 | 36 | 1003.3 |
| 20260509024252 | 16 | 11 | 11.3 | 25.7 | 0.00 | 0.00 | 0.00 | 36 | 1003.3 |
| 20260509024108 | 16 | 331 | 14.5 | 25.7 | 0.00 | 0.00 | 0.00 | 36 | 1003.3 |
| 20260509024013 | 16 | 355 | 14.5 | 25.7 | 0.00 | 0.00 | 0.00 | 36 | 1003.3 |
| 20260509023917 | 16 | 335 | 14.5 | 25.7 | 0.00 | 0.00 | 0.00 | 36 | 1003.3 |
| 20260509023819 | 16 | 339 | 14.5 | 25.7 | 0.00 | 0.00 | 0.00 | 36 | 1003.3 |
| 20260509023708 | 16 | 15 | 14.5 | 24.1 | 0.00 | 0.00 | 0.00 | 37 | 1003.2 |
| 20260509023631 | 16 | 317 | 14.5 | 24.1 | 0.00 | 0.00 | 0.00 | 36 | 1003.3 |
| 20260509023515 | 16 | 360 | 14.5 | 24.1 | 0.00 | 0.00 | 0.00 | 37 | 1003.3 |
| 20260509023418 | 16 | 335 | 12.9 | 25.7 | 0.00 | 0.00 | 0.00 | 37 | 1003.2 |
| 20260509023323 | 16 | 348 | 12.9 | 25.7 | 0.00 | 0.00 | 0.00 | 36 | 1003.3 |
| 20260509023207 | 16 | 330 | 11.3 | 25.7 | 0.00 | 0.00 | 0.00 | 36 | 1003.2 |
| 20260509023117 | 16 | 336 | 12.9 | 25.7 | 0.00 | 0.00 | 0.00 | 37 | 1003.2 |
| 20260509023020 | 16 | 355 | 11.3 | 25.7 | 0.00 | 0.00 | 0.00 | 36 | 1003.2 |
| 20260509022925 | 16 | 344 | 9.7 | 33.8 | 0.00 | 0.00 | 0.00 | 36 | 1003.2 |
| 20260509022849 | 16 | 31 | 8.0 | 33.8 | 0.00 | 0.00 | 0.00 | 36 | 1003.1 |
| 20260509022706 | 17 | 347 | 16.1 | 33.8 | 0.00 | 0.00 | 0.00 | 35 | 1003.1 |
| 20260509022630 | 17 | 325 | 17.7 | 33.8 | 0.00 | 0.00 | 0.00 | 35 | 1003.0 |
| 20260509022508 | 17 | 26 | 17.7 | 33.8 | 0.00 | 0.00 | 0.00 | 35 | 1003.2 |
| 20260509022417 | 17 | 344 | 19.3 | 33.8 | 0.00 | 0.00 | 0.00 | 35 | 1003.1 |
| 20260509022321 | 17 | 349 | 19.3 | 33.8 | 0.00 | 0.00 | 0.00 | 35 | 1003.1 |
| 20260509022226 | 17 | 349 | 22.5 | 33.8 | 0.00 | 0.00 | 0.00 | 35 | 1003.1 |
| 20260509022129 | 17 | 355 | 24.1 | 33.8 | 0.00 | 0.00 | 0.00 | 35 | 1003.1 |
| 20260509022054 | 17 | 347 | 22.5 | 33.8 | 0.00 | 0.00 | 0.00 | 35 | 1003.2 |
| 20260509021907 | 17 | 11 | 24.1 | 33.8 | 0.00 | 0.00 | 0.00 | 35 | 1003.1 |
| 20260509021816 | 17 | 350 | 24.1 | 33.8 | 0.00 | 0.00 | 0.00 | 35 | 1003.0 |
| 20260509021721 | 17 | 360 | 22.5 | 33.8 | 0.00 | 0.00 | 0.00 | 36 | 1003.0 |
| 20260509021626 | 17 | 351 | 24.1 | 33.8 | 0.00 | 0.00 | 0.00 | 36 | 1003.0 |
| 20260509021529 | 17 | 14 | 19.3 | 33.8 | 0.00 | 0.00 | 0.00 | 36 | 1003.0 |
| 20260509021406 | 17 | 5 | 16.1 | 33.8 | 0.00 | 0.00 | 0.00 | 36 | 1003.0 |
| 20260509021332 | 17 | 41 | 17.7 | 37.0 | 0.00 | 0.00 | 0.00 | 36 | 1003.0 |
| 20260509021213 | 17 | 329 | 17.7 | 37.0 | 0.00 | 0.00 | 0.00 | 36 | 1003.0 |
| 20260509021122 | 17 | 355 | 19.3 | 37.0 | 0.00 | 0.00 | 0.00 | 36 | 1002.8 |
| 20260509021027 | 17 | 336 | 19.3 | 37.0 | 0.00 | 0.00 | 0.00 | 36 | 1002.8 |
| 20260509020930 | 17 | 355 | 20.9 | 37.0 | 0.00 | 0.00 | 0.00 | 36 | 1002.9 |
| 20260509020831 | 17 | 13 | 20.9 | 37.0 | 0.00 | 0.00 | 0.00 | 36 | 1002.8 |
| 20260509020707 | 17 | 20 | 19.3 | 37.0 | 0.00 | 0.00 | 0.00 | 36 | 1002.7 |
| 20260509020611 | 17 | 5 | 20.9 | 37.0 | 0.00 | 0.00 | 0.00 | 35 | 1002.7 |
| 20260509020536 | 17 | 360 | 24.1 | 37.0 | 0.00 | 0.00 | 0.00 | 35 | 1002.7 |
| 20260509020440 | 17 | 340 | 22.5 | 32.2 | 0.00 | 0.00 | 0.00 | 35 | 1002.6 |
| 20260509020306 | 17 | 5 | 20.9 | 32.2 | 0.00 | 0.00 | 0.00 | 35 | 1002.7 |
| 20260509020210 | 17 | 5 | 17.7 | 30.6 | 0.00 | 0.00 | 0.00 | 35 | 1002.6 |
| 20260509020114 | 17 | 17 | 19.3 | 30.6 | 0.00 | 0.00 | 0.00 | 35 | 1002.5 |
| 20260509020017 | 17 | 355 | 19.3 | 30.6 | 0.00 | 0.00 | 0.00 | 35 | 1002.6 |
| 20260509015941 | 17 | 5 | 17.7 | 29.0 | 0.00 | 0.00 | 0.00 | 35 | 1002.5 |
| 20260509015845 | 17 | 347 | 14.5 | 29.0 | 0.00 | 0.00 | 0.00 | 35 | 1002.5 |
| 20260509015713 | 17 | 360 | 16.1 | 30.6 | 0.00 | 0.00 | 0.00 | 35 | 1002.5 |
| 20260509015618 | 17 | 360 | 19.3 | 30.6 | 0.00 | 0.00 | 0.00 | 35 | 1002.4 |
| 20260509015522 | 17 | 360 | 19.3 | 30.6 | 0.00 | 0.00 | 0.00 | 35 | 1002.5 |
| 20260509015427 | 17 | 345 | 17.7 | 30.6 | 0.00 | 0.00 | 0.00 | 35 | 1002.4 |
| 20260509015309 | 17 | 360 | 16.1 | 30.6 | 0.00 | 0.00 | 0.00 | 35 | 1002.4 |
| 20260509015214 | 17 | 338 | 14.5 | 30.6 | 0.00 | 0.00 | 0.00 | 35 | 1002.3 |
| 20260509015117 | 17 | 17 | 16.1 | 35.4 | 0.00 | 0.00 | 0.00 | 34 | 1002.3 |
| 20260509015024 | 17 | 5 | 16.1 | 35.4 | 0.00 | 0.00 | 0.00 | 34 | 1002.3 |
| 20260509014909 | 17 | 29 | 16.1 | 35.4 | 0.00 | 0.00 | 0.00 | 35 | 1002.3 |
| 20260509014834 | 17 | 15 | 17.7 | 35.4 | 0.00 | 0.00 | 0.00 | 35 | 1002.2 |
| 20260509014710 | 17 | 333 | 17.7 | 35.4 | 0.00 | 0.00 | 0.00 | 35 | 1002.2 |
| 20260509014635 | 17 | 21 | 16.1 | 35.4 | 0.00 | 0.00 | 0.00 | 34 | 1002.2 |
| 20260509014519 | 17 | 355 | 16.1 | 35.4 | 0.00 | 0.00 | 0.00 | 33 | 1002.2 |
| 20260509014407 | 17 | 15 | 20.9 | 35.4 | 0.00 | 0.00 | 0.00 | 33 | 1002.2 |
| 20260509014331 | 17 | 338 | 20.9 | 35.4 | 0.00 | 0.00 | 0.00 | 33 | 1002.2 |
| 20260509014234 | 17 | 5 | 19.3 | 27.4 | 0.00 | 0.00 | 0.00 | 33 | 1002.2 |
| 20260509014109 | 17 | 350 | 16.1 | 25.7 | 0.00 | 0.00 | 0.00 | 33 | 1002.2 |
| 20260509014034 | 17 | 340 | 9.7 | 20.9 | 0.00 | 0.00 | 0.00 | 33 | 1002.0 |
| 20260509013916 | 17 | 326 | 8.0 | 20.9 | 0.00 | 0.00 | 0.00 | 33 | 1002.1 |
| 20260509013820 | 17 | 303 | 6.4 | 20.9 | 0.00 | 0.00 | 0.00 | 33 | 1002.0 |
| 20260509013745 | 17 | 319 | 8.0 | 20.9 | 0.00 | 0.00 | 0.00 | 33 | 1002.0 |
| 20260509013613 | 18 | 344 | 6.4 | 20.9 | 0.00 | 0.00 | 0.00 | 33 | 1002.0 |
| 20260509013516 | 18 | 338 | 6.4 | 20.9 | 0.00 | 0.00 | 0.00 | 33 | 1002.0 |
| 20260509013440 | 18 | 330 | 8.0 | 20.9 | 0.00 | 0.00 | 0.00 | 32 | 1001.9 |
| 20260509013344 | 18 | 334 | 9.7 | 20.9 | 0.00 | 0.00 | 0.00 | 32 | 1002.0 |
| 20260509013226 | 18 | 350 | 9.7 | 20.9 | 0.00 | 0.00 | 0.00 | 32 | 1002.0 |
| 20260509013149 | 18 | 338 | 8.0 | 20.9 | 0.00 | 0.00 | 0.00 | 33 | 1001.9 |
| 20260509013006 | 18 | 336 | 9.7 | 20.9 | 0.00 | 0.00 | 0.00 | 32 | 1002.0 |
| 20260509012911 | 18 | 341 | 8.0 | 20.9 | 0.00 | 0.00 | 0.00 | 33 | 1001.9 |
| 20260509012819 | 18 | 5 | 8.0 | 22.5 | 0.00 | 0.00 | 0.00 | 32 | 1001.9 |
| 20260509012743 | 18 | 10 | 8.0 | 22.5 | 0.00 | 0.00 | 0.00 | 33 | 1002.0 |
| 20260509012625 | 18 | 355 | 9.7 | 22.5 | 0.00 | 0.00 | 0.00 | 32 | 1001.9 |
| 20260509012528 | 18 | 13 | 11.3 | 22.5 | 0.00 | 0.00 | 0.00 | 31 | 1001.9 |
| 20260509012406 | 18 | 329 | 12.9 | 22.5 | 0.00 | 0.00 | 0.00 | 31 | 1001.9 |
| 20260509012331 | 18 | 355 | 11.3 | 22.5 | 0.00 | 0.00 | 0.00 | 32 | 1002.0 |
| 20260509012234 | 18 | 338 | 11.3 | 22.5 | 0.00 | 0.00 | 0.00 | 32 | 1001.9 |
| 20260509012122 | 18 | 325 | 11.3 | 22.5 | 0.00 | 0.00 | 0.00 | 31 | 1001.9 |
| 20260509012007 | 18 | 329 | 11.3 | 20.9 | 0.00 | 0.00 | 0.00 | 31 | 1001.9 |
| 20260509011912 | 18 | 333 | 12.9 | 20.9 | 0.00 | 0.00 | 0.00 | 31 | 1001.9 |
| 20260509011817 | 18 | 340 | 12.9 | 20.9 | 0.00 | 0.00 | 0.00 | 31 | 1001.8 |
| 20260509011740 | 18 | 319 | 11.3 | 20.9 | 0.00 | 0.00 | 0.00 | 32 | 1001.8 |
| 20260509011624 | 18 | 348 | 8.0 | 20.9 | 0.00 | 0.00 | 0.00 | 31 | 1001.9 |
| 20260509011513 | 18 | 342 | 4.8 | 20.9 | 0.00 | 0.00 | 0.00 | 31 | 1001.8 |
| 20260509011418 | 18 | 321 | 6.4 | 20.9 | 0.00 | 0.00 | 0.00 | 32 | 1001.8 |
| 20260509011342 | 18 | 360 | 9.7 | 20.9 | 0.00 | 0.00 | 0.00 | 31 | 1001.8 |
| 20260509011225 | 18 | 337 | 11.3 | 20.9 | 0.00 | 0.00 | 0.00 | 31 | 1001.8 |
| 20260509011130 | 18 | 355 | 8.0 | 19.3 | 0.00 | 0.00 | 0.00 | 32 | 1001.8 |
| 20260509011033 | 18 | 15 | 8.0 | 19.3 | 0.00 | 0.00 | 0.00 | 31 | 1001.8 |
| 20260509010936 | 18 | 355 | 8.0 | 19.3 | 0.00 | 0.00 | 0.00 | 32 | 1001.8 |
| 20260509010839 | 18 | 286 | 8.0 | 19.3 | 0.00 | 0.00 | 0.00 | 30 | 1001.8 |
| 20260509010722 | 18 | 34 | 8.0 | 19.3 | 0.00 | 0.00 | 0.00 | 30 | 1001.8 |
| 20260509010651 | 18 | 350 | 6.4 | 19.3 | 0.00 | 0.00 | 0.00 | 30 | 1001.7 |
| 20260509010508 | 19 | 310 | 11.3 | 24.1 | 0.00 | 0.00 | 0.00 | 31 | 1001.8 |
| 20260509010431 | 19 | 323 | 11.3 | 24.1 | 0.00 | 0.00 | 0.00 | 31 | 1001.8 |
| 20260509010308 | 19 | 340 | 9.7 | 24.1 | 0.00 | 0.00 | 0.00 | 30 | 1001.8 |
| 20260509010213 | 19 | 338 | 8.0 | 24.1 | 0.00 | 0.00 | 0.00 | 30 | 1001.7 |
| 20260509010137 | 19 | 340 | 9.7 | 24.1 | 0.00 | 0.00 | 0.00 | 30 | 1001.7 |
| 20260509010021 | 19 | 5 | 11.3 | 24.1 | 0.00 | 0.00 | 0.00 | 30 | 1001.7 |
| 20260509005910 | 19 | 355 | 11.3 | 25.7 | 0.00 | 0.00 | 0.00 | 30 | 1001.7 |
| 20260509005834 | 19 | 5 | 11.3 | 25.7 | 0.00 | 0.00 | 0.00 | 30 | 1001.7 |
| 20260509005709 | 19 | 5 | 12.9 | 25.7 | 0.00 | 0.00 | 0.00 | 30 | 1001.6 |
| 20260509005614 | 19 | 333 | 12.9 | 25.7 | 0.00 | 0.00 | 0.00 | 30 | 1001.7 |
| 20260509005538 | 19 | 38 | 9.7 | 25.7 | 0.00 | 0.00 | 0.00 | 30 | 1001.7 |
| 20260509005442 | 19 | 327 | 6.4 | 25.7 | 0.00 | 0.00 | 0.00 | 32 | 1001.7 |
| 20260509005309 | 19 | 333 | 8.0 | 25.7 | 0.00 | 0.00 | 0.00 | 30 | 1001.7 |
| 20260509005213 | 19 | 315 | 9.7 | 25.7 | 0.00 | 0.00 | 0.00 | 29 | 1001.7 |
| 20260509005139 | 19 | 9 | 12.9 | 25.7 | 0.00 | 0.00 | 0.00 | 29 | 1001.7 |
| 20260509005041 | 19 | 333 | 11.3 | 25.7 | 0.00 | 0.00 | 0.00 | 29 | 1001.6 |
| 20260509004924 | 19 | 344 | 9.7 | 20.9 | 0.00 | 0.00 | 0.00 | 30 | 1001.7 |
| 20260509004827 | 20 | 328 | 14.5 | 20.9 | 0.00 | 0.00 | 0.00 | 29 | 1001.6 |
| 20260509004711 | 20 | 348 | 14.5 | 24.1 | 0.00 | 0.00 | 0.00 | 28 | 1001.6 |
| 20260509004614 | 20 | 350 | 12.9 | 24.1 | 0.00 | 0.00 | 0.00 | 29 | 1001.7 |
| 20260509004522 | 20 | 326 | 12.9 | 25.7 | 0.00 | 0.00 | 0.00 | 29 | 1001.7 |
| 20260509004425 | 20 | 355 | 12.9 | 25.7 | 0.00 | 0.00 | 0.00 | 28 | 1001.6 |
| 20260509004330 | 20 | 360 | 11.3 | 25.7 | 0.00 | 0.00 | 0.00 | 29 | 1001.7 |
| 20260509004206 | 20 | 328 | 8.0 | 25.7 | 0.00 | 0.00 | 0.00 | 29 | 1001.6 |
| 20260509004111 | 20 | 350 | 11.3 | 25.7 | 0.00 | 0.00 | 0.00 | 29 | 1001.6 |
| 20260509004015 | 20 | 346 | 12.9 | 25.7 | 0.00 | 0.00 | 0.00 | 29 | 1001.6 |
| 20260509003923 | 20 | 337 | 14.5 | 25.7 | 0.00 | 0.00 | 0.00 | 28 | 1001.6 |
| 20260509003828 | 20 | 5 | 16.1 | 25.7 | 0.00 | 0.00 | 0.00 | 29 | 1001.6 |
| 20260509003731 | 20 | 309 | 16.1 | 25.7 | 0.00 | 0.00 | 0.00 | 30 | 1001.6 |
| 20260509003608 | 20 | 284 | 14.5 | 25.7 | 0.00 | 0.00 | 0.00 | 29 | 1001.5 |
| 20260509003513 | 20 | 324 | 14.5 | 25.7 | 0.00 | 0.00 | 0.00 | 29 | 1001.6 |
| 20260509003438 | 20 | 323 | 12.9 | 32.2 | 0.00 | 0.00 | 0.00 | 30 | 1001.5 |
| 20260509003341 | 20 | 329 | 9.7 | 32.2 | 0.00 | 0.00 | 0.00 | 30 | 1001.5 |
| 20260509003228 | 20 | 13 | 12.9 | 32.2 | 0.00 | 0.00 | 0.00 | 30 | 1001.5 |
| 20260509003106 | 20 | 360 | 12.9 | 32.2 | 0.00 | 0.00 | 0.00 | 30 | 1001.6 |
| 20260509003010 | 20 | 325 | 11.3 | 32.2 | 0.00 | 0.00 | 0.00 | 30 | 1001.6 |
| 20260509002914 | 20 | 326 | 14.5 | 32.2 | 0.00 | 0.00 | 0.00 | 30 | 1001.6 |
| 20260509002819 | 20 | 331 | 16.1 | 32.2 | 0.00 | 0.00 | 0.00 | 29 | 1001.5 |
| 20260509002723 | 20 | 305 | 16.1 | 32.2 | 0.00 | 0.00 | 0.00 | 29 | 1001.5 |
| 20260509002632 | 20 | 321 | 17.7 | 32.2 | 0.00 | 0.00 | 0.00 | 29 | 1001.4 |
| 20260509002508 | 20 | 345 | 17.7 | 29.0 | 0.00 | 0.00 | 0.00 | 29 | 1001.6 |
| 20260509002413 | 20 | 308 | 19.3 | 29.0 | 0.00 | 0.00 | 0.00 | 28 | 1001.5 |
| 20260509002317 | 20 | 311 | 19.3 | 29.0 | 0.00 | 0.00 | 0.00 | 30 | 1001.5 |
| 20260509002221 | 20 | 322 | 14.5 | 25.7 | 0.00 | 0.00 | 0.00 | 29 | 1001.6 |
| 20260509002125 | 20 | 337 | 9.7 | 19.3 | 0.00 | 0.00 | 0.00 | 32 | 1001.7 |
| 20260509002033 | 20 | 360 | 6.4 | 17.7 | 0.00 | 0.00 | 0.00 | 31 | 1001.6 |
| 20260509001917 | 20 | 316 | 6.4 | 19.3 | 0.00 | 0.00 | 0.00 | 30 | 1001.5 |
| 20260509001821 | 20 | 360 | 6.4 | 19.3 | 0.00 | 0.00 | 0.00 | 31 | 1001.7 |
| 20260509001725 | 20 | 338 | 8.0 | 20.9 | 0.00 | 0.00 | 0.00 | 30 | 1001.5 |
| 20260509001630 | 20 | 333 | 6.4 | 20.9 | 0.00 | 0.00 | 0.00 | 32 | 1001.6 |
| 20260509001514 | 20 | 321 | 6.4 | 25.7 | 0.00 | 0.00 | 0.00 | 32 | 1001.6 |
| 20260509001419 | 20 | 298 | 8.0 | 25.7 | 0.00 | 0.00 | 0.00 | 30 | 1001.7 |
| 20260509001307 | 20 | 350 | 11.3 | 25.7 | 0.00 | 0.00 | 0.00 | 31 | 1001.6 |
| 20260509001231 | 20 | 355 | 11.3 | 25.7 | 0.00 | 0.00 | 0.00 | 31 | 1001.7 |
| 20260509001108 | 20 | 329 | 12.9 | 25.7 | 0.00 | 0.00 | 0.00 | 30 | 1001.7 |
| 20260509001013 | 20 | 320 | 11.3 | 25.7 | 0.00 | 0.00 | 0.00 | 32 | 1001.6 |
| 20260509000937 | 20 | 319 | 11.3 | 25.7 | 0.00 | 0.00 | 0.00 | 32 | 1001.6 |
| 20260509000820 | 20 | 330 | 11.3 | 25.7 | 0.00 | 0.00 | 0.00 | 31 | 1001.6 |
| 20260509000708 | 20 | 327 | 9.7 | 25.7 | 0.00 | 0.00 | 0.00 | 32 | 1001.7 |
| 20260509000612 | 20 | 317 | 6.4 | 22.5 | 0.00 | 0.00 | 0.00 | 31 | 1001.6 |
| 20260509000537 | 20 | 338 | 8.0 | 22.5 | 0.00 | 0.00 | 0.00 | 30 | 1001.6 |
| 20260509000420 | 20 | 348 | 12.9 | 22.5 | 0.00 | 0.00 | 0.00 | 30 | 1001.6 |
| 20260509000326 | 20 | 318 | 16.1 | 22.5 | 0.00 | 0.00 | 0.00 | 31 | 1001.7 |
| 20260509000229 | 20 | 323 | 12.9 | 22.5 | 0.00 | 0.00 | 0.00 | 31 | 1001.6 |
| 20260509000111 | 20 | 5 | 8.0 | 19.3 | 0.00 | 0.00 | 0.00 | 31 | 1001.6 |
| 20260509000020 | 20 | 300 | 8.0 | 19.3 | 0.00 | 0.00 | 0.00 | 32 | 1001.7 |
| 20260508235924 | 20 | 312 | 9.7 | 19.3 | 0.00 | 0.00 | 0.00 | 30 | 1001.6 |
| 20260508235828 | 20 | 355 | 9.7 | 19.3 | 0.00 | 0.00 | 0.00 | 30 | 1001.7 |
| 20260508235752 | 20 | 348 | 11.3 | 20.9 | 0.00 | 0.00 | 0.00 | 31 | 1001.7 |
| 20260508235607 | 20 | 346 | 11.3 | 20.9 | 0.00 | 0.00 | 0.00 | 31 | 1001.7 |
| 20260508235511 | 20 | 337 | 9.7 | 20.9 | 0.00 | 0.00 | 0.00 | 31 | 1001.7 |
| 20260508235420 | 20 | 350 | 9.7 | 20.9 | 0.00 | 0.00 | 0.00 | 30 | 1001.6 |
| 20260508235345 | 20 | 348 | 9.7 | 20.9 | 0.00 | 0.00 | 0.00 | 32 | 1001.6 |
| 20260508235229 | 20 | 350 | 8.0 | 20.9 | 0.00 | 0.00 | 0.00 | 31 | 1001.7 |
| 20260508235106 | 20 | 25 | 8.0 | 20.9 | 0.00 | 0.00 | 0.00 | 31 | 1001.7 |
| 20260508235011 | 20 | 5 | 11.3 | 20.9 | 0.00 | 0.00 | 0.00 | 31 | 1001.6 |
| 20260508234916 | 20 | 350 | 14.5 | 20.9 | 0.00 | 0.00 | 0.00 | 31 | 1001.6 |
| 20260508234820 | 20 | 355 | 14.5 | 20.9 | 0.00 | 0.00 | 0.00 | 30 | 1001.5 |
| 20260508234729 | 20 | 15 | 12.9 | 19.3 | 0.00 | 0.00 | 0.00 | 30 | 1001.5 |
| 20260508234606 | 20 | 24 | 11.3 | 17.7 | 0.00 | 0.00 | 0.00 | 30 | 1001.6 |
| 20260508234510 | 20 | 360 | 9.7 | 17.7 | 0.00 | 0.00 | 0.00 | 31 | 1001.6 |
| 20260508234414 | 20 | 5 | 8.0 | 17.7 | 0.00 | 0.00 | 0.00 | 31 | 1001.6 |
| 20260508234319 | 20 | 27 | 6.4 | 17.7 | 0.00 | 0.00 | 0.00 | 31 | 1001.6 |
| 20260508234207 | 20 | 38 | 8.0 | 17.7 | 0.00 | 0.00 | 0.00 | 33 | 1001.6 |
| 20260508234131 | 20 | 5 | 9.7 | 17.7 | 0.00 | 0.00 | 0.00 | 31 | 1001.6 |
| 20260508234035 | 20 | 323 | 11.3 | 22.5 | 0.00 | 0.00 | 0.00 | 30 | 1001.6 |
| 20260508233918 | 20 | 317 | 11.3 | 22.5 | 0.00 | 0.00 | 0.00 | 30 | 1001.6 |
| 20260508233821 | 20 | 355 | 9.7 | 22.5 | 0.00 | 0.00 | 0.00 | 31 | 1001.6 |
| 20260508233706 | 20 | 325 | 8.0 | 22.5 | 0.00 | 0.00 | 0.00 | 31 | 1001.6 |
| 20260508233630 | 20 | 335 | 8.0 | 22.5 | 0.00 | 0.00 | 0.00 | 31 | 1001.6 |
| 20260508233513 | 20 | 309 | 9.7 | 22.5 | 0.00 | 0.00 | 0.00 | 31 | 1001.6 |
| 20260508233421 | 20 | 339 | 11.3 | 25.7 | 0.00 | 0.00 | 0.00 | 29 | 1001.5 |
| 20260508233325 | 20 | 322 | 14.5 | 25.7 | 0.00 | 0.00 | 0.00 | 30 | 1001.6 |
| 20260508233249 | 20 | 323 | 14.5 | 25.7 | 0.00 | 0.00 | 0.00 | 30 | 1001.7 |
| 20260508233106 | 20 | 334 | 11.3 | 25.7 | 0.00 | 0.00 | 0.00 | 32 | 1001.7 |
| 20260508233009 | 20 | 349 | 9.7 | 25.7 | 0.00 | 0.00 | 0.00 | 31 | 1001.7 |
| 20260508232914 | 20 | 360 | 12.9 | 29.0 | 0.00 | 0.00 | 0.00 | 31 | 1001.7 |
| 20260508232817 | 20 | 319 | 11.3 | 29.0 | 0.00 | 0.00 | 0.00 | 31 | 1001.7 |
| 20260508232724 | 20 | 295 | 14.5 | 29.0 | 0.00 | 0.00 | 0.00 | 32 | 1001.7 |
| 20260508232629 | 20 | 285 | 14.5 | 33.8 | 0.00 | 0.00 | 0.00 | 30 | 1001.7 |
| 20260508232533 | 20 | 336 | 14.5 | 33.8 | 0.00 | 0.00 | 0.00 | 30 | 1001.6 |
| 20260508232410 | 20 | 315 | 16.1 | 33.8 | 0.00 | 0.00 | 0.00 | 31 | 1001.7 |
| 20260508232335 | 20 | 339 | 16.1 | 33.8 | 0.00 | 0.00 | 0.00 | 30 | 1001.8 |
| 20260508232238 | 21 | 342 | 17.7 | 33.8 | 0.00 | 0.00 | 0.00 | 30 | 1001.7 |
| 20260508232121 | 21 | 319 | 16.1 | 33.8 | 0.00 | 0.00 | 0.00 | 30 | 1001.7 |
| 20260508232030 | 21 | 324 | 14.5 | 33.8 | 0.00 | 0.00 | 0.00 | 29 | 1001.7 |
| 20260508231908 | 21 | 303 | 17.7 | 33.8 | 0.00 | 0.00 | 0.00 | 30 | 1001.7 |
| 20260508231812 | 21 | 321 | 22.5 | 33.8 | 0.00 | 0.00 | 0.00 | 30 | 1001.7 |
| 20260508231716 | 21 | 307 | 20.9 | 33.8 | 0.00 | 0.00 | 0.00 | 29 | 1001.8 |
| 20260508231620 | 20 | 344 | 17.7 | 33.8 | 0.00 | 0.00 | 0.00 | 30 | 1001.8 |
| 20260508231525 | 20 | 342 | 14.5 | 27.4 | 0.00 | 0.00 | 0.00 | 31 | 1001.8 |
| 20260508231414 | 20 | 349 | 11.3 | 27.4 | 0.00 | 0.00 | 0.00 | 31 | 1001.8 |
| 20260508231337 | 20 | 342 | 11.3 | 27.4 | 0.00 | 0.00 | 0.00 | 32 | 1001.8 |
| 20260508231219 | 20 | 355 | 14.5 | 27.4 | 0.00 | 0.00 | 0.00 | 31 | 1001.8 |
| 20260508231143 | 20 | 319 | 19.3 | 27.4 | 0.00 | 0.00 | 0.00 | 30 | 1001.8 |
| 20260508231007 | 20 | 324 | 16.1 | 25.7 | 0.00 | 0.00 | 0.00 | 32 | 1001.8 |
| 20260508230930 | 20 | 327 | 14.5 | 24.1 | 0.00 | 0.00 | 0.00 | 32 | 1001.7 |
| 20260508230834 | 20 | 319 | 14.5 | 24.1 | 0.00 | 0.00 | 0.00 | 32 | 1001.7 |
| 20260508230716 | 20 | 306 | 14.5 | 27.4 | 0.00 | 0.00 | 0.00 | 31 | 1001.8 |
| 20260508230624 | 20 | 327 | 14.5 | 27.4 | 0.00 | 0.00 | 0.00 | 31 | 1001.8 |
| 20260508230508 | 20 | 349 | 12.9 | 27.4 | 0.00 | 0.00 | 0.00 | 30 | 1001.8 |
| 20260508230412 | 20 | 5 | 9.7 | 27.4 | 0.00 | 0.00 | 0.00 | 30 | 1001.9 |
| 20260508230316 | 21 | 280 | 11.3 | 27.4 | 0.00 | 0.00 | 0.00 | 32 | 1001.9 |
| 20260508230219 | 21 | 347 | 11.3 | 27.4 | 0.00 | 0.00 | 0.00 | 33 | 1001.8 |
| 20260508230124 | 21 | 5 | 9.7 | 27.4 | 0.00 | 0.00 | 0.00 | 31 | 1001.8 |
| 20260508230013 | 21 | 342 | 14.5 | 27.4 | 0.00 | 0.00 | 0.00 | 30 | 1002.0 |
| 20260508225917 | 21 | 348 | 16.1 | 27.4 | 0.00 | 0.00 | 0.00 | 29 | 1001.9 |
| 20260508225821 | 21 | 347 | 12.9 | 27.4 | 0.00 | 0.00 | 0.00 | 31 | 1001.9 |
| 20260508225706 | 21 | 302 | 9.7 | 19.3 | 0.00 | 0.00 | 0.00 | 31 | 1001.8 |
| 20260508225610 | 21 | 5 | 9.7 | 19.3 | 0.00 | 0.00 | 0.00 | 31 | 1001.9 |
| 20260508225533 | 21 | 360 | 12.9 | 22.5 | 0.00 | 0.00 | 0.00 | 32 | 1001.9 |
| 20260508225436 | 20 | 321 | 12.9 | 22.5 | 0.00 | 0.00 | 0.00 | 30 | 1001.8 |
| 20260508225323 | 20 | 35 | 9.7 | 27.4 | 0.00 | 0.00 | 0.00 | 30 | 1002.0 |
| 20260508225225 | 20 | 14 | 11.3 | 27.4 | 0.00 | 0.00 | 0.00 | 30 | 1001.9 |
| 20260508225128 | 20 | 11 | 12.9 | 27.4 | 0.00 | 0.00 | 0.00 | 30 | 1001.8 |
| 20260508225010 | 20 | 348 | 11.3 | 27.4 | 0.00 | 0.00 | 0.00 | 30 | 1001.9 |
| 20260508224933 | 20 | 10 | 11.3 | 27.4 | 0.00 | 0.00 | 0.00 | 31 | 1001.9 |
| 20260508224810 | 20 | 307 | 14.5 | 27.4 | 0.00 | 0.00 | 0.00 | 30 | 1001.8 |
| 20260508224718 | 20 | 355 | 14.5 | 27.4 | 0.00 | 0.00 | 0.00 | 29 | 1001.9 |
| 20260508224621 | 20 | 16 | 17.7 | 27.4 | 0.00 | 0.00 | 0.00 | 30 | 1001.9 |
| 20260508224545 | 20 | 355 | 16.1 | 27.4 | 0.00 | 0.00 | 0.00 | 29 | 1001.8 |
| 20260508224430 | 21 | 10 | 11.3 | 25.7 | 0.00 | 0.00 | 0.00 | 30 | 1001.8 |
| 20260508224313 | 20 | 347 | 11.3 | 25.7 | 0.00 | 0.00 | 0.00 | 31 | 1001.9 |
| 20260508224217 | 20 | 325 | 11.3 | 25.7 | 0.00 | 0.00 | 0.00 | 32 | 1001.9 |
| 20260508224122 | 20 | 9 | 12.9 | 25.7 | 0.00 | 0.00 | 0.00 | 32 | 1002.0 |
| 20260508224030 | 20 | 317 | 11.3 | 25.7 | 0.00 | 0.00 | 0.00 | 32 | 1002.0 |
| 20260508223907 | 20 | 355 | 14.5 | 25.7 | 0.00 | 0.00 | 0.00 | 31 | 1001.9 |
| 20260508223811 | 20 | 340 | 14.5 | 25.7 | 0.00 | 0.00 | 0.00 | 31 | 1002.0 |
| 20260508223715 | 20 | 14 | 11.3 | 22.5 | 0.00 | 0.00 | 0.00 | 30 | 1001.9 |
| 20260508223618 | 20 | 5 | 12.9 | 22.5 | 0.00 | 0.00 | 0.00 | 32 | 1001.9 |
| 20260508223521 | 20 | 325 | 12.9 | 22.5 | 0.00 | 0.00 | 0.00 | 31 | 1001.9 |
| 20260508223445 | 20 | 306 | 12.9 | 22.5 | 0.00 | 0.00 | 0.00 | 30 | 1001.9 |
| 20260508223353 | 20 | 305 | 9.7 | 22.5 | 0.00 | 0.00 | 0.00 | 30 | 1001.9 |
| 20260508223208 | 20 | 9 | 9.7 | 22.5 | 0.00 | 0.00 | 0.00 | 32 | 1002.1 |
| 20260508223111 | 20 | 329 | 12.9 | 24.1 | 0.00 | 0.00 | 0.00 | 31 | 1002.0 |
| 20260508223016 | 21 | 341 | 16.1 | 24.1 | 0.00 | 0.00 | 0.00 | 30 | 1001.9 |
| 20260508222920 | 21 | 301 | 12.9 | 24.1 | 0.00 | 0.00 | 0.00 | 32 | 1002.0 |
| 20260508222823 | 21 | 276 | 11.3 | 24.1 | 0.00 | 0.00 | 0.00 | 31 | 1002.0 |
| 20260508222711 | 21 | 355 | 9.7 | 27.4 | 0.00 | 0.00 | 0.00 | 31 | 1002.0 |
| 20260508222615 | 21 | 345 | 8.0 | 27.4 | 0.00 | 0.00 | 0.00 | 32 | 1002.0 |
| 20260508222519 | 21 | 360 | 9.7 | 32.2 | 0.00 | 0.00 | 0.00 | 33 | 1002.1 |
| 20260508222423 | 21 | 12 | 14.5 | 35.4 | 0.00 | 0.00 | 0.00 | 30 | 1002.1 |
| 20260508222308 | 21 | 319 | 14.5 | 35.4 | 0.00 | 0.00 | 0.00 | 29 | 1002.1 |
| 20260508222231 | 21 | 360 | 12.9 | 35.4 | 0.00 | 0.00 | 0.00 | 30 | 1002.1 |
| 20260508222118 | 21 | 360 | 11.3 | 35.4 | 0.00 | 0.00 | 0.00 | 31 | 1002.1 |
| 20260508222023 | 20 | 314 | 12.9 | 35.4 | 0.00 | 0.00 | 0.00 | 32 | 1002.2 |
| 20260508221907 | 21 | 355 | 16.1 | 35.4 | 0.00 | 0.00 | 0.00 | 29 | 1002.1 |
| 20260508221831 | 21 | 313 | 19.3 | 35.4 | 0.00 | 0.00 | 0.00 | 31 | 1002.1 |
| 20260508221714 | 21 | 283 | 24.1 | 35.4 | 0.00 | 0.00 | 0.00 | 28 | 1002.0 |
| 20260508221617 | 21 | 300 | 24.1 | 35.4 | 0.00 | 0.00 | 0.00 | 29 | 1002.0 |
| 20260508221521 | 21 | 293 | 22.5 | 33.8 | 0.00 | 0.00 | 0.00 | 30 | 1002.2 |
| 20260508221409 | 21 | 300 | 16.1 | 32.2 | 0.00 | 0.00 | 0.00 | 33 | 1002.1 |
| 20260508221333 | 21 | 279 | 14.5 | 20.9 | 0.00 | 0.00 | 0.00 | 29 | 1002.1 |
| 20260508221217 | 21 | 360 | 12.9 | 25.7 | 0.00 | 0.00 | 0.00 | 30 | 1002.1 |
| 20260508221120 | 21 | 343 | 11.3 | 25.7 | 0.00 | 0.00 | 0.00 | 32 | 1002.2 |
| 20260508221023 | 20 | 295 | 9.7 | 30.6 | 0.00 | 0.00 | 0.00 | 33 | 1002.3 |
| 20260508220907 | 20 | 327 | 8.0 | 32.2 | 0.00 | 0.00 | 0.00 | 31 | 1002.2 |
| 20260508220816 | 20 | 345 | 11.3 | 32.2 | 0.00 | 0.00 | 0.00 | 32 | 1002.2 |
| 20260508220721 | 20 | 296 | 12.9 | 32.2 | 0.00 | 0.00 | 0.00 | 30 | 1002.2 |
| 20260508220646 | 20 | 304 | 14.5 | 32.2 | 0.00 | 0.00 | 0.00 | 30 | 1002.2 |
| 20260508220509 | 20 | 326 | 16.1 | 32.2 | 0.00 | 0.00 | 0.00 | 31 | 1002.3 |
| 20260508220434 | 20 | 313 | 17.7 | 32.2 | 0.00 | 0.00 | 0.00 | 31 | 1002.3 |
| 20260508220318 | 20 | 301 | 19.3 | 32.2 | 0.00 | 0.00 | 0.00 | 30 | 1002.3 |
| 20260508220209 | 21 | 306 | 22.5 | 32.2 | 0.00 | 0.00 | 0.00 | 29 | 1002.3 |
| 20260508220114 | 21 | 292 | 24.1 | 32.2 | 0.00 | 0.00 | 0.00 | 29 | 1002.3 |
| 20260508220019 | 21 | 311 | 22.5 | 32.2 | 0.00 | 0.00 | 0.00 | 30 | 1002.2 |
| 20260508215943 | 21 | 306 | 17.7 | 32.2 | 0.00 | 0.00 | 0.00 | 30 | 1002.4 |
| 20260508215808 | 21 | 360 | 16.1 | 32.2 | 0.00 | 0.00 | 0.00 | 29 | 1002.4 |
| 20260508215713 | 21 | 297 | 20.9 | 32.2 | 0.00 | 0.00 | 0.00 | 29 | 1002.3 |
| 20260508215618 | 21 | 327 | 20.9 | 32.2 | 0.00 | 0.00 | 0.00 | 28 | 1002.4 |
| 20260508215507 | 21 | 348 | 17.7 | 30.6 | 0.00 | 0.00 | 0.00 | 29 | 1002.3 |
| 20260508215412 | 21 | 341 | 20.9 | 30.6 | 0.00 | 0.00 | 0.00 | 31 | 1002.4 |
| 20260508215316 | 21 | 306 | 20.9 | 30.6 | 0.00 | 0.00 | 0.00 | 29 | 1002.2 |
| 20260508215221 | 22 | 305 | 16.1 | 27.4 | 0.00 | 0.00 | 0.00 | 30 | 1002.4 |
| 20260508215124 | 22 | 286 | 14.5 | 29.0 | 0.00 | 0.00 | 0.00 | 30 | 1002.4 |
| 20260508215012 | 22 | 348 | 17.7 | 29.0 | 0.00 | 0.00 | 0.00 | 30 | 1002.5 |
| 20260508214936 | 21 | 28 | 17.7 | 29.0 | 0.00 | 0.00 | 0.00 | 28 | 1002.4 |
| 20260508214818 | 21 | 355 | 16.1 | 29.0 | 0.00 | 0.00 | 0.00 | 30 | 1002.4 |
| 20260508214742 | 21 | 306 | 12.9 | 29.0 | 0.00 | 0.00 | 0.00 | 30 | 1002.4 |
| 20260508214625 | 21 | 323 | 12.9 | 29.0 | 0.00 | 0.00 | 0.00 | 32 | 1002.4 |
| 20260508214510 | 21 | 322 | 17.7 | 29.0 | 0.00 | 0.00 | 0.00 | 30 | 1002.5 |
| 20260508214414 | 21 | 318 | 19.3 | 29.0 | 0.00 | 0.00 | 0.00 | 29 | 1002.5 |
| 20260508214322 | 21 | 355 | 19.3 | 29.0 | 0.00 | 0.00 | 0.00 | 31 | 1002.6 |
| 20260508214206 | 21 | 315 | 16.1 | 27.4 | 0.00 | 0.00 | 0.00 | 31 | 1002.7 |
| 20260508214131 | 21 | 284 | 16.1 | 29.0 | 0.00 | 0.00 | 0.00 | 31 | 1002.6 |
| 20260508214007 | 21 | 313 | 17.7 | 29.0 | 0.00 | 0.00 | 0.00 | 30 | 1002.4 |
| 20260508213913 | 21 | 329 | 14.5 | 29.0 | 0.00 | 0.00 | 0.00 | 30 | 1002.5 |
| 20260508213837 | 21 | 314 | 12.9 | 29.0 | 0.00 | 0.00 | 0.00 | 34 | 1002.5 |
| 20260508213720 | 21 | 342 | 16.1 | 29.0 | 0.00 | 0.00 | 0.00 | 32 | 1002.5 |
| 20260508213608 | 21 | 339 | 17.7 | 29.0 | 0.00 | 0.00 | 0.00 | 32 | 1002.5 |
| 20260508213512 | 21 | 296 | 17.7 | 29.0 | 0.00 | 0.00 | 0.00 | 30 | 1002.5 |
| 20260508213435 | 21 | 315 | 17.7 | 29.0 | 0.00 | 0.00 | 0.00 | 29 | 1002.5 |
| 20260508213318 | 21 | 305 | 19.3 | 29.0 | 0.00 | 0.00 | 0.00 | 30 | 1002.7 |
| 20260508213222 | 21 | 342 | 17.7 | 29.0 | 0.00 | 0.00 | 0.00 | 29 | 1002.8 |
| 20260508213145 | 21 | 360 | 17.7 | 29.0 | 0.00 | 0.00 | 0.00 | 29 | 1002.8 |
| 20260508213048 | 20 | 329 | 17.7 | 29.0 | 0.00 | 0.00 | 0.00 | 30 | 1002.7 |
| 20260508212914 | 20 | 313 | 17.7 | 30.6 | 0.00 | 0.00 | 0.00 | 31 | 1002.7 |
| 20260508212819 | 20 | 310 | 16.1 | 30.6 | 0.00 | 0.00 | 0.00 | 32 | 1002.8 |
| 20260508212742 | 20 | 327 | 14.5 | 30.6 | 0.00 | 0.00 | 0.00 | 30 | 1002.7 |
| 20260508212625 | 20 | 305 | 19.3 | 32.2 | 0.00 | 0.00 | 0.00 | 32 | 1002.6 |
| 20260508212528 | 20 | 315 | 20.9 | 33.8 | 0.00 | 0.00 | 0.00 | 30 | 1002.6 |
| 20260508212411 | 20 | 300 | 19.3 | 33.8 | 0.00 | 0.00 | 0.00 | 29 | 1002.6 |
| 20260508212334 | 20 | 339 | 19.3 | 33.8 | 0.00 | 0.00 | 0.00 | 29 | 1002.7 |
| 20260508212217 | 20 | 332 | 19.3 | 33.8 | 0.00 | 0.00 | 0.00 | 29 | 1002.7 |
| 20260508212107 | 21 | 283 | 17.7 | 33.8 | 0.00 | 0.00 | 0.00 | 30 | 1002.8 |
| 20260508212010 | 21 | 338 | 20.9 | 33.8 | 0.00 | 0.00 | 0.00 | 28 | 1002.7 |
| 20260508211915 | 21 | 285 | 20.9 | 33.8 | 0.00 | 0.00 | 0.00 | 28 | 1002.6 |
| 20260508211820 | 21 | 347 | 20.9 | 33.8 | 0.00 | 0.00 | 0.00 | 28 | 1003.2 |
| 20260508211742 | 21 | 355 | 20.9 | 33.8 | 0.00 | 0.00 | 0.00 | 29 | 1002.7 |
| 20260508211625 | 21 | 303 | 22.5 | 32.2 | 0.00 | 0.00 | 0.00 | 28 | 1002.8 |
| 20260508211513 | 21 | 333 | 19.3 | 32.2 | 0.00 | 0.00 | 0.00 | 29 | 1002.7 |
| 20260508211416 | 21 | 325 | 19.3 | 32.2 | 0.00 | 0.00 | 0.00 | 31 | 1002.8 |
| 20260508211321 | 21 | 314 | 19.3 | 32.2 | 0.00 | 0.00 | 0.00 | 29 | 1002.8 |
| 20260508211207 | 21 | 360 | 17.7 | 32.2 | 0.00 | 0.00 | 0.00 | 29 | 1002.9 |
| 20260508211110 | 21 | 343 | 19.3 | 32.2 | 0.00 | 0.00 | 0.00 | 31 | 1002.8 |
| 20260508211015 | 21 | 341 | 20.9 | 32.2 | 0.00 | 0.00 | 0.00 | 29 | 1002.8 |
| 20260508210925 | 21 | 300 | 20.9 | 30.6 | 0.00 | 0.00 | 0.00 | 30 | 1002.8 |
| 20260508210809 | 21 | 290 | 19.3 | 30.6 | 0.00 | 0.00 | 0.00 | 30 | 1002.9 |
| 20260508210732 | 21 | 296 | 16.1 | 30.6 | 0.00 | 0.00 | 0.00 | 30 | 1002.6 |
| 20260508210609 | 21 | 314 | 19.3 | 30.6 | 0.00 | 0.00 | 0.00 | 31 | 1002.8 |
| 20260508210514 | 21 | 318 | 20.9 | 30.6 | 0.00 | 0.00 | 0.00 | 29 | 1003.0 |
| 20260508210417 | 21 | 315 | 17.7 | 30.6 | 0.00 | 0.00 | 0.00 | 29 | 1003.0 |
| 20260508210343 | 21 | 342 | 14.5 | 29.0 | 0.00 | 0.00 | 0.00 | 31 | 1003.0 |
| 20260508210226 | 21 | 326 | 11.3 | 29.0 | 0.00 | 0.00 | 0.00 | 33 | 1003.0 |
| 20260508210109 | 21 | 311 | 14.5 | 32.2 | 0.00 | 0.00 | 0.00 | 32 | 1003.0 |
| 20260508210012 | 21 | 300 | 16.1 | 32.2 | 0.00 | 0.00 | 0.00 | 31 | 1003.0 |
| 20260508205915 | 21 | 285 | 16.1 | 35.4 | 0.00 | 0.00 | 0.00 | 30 | 1003.0 |
| 20260508205839 | 21 | 275 | 17.7 | 35.4 | 0.00 | 0.00 | 0.00 | 30 | 1003.1 |
| 20260508205720 | 21 | 298 | 16.1 | 35.4 | 0.00 | 0.00 | 0.00 | 31 | 1003.1 |
| 20260508205626 | 21 | 285 | 19.3 | 35.4 | 0.00 | 0.00 | 0.00 | 30 | 1003.2 |
| 20260508205510 | 21 | 306 | 22.5 | 35.4 | 0.00 | 0.00 | 0.00 | 30 | 1003.2 |
| 20260508205412 | 21 | 311 | 20.9 | 35.4 | 0.00 | 0.00 | 0.00 | 29 | 1003.1 |
| 20260508205315 | 21 | 5 | 20.9 | 35.4 | 0.00 | 0.00 | 0.00 | 30 | 1003.3 |
| 20260508205218 | 21 | 11 | 20.9 | 35.4 | 0.00 | 0.00 | 0.00 | 31 | 1003.3 |
| 20260508205141 | 20 | 300 | 20.9 | 35.4 | 0.00 | 0.00 | 0.00 | 33 | 1003.2 |
| 20260508205006 | 20 | 298 | 11.3 | 24.1 | 0.00 | 0.00 | 0.00 | 33 | 1003.2 |
| 20260508204911 | 20 | 304 | 11.3 | 24.1 | 0.00 | 0.00 | 0.00 | 29 | 1003.3 |
| 20260508204813 | 20 | 15 | 16.1 | 24.1 | 0.00 | 0.00 | 0.00 | 30 | 1003.3 |
| 20260508204716 | 20 | 345 | 17.7 | 25.7 | 0.00 | 0.00 | 0.00 | 31 | 1003.2 |
| 20260508204619 | 20 | 294 | 17.7 | 25.7 | 0.00 | 0.00 | 0.00 | 31 | 1003.2 |
| 20260508204522 | 20 | 340 | 12.9 | 25.7 | 0.00 | 0.00 | 0.00 | 32 | 1003.3 |
| 20260508204444 | 20 | 11 | 11.3 | 25.7 | 0.00 | 0.00 | 0.00 | 31 | 1003.3 |
| 20260508204331 | 20 | 13 | 9.7 | 25.7 | 0.00 | 0.00 | 0.00 | 30 | 1003.4 |
| 20260508204206 | 20 | 335 | 14.5 | 25.7 | 0.00 | 0.00 | 0.00 | 31 | 1003.4 |
| 20260508204130 | 20 | 343 | 19.3 | 25.7 | 0.00 | 0.00 | 0.00 | 29 | 1003.4 |
| 20260508204011 | 20 | 338 | 19.3 | 25.7 | 0.00 | 0.00 | 0.00 | 30 | 1003.5 |
| 20260508203915 | 20 | 344 | 16.1 | 24.1 | 0.00 | 0.00 | 0.00 | 29 | 1003.5 |
| 20260508203818 | 20 | 5 | 14.5 | 24.1 | 0.00 | 0.00 | 0.00 | 30 | 1003.5 |
| 20260508203720 | 20 | 323 | 17.7 | 24.1 | 0.00 | 0.00 | 0.00 | 32 | 1003.5 |
| 20260508203606 | 20 | 320 | 20.9 | 24.1 | 0.00 | 0.00 | 0.00 | 30 | 1003.5 |
| 20260508203510 | 20 | 301 | 17.7 | 29.0 | 0.00 | 0.00 | 0.00 | 32 | 1003.5 |
| 20260508203413 | 20 | 298 | 14.5 | 32.2 | 0.00 | 0.00 | 0.00 | 30 | 1003.5 |
| 20260508203336 | 20 | 309 | 14.5 | 32.2 | 0.00 | 0.00 | 0.00 | 31 | 1003.6 |
| 20260508203219 | 20 | 336 | 12.9 | 32.2 | 0.00 | 0.00 | 0.00 | 30 | 1003.6 |
| 20260508203122 | 20 | 344 | 14.5 | 32.2 | 0.00 | 0.00 | 0.00 | 31 | 1003.6 |
| 20260508203010 | 20 | 338 | 14.5 | 32.2 | 0.00 | 0.00 | 0.00 | 31 | 1003.6 |
| 20260508202932 | 20 | 335 | 12.9 | 32.2 | 0.00 | 0.00 | 0.00 | 31 | 1003.5 |
| 20260508202808 | 20 | 296 | 17.7 | 32.2 | 0.00 | 0.00 | 0.00 | 29 | 1003.4 |
| 20260508202731 | 20 | 290 | 22.5 | 32.2 | 0.00 | 0.00 | 0.00 | 29 | 1003.6 |
| 20260508202613 | 20 | 278 | 20.9 | 32.2 | 0.00 | 0.00 | 0.00 | 30 | 1003.6 |
| 20260508202515 | 20 | 293 | 16.1 | 27.4 | 0.00 | 0.00 | 0.00 | 33 | 1003.6 |
| 20260508202418 | 20 | 341 | 16.1 | 24.1 | 0.00 | 0.00 | 0.00 | 29 | 1003.7 |
| 20260508202326 | 20 | 324 | 12.9 | 24.1 | 0.00 | 0.00 | 0.00 | 30 | 1003.7 |
| 20260508202228 | 20 | 9 | 16.1 | 27.4 | 0.00 | 0.00 | 0.00 | 31 | 1003.6 |
| 20260508202111 | 20 | 299 | 19.3 | 27.4 | 0.00 | 0.00 | 0.00 | 29 | 1003.6 |
| 20260508202014 | 21 | 284 | 19.3 | 27.4 | 0.00 | 0.00 | 0.00 | 30 | 1003.6 |
| 20260508201938 | 21 | 282 | 16.1 | 27.4 | 0.00 | 0.00 | 0.00 | 29 | 1003.7 |
| 20260508201819 | 21 | 355 | 11.3 | 27.4 | 0.00 | 0.00 | 0.00 | 30 | 1003.8 |
| 20260508201744 | 21 | 298 | 12.9 | 27.4 | 0.00 | 0.00 | 0.00 | 32 | 1003.8 |
| 20260508201630 | 21 | 328 | 17.7 | 30.6 | 0.00 | 0.00 | 0.00 | 28 | 1003.8 |
| 20260508201506 | 21 | 342 | 20.9 | 30.6 | 0.00 | 0.00 | 0.00 | 30 | 1003.9 |
| 20260508201409 | 21 | 329 | 16.1 | 30.6 | 0.00 | 0.00 | 0.00 | 29 | 1003.8 |
| 20260508201311 | 21 | 321 | 17.7 | 30.6 | 0.00 | 0.00 | 0.00 | 34 | 1003.9 |
| 20260508201215 | 20 | 360 | 17.7 | 38.6 | 0.00 | 0.00 | 0.00 | 30 | 1003.8 |
| 20260508201117 | 20 | 280 | 12.9 | 38.6 | 0.00 | 0.00 | 0.00 | 32 | 1003.8 |
| 20260508201024 | 20 | 360 | 16.1 | 38.6 | 0.00 | 0.00 | 0.00 | 32 | 1003.9 |
| 20260508200930 | 20 | 344 | 17.7 | 38.6 | 0.00 | 0.00 | 0.00 | 30 | 1003.9 |
| 20260508200805 | 20 | 303 | 16.1 | 38.6 | 0.00 | 0.00 | 0.00 | 29 | 1003.8 |
| 20260508200729 | 20 | 355 | 19.3 | 38.6 | 0.00 | 0.00 | 0.00 | 33 | 1003.8 |
| 20260508200612 | 20 | 360 | 24.1 | 38.6 | 0.00 | 0.00 | 0.00 | 30 | 1004.0 |
| 20260508200534 | 20 | 306 | 27.4 | 38.6 | 0.00 | 0.00 | 0.00 | 33 | 1003.8 |
| 20260508200418 | 20 | 290 | 22.5 | 38.6 | 0.00 | 0.00 | 0.00 | 33 | 1003.9 |
| 20260508200325 | 20 | 277 | 17.7 | 30.6 | 0.00 | 0.00 | 0.00 | 34 | 1003.8 |
| 20260508200227 | 20 | 300 | 17.7 | 32.2 | 0.00 | 0.00 | 0.00 | 32 | 1003.8 |
| 20260508200108 | 20 | 294 | 17.7 | 32.2 | 0.00 | 0.00 | 0.00 | 31 | 1003.9 |
| 20260508200013 | 20 | 290 | 20.9 | 32.2 | 0.00 | 0.00 | 0.00 | 29 | 1003.9 |
| 20260508195936 | 20 | 262 | 22.5 | 32.2 | 0.00 | 0.00 | 0.00 | 31 | 1004.0 |
| 20260508195839 | 20 | 289 | 17.7 | 32.2 | 0.00 | 0.00 | 0.00 | 32 | 1004.0 |
| 20260508195740 | 20 | 300 | 17.7 | 32.2 | 0.00 | 0.00 | 0.00 | 32 | 1004.0 |
| 20260508195624 | 20 | 290 | 19.3 | 32.2 | 0.00 | 0.00 | 0.00 | 32 | 1004.0 |
| 20260508195530 | 20 | 290 | 19.3 | 32.2 | 0.00 | 0.00 | 0.00 | 29 | 1004.1 |
| 20260508195406 | 20 | 331 | 14.5 | 27.4 | 0.00 | 0.00 | 0.00 | 33 | 1004.0 |
| 20260508195310 | 20 | 330 | 12.9 | 27.4 | 0.00 | 0.00 | 0.00 | 32 | 1004.1 |
| 20260508195211 | 20 | 293 | 16.1 | 27.4 | 0.00 | 0.00 | 0.00 | 33 | 1004.0 |
| 20260508195115 | 20 | 338 | 17.7 | 27.4 | 0.00 | 0.00 | 0.00 | 30 | 1004.0 |
| 20260508195017 | 20 | 360 | 12.9 | 29.0 | 0.00 | 0.00 | 0.00 | 31 | 1004.1 |
| 20260508194925 | 20 | 321 | 11.3 | 29.0 | 0.00 | 0.00 | 0.00 | 31 | 1004.2 |
| 20260508194809 | 20 | 281 | 11.3 | 29.0 | 0.00 | 0.00 | 0.00 | 30 | 1004.2 |
| 20260508194732 | 20 | 293 | 11.3 | 29.0 | 0.00 | 0.00 | 0.00 | 32 | 1004.2 |
| 20260508194608 | 20 | 315 | 9.7 | 29.0 | 0.00 | 0.00 | 0.00 | 31 | 1004.2 |
| 20260508194511 | 20 | 35 | 12.9 | 29.0 | 0.00 | 0.00 | 0.00 | 31 | 1004.2 |
| 20260508194415 | 20 | 29 | 17.7 | 29.0 | 0.00 | 0.00 | 0.00 | 30 | 1004.2 |
| 20260508194338 | 20 | 323 | 17.7 | 29.0 | 0.00 | 0.00 | 0.00 | 29 | 1004.3 |
| 20260508194243 | 20 | 342 | 17.7 | 29.0 | 0.00 | 0.00 | 0.00 | 31 | 1004.4 |
| 20260508194109 | 20 | 324 | 16.1 | 27.4 | 0.00 | 0.00 | 0.00 | 32 | 1004.3 |
| 20260508194032 | 20 | 307 | 16.1 | 27.4 | 0.00 | 0.00 | 0.00 | 32 | 1004.3 |
| 20260508193910 | 20 | 275 | 16.1 | 27.4 | 0.00 | 0.00 | 0.00 | 33 | 1004.3 |
| 20260508193813 | 20 | 300 | 14.5 | 27.4 | 0.00 | 0.00 | 0.00 | 34 | 1004.3 |
| 20260508193738 | 20 | 300 | 16.1 | 27.4 | 0.00 | 0.00 | 0.00 | 31 | 1004.3 |
| 20260508193619 | 20 | 302 | 14.5 | 33.8 | 0.00 | 0.00 | 0.00 | 30 | 1004.3 |
| 20260508193506 | 20 | 340 | 12.9 | 33.8 | 0.00 | 0.00 | 0.00 | 32 | 1004.3 |
| 20260508193432 | 20 | 301 | 12.9 | 33.8 | 0.00 | 0.00 | 0.00 | 35 | 1004.4 |
| 20260508193308 | 20 | 271 | 16.1 | 33.8 | 0.00 | 0.00 | 0.00 | 33 | 1004.4 |
| 20260508193233 | 20 | 265 | 16.1 | 33.8 | 0.00 | 0.00 | 0.00 | 31 | 1004.5 |
| 20260508193109 | 20 | 304 | 11.3 | 33.8 | 0.00 | 0.00 | 0.00 | 33 | 1004.4 |
| 20260508193013 | 20 | 306 | 14.5 | 33.8 | 0.00 | 0.00 | 0.00 | 33 | 1004.5 |
| 20260508192917 | 20 | 310 | 22.5 | 33.8 | 0.00 | 0.00 | 0.00 | 32 | 1004.5 |
| 20260508192806 | 20 | 291 | 24.1 | 33.8 | 0.00 | 0.00 | 0.00 | 30 | 1004.5 |
| 20260508192730 | 20 | 278 | 22.5 | 30.6 | 0.00 | 0.00 | 0.00 | 30 | 1004.4 |
| 20260508192607 | 20 | 287 | 19.3 | 29.0 | 0.00 | 0.00 | 0.00 | 33 | 1004.5 |
| 20260508192510 | 20 | 297 | 17.7 | 25.7 | 0.00 | 0.00 | 0.00 | 33 | 1004.4 |
| 20260508192435 | 19 | 264 | 12.9 | 24.1 | 0.00 | 0.00 | 0.00 | 32 | 1004.4 |
| 20260508192339 | 19 | 343 | 11.3 | 24.1 | 0.00 | 0.00 | 0.00 | 33 | 1004.5 |
| 20260508192206 | 19 | 290 | 9.7 | 24.1 | 0.00 | 0.00 | 0.00 | 31 | 1004.6 |
| 20260508192131 | 19 | 302 | 9.7 | 24.1 | 0.00 | 0.00 | 0.00 | 31 | 1004.6 |
| 20260508192009 | 19 | 302 | 12.9 | 25.7 | 0.00 | 0.00 | 0.00 | 32 | 1004.6 |
| 20260508191933 | 19 | 303 | 14.5 | 25.7 | 0.00 | 0.00 | 0.00 | 32 | 1004.6 |
| 20260508191809 | 19 | 308 | 14.5 | 25.7 | 0.00 | 0.00 | 0.00 | 35 | 1004.6 |
| 20260508191713 | 19 | 303 | 14.5 | 25.7 | 0.00 | 0.00 | 0.00 | 34 | 1004.6 |
| 20260508191618 | 19 | 300 | 14.5 | 25.7 | 0.00 | 0.00 | 0.00 | 35 | 1004.5 |
| 20260508191525 | 19 | 315 | 14.5 | 25.7 | 0.00 | 0.00 | 0.00 | 32 | 1004.6 |
| 20260508191410 | 19 | 293 | 16.1 | 25.7 | 0.00 | 0.00 | 0.00 | 31 | 1004.6 |
| 20260508191314 | 19 | 321 | 19.3 | 25.7 | 0.00 | 0.00 | 0.00 | 33 | 1004.6 |
| 20260508191218 | 19 | 296 | 17.7 | 25.7 | 0.00 | 0.00 | 0.00 | 34 | 1004.6 |
| 20260508191143 | 19 | 298 | 17.7 | 25.7 | 0.00 | 0.00 | 0.00 | 31 | 1004.7 |
| 20260508191027 | 19 | 300 | 19.3 | 25.7 | 0.00 | 0.00 | 0.00 | 33 | 1004.7 |
| 20260508190913 | 19 | 294 | 17.7 | 25.7 | 0.00 | 0.00 | 0.00 | 31 | 1004.7 |
| 20260508190817 | 19 | 297 | 14.5 | 24.1 | 0.00 | 0.00 | 0.00 | 33 | 1004.7 |
| 20260508190740 | 19 | 315 | 12.9 | 24.1 | 0.00 | 0.00 | 0.00 | 32 | 1004.8 |
| 20260508190624 | 19 | 304 | 11.3 | 25.7 | 0.00 | 0.00 | 0.00 | 33 | 1004.8 |
| 20260508190546 | 19 | 348 | 12.9 | 25.7 | 0.00 | 0.00 | 0.00 | 31 | 1004.8 |
| 20260508190431 | 19 | 318 | 12.9 | 25.7 | 0.00 | 0.00 | 0.00 | 32 | 1004.8 |
| 20260508190313 | 19 | 310 | 9.7 | 25.7 | 0.00 | 0.00 | 0.00 | 32 | 1004.8 |
| 20260508190238 | 19 | 298 | 8.0 | 25.7 | 0.00 | 0.00 | 0.00 | 33 | 1004.7 |
| 20260508190125 | 19 | 17 | 8.0 | 25.7 | 0.00 | 0.00 | 0.00 | 31 | 1004.8 |
| 20260508190010 | 20 | 313 | 11.3 | 25.7 | 0.00 | 0.00 | 0.00 | 35 | 1004.7 |
| 20260508185914 | 19 | 296 | 11.3 | 25.7 | 0.00 | 0.00 | 0.00 | 31 | 1004.9 |
| 20260508185818 | 19 | 339 | 8.0 | 22.5 | 0.00 | 0.00 | 0.00 | 31 | 1004.9 |
| 20260508185723 | 19 | 355 | 9.7 | 22.5 | 0.00 | 0.00 | 0.00 | 32 | 1004.8 |
| 20260508185610 | 19 | 344 | 11.3 | 29.0 | 0.00 | 0.00 | 0.00 | 32 | 1004.8 |
| 20260508185536 | 19 | 355 | 8.0 | 29.0 | 0.00 | 0.00 | 0.00 | 33 | 1004.9 |
| 20260508185419 | 19 | 337 | 9.7 | 29.0 | 0.00 | 0.00 | 0.00 | 35 | 1004.9 |
| 20260508185322 | 19 | 36 | 11.3 | 29.0 | 0.00 | 0.00 | 0.00 | 32 | 1004.9 |
| 20260508185247 | 19 | 16 | 12.9 | 29.0 | 0.00 | 0.00 | 0.00 | 31 | 1004.9 |
| 20260508185110 | 19 | 33 | 12.9 | 29.0 | 0.00 | 0.00 | 0.00 | 35 | 1005.0 |
| 20260508185013 | 19 | 53 | 14.5 | 30.6 | 0.00 | 0.00 | 0.00 | 32 | 1004.9 |
| 20260508184921 | 19 | 360 | 17.7 | 30.6 | 0.00 | 0.00 | 0.00 | 34 | 1004.9 |
| 20260508184845 | 19 | 312 | 20.9 | 30.6 | 0.00 | 0.00 | 0.00 | 33 | 1004.9 |
| 20260508184708 | 19 | 300 | 14.5 | 30.6 | 0.00 | 0.00 | 0.00 | 32 | 1004.9 |
| 20260508184632 | 19 | 320 | 14.5 | 30.6 | 0.00 | 0.00 | 0.00 | 34 | 1004.9 |
| 20260508184509 | 19 | 279 | 17.7 | 30.6 | 0.00 | 0.00 | 0.00 | 35 | 1004.9 |
| 20260508184431 | 19 | 295 | 17.7 | 30.6 | 0.00 | 0.00 | 0.00 | 33 | 1004.9 |
| 20260508184333 | 19 | 298 | 19.3 | 30.6 | 0.00 | 0.00 | 0.00 | 32 | 1004.9 |
| 20260508184236 | 19 | 293 | 19.3 | 30.6 | 0.00 | 0.00 | 0.00 | 33 | 1004.9 |
| 20260508184123 | 19 | 306 | 17.7 | 30.6 | 0.00 | 0.00 | 0.00 | 32 | 1004.9 |
| 20260508184008 | 19 | 315 | 11.3 | 27.4 | 0.00 | 0.00 | 0.00 | 32 | 1004.9 |
| 20260508183911 | 19 | 333 | 12.9 | 27.4 | 0.00 | 0.00 | 0.00 | 30 | 1005.0 |
| 20260508183815 | 19 | 5 | 16.1 | 29.0 | 0.00 | 0.00 | 0.00 | 31 | 1005.0 |
| 20260508183718 | 19 | 323 | 12.9 | 29.0 | 0.00 | 0.00 | 0.00 | 31 | 1005.1 |
| 20260508183623 | 18 | 337 | 14.5 | 30.6 | 0.00 | 0.00 | 0.00 | 35 | 1005.0 |
| 20260508183530 | 18 | 360 | 14.5 | 30.6 | 0.00 | 0.00 | 0.00 | 32 | 1005.1 |
| 20260508183407 | 18 | 360 | 16.1 | 30.6 | 0.00 | 0.00 | 0.00 | 33 | 1005.2 |
| 20260508183330 | 18 | 344 | 16.1 | 30.6 | 0.00 | 0.00 | 0.00 | 36 | 1005.2 |
| 20260508183232 | 18 | 297 | 17.7 | 30.6 | 0.00 | 0.00 | 0.00 | 35 | 1005.0 |
| 20260508183115 | 18 | 278 | 20.9 | 30.6 | 0.00 | 0.00 | 0.00 | 31 | 1005.0 |
| 20260508183019 | 18 | 299 | 22.5 | 30.6 | 0.00 | 0.00 | 0.00 | 32 | 1005.0 |
| 20260508182920 | 18 | 293 | 24.1 | 30.6 | 0.00 | 0.00 | 0.00 | 33 | 1005.0 |
| 20260508182843 | 19 | 285 | 24.1 | 30.6 | 0.00 | 0.00 | 0.00 | 32 | 1005.1 |
| 20260508182730 | 19 | 306 | 24.1 | 29.0 | 0.00 | 0.00 | 0.00 | 32 | 1005.1 |
| 20260508182614 | 19 | 288 | 22.5 | 27.4 | 0.00 | 0.00 | 0.00 | 33 | 1005.1 |
| 20260508182517 | 19 | 295 | 20.9 | 27.4 | 0.00 | 0.00 | 0.00 | 33 | 1005.2 |
| 20260508182421 | 19 | 282 | 16.1 | 27.4 | 0.00 | 0.00 | 0.00 | 34 | 1005.2 |
| 20260508182324 | 19 | 270 | 14.5 | 24.1 | 0.00 | 0.00 | 0.00 | 33 | 1005.2 |
| 20260508182227 | 19 | 313 | 12.9 | 25.7 | 0.00 | 0.00 | 0.00 | 32 | 1005.4 |
| 20260508182110 | 19 | 5 | 11.3 | 30.6 | 0.00 | 0.00 | 0.00 | 34 | 1005.2 |
| 20260508182038 | 18 | 351 | 9.7 | 30.6 | 0.00 | 0.00 | 0.00 | 36 | 1005.3 |
| 20260508181921 | 18 | 355 | 11.3 | 32.2 | 0.00 | 0.00 | 0.00 | 33 | 1005.3 |
| 20260508181823 | 18 | 319 | 12.9 | 32.2 | 0.00 | 0.00 | 0.00 | 33 | 1005.3 |
| 20260508181706 | 18 | 262 | 16.1 | 35.4 | 0.00 | 0.00 | 0.00 | 31 | 1005.4 |
| 20260508181610 | 18 | 297 | 20.9 | 35.4 | 0.00 | 0.00 | 0.00 | 34 | 1005.3 |
| 20260508181513 | 18 | 323 | 22.5 | 35.4 | 0.00 | 0.00 | 0.00 | 34 | 1005.4 |
| 20260508181418 | 18 | 303 | 24.1 | 35.4 | 0.00 | 0.00 | 0.00 | 33 | 1005.4 |
| 20260508181306 | 18 | 302 | 22.5 | 35.4 | 0.00 | 0.00 | 0.00 | 30 | 1005.4 |
| 20260508181209 | 18 | 314 | 24.1 | 35.4 | 0.00 | 0.00 | 0.00 | 31 | 1005.3 |
| 20260508181133 | 18 | 304 | 25.7 | 35.4 | 0.00 | 0.00 | 0.00 | 34 | 1005.5 |
| 20260508181015 | 18 | 302 | 25.7 | 35.4 | 0.00 | 0.00 | 0.00 | 34 | 1005.4 |
| 20260508180918 | 18 | 306 | 27.4 | 35.4 | 0.00 | 0.00 | 0.00 | 32 | 1005.5 |
| 20260508180821 | 18 | 296 | 24.1 | 35.4 | 0.00 | 0.00 | 0.00 | 31 | 1005.5 |
| 20260508180708 | 18 | 290 | 19.3 | 33.8 | 0.00 | 0.00 | 0.00 | 32 | 1005.5 |
| 20260508180632 | 18 | 351 | 17.7 | 29.0 | 0.00 | 0.00 | 0.00 | 34 | 1005.5 |
| 20260508180513 | 18 | 323 | 19.3 | 29.0 | 0.00 | 0.00 | 0.00 | 34 | 1005.5 |
| 20260508180417 | 18 | 293 | 20.9 | 29.0 | 0.00 | 0.00 | 0.00 | 34 | 1005.6 |
| 20260508180341 | 18 | 302 | 19.3 | 29.0 | 0.00 | 0.00 | 0.00 | 34 | 1005.5 |
| 20260508180222 | 18 | 355 | 19.3 | 27.4 | 0.00 | 0.00 | 0.00 | 33 | 1005.6 |
| 20260508180123 | 19 | 292 | 17.7 | 27.4 | 0.00 | 0.00 | 0.00 | 33 | 1005.6 |
| 20260508180030 | 19 | 334 | 17.7 | 27.4 | 0.00 | 0.00 | 0.00 | 35 | 1005.5 |
| 20260508175907 | 19 | 334 | 17.7 | 27.4 | 0.00 | 0.00 | 0.00 | 34 | 1005.6 |
| 20260508175830 | 19 | 296 | 17.7 | 24.1 | 0.00 | 0.00 | 0.00 | 34 | 1005.6 |
| 20260508175706 | 19 | 289 | 12.9 | 24.1 | 0.00 | 0.00 | 0.00 | 34 | 1005.6 |
| 20260508175610 | 18 | 325 | 9.7 | 24.1 | 0.00 | 0.00 | 0.00 | 35 | 1005.7 |
| 20260508175512 | 18 | 309 | 12.9 | 24.1 | 0.00 | 0.00 | 0.00 | 32 | 1005.6 |
| 20260508175436 | 18 | 360 | 14.5 | 24.1 | 0.00 | 0.00 | 0.00 | 30 | 1005.8 |
| 20260508175322 | 18 | 344 | 14.5 | 24.1 | 0.00 | 0.00 | 0.00 | 32 | 1005.8 |
| 20260508175226 | 18 | 360 | 12.9 | 22.5 | 0.00 | 0.00 | 0.00 | 31 | 1005.7 |
| 20260508175128 | 18 | 332 | 11.3 | 24.1 | 0.00 | 0.00 | 0.00 | 35 | 1005.7 |
| 20260508175011 | 18 | 301 | 11.3 | 30.6 | 0.00 | 0.00 | 0.00 | 34 | 1005.8 |
| 20260508174935 | 18 | 322 | 9.7 | 30.6 | 0.00 | 0.00 | 0.00 | 38 | 1005.7 |
| 20260508174816 | 18 | 313 | 12.9 | 30.6 | 0.00 | 0.00 | 0.00 | 36 | 1005.7 |
| 20260508174718 | 18 | 288 | 14.5 | 30.6 | 0.00 | 0.00 | 0.00 | 32 | 1005.8 |
| 20260508174607 | 18 | 305 | 14.5 | 30.6 | 0.00 | 0.00 | 0.00 | 34 | 1005.9 |
| 20260508174529 | 18 | 313 | 12.9 | 30.6 | 0.00 | 0.00 | 0.00 | 34 | 1005.9 |
| 20260508174453 | 18 | 296 | 12.9 | 30.6 | 0.00 | 0.00 | 0.00 | 34 | 1005.8 |
| 20260508174308 | 18 | 296 | 16.1 | 30.6 | 0.00 | 0.00 | 0.00 | 33 | 1005.8 |
| 20260508174231 | 18 | 300 | 16.1 | 30.6 | 0.00 | 0.00 | 0.00 | 34 | 1005.9 |
| 20260508174115 | 18 | 311 | 17.7 | 30.6 | 0.00 | 0.00 | 0.00 | 33 | 1005.8 |
| 20260508174017 | 18 | 305 | 17.7 | 30.6 | 0.00 | 0.00 | 0.00 | 33 | 1005.8 |
| 20260508173925 | 18 | 317 | 16.1 | 29.0 | 0.00 | 0.00 | 0.00 | 33 | 1005.9 |
| 20260508173848 | 18 | 323 | 19.3 | 29.0 | 0.00 | 0.00 | 0.00 | 32 | 1005.9 |
| 20260508173728 | 18 | 300 | 22.5 | 29.0 | 0.00 | 0.00 | 0.00 | 33 | 1005.9 |
| 20260508173652 | 18 | 273 | 19.3 | 27.4 | 0.00 | 0.00 | 0.00 | 35 | 1006.0 |
| 20260508173507 | 18 | 290 | 14.5 | 22.5 | 0.00 | 0.00 | 0.00 | 35 | 1006.0 |
| 20260508173431 | 18 | 335 | 11.3 | 24.1 | 0.00 | 0.00 | 0.00 | 35 | 1006.0 |
| 20260508173333 | 18 | 343 | 8.0 | 24.1 | 0.00 | 0.00 | 0.00 | 33 | 1006.1 |
| 20260508173214 | 18 | 307 | 8.0 | 24.1 | 0.00 | 0.00 | 0.00 | 37 | 1005.9 |
| 20260508173121 | 18 | 5 | 8.0 | 24.1 | 0.00 | 0.00 | 0.00 | 34 | 1006.0 |
| 20260508173026 | 18 | 355 | 8.0 | 24.1 | 0.00 | 0.00 | 0.00 | 36 | 1006.1 |
| 20260508172910 | 18 | 317 | 8.0 | 24.1 | 0.00 | 0.00 | 0.00 | 34 | 1006.1 |
| 20260508172812 | 18 | 326 | 12.9 | 24.1 | 0.00 | 0.00 | 0.00 | 33 | 1006.1 |
| 20260508172716 | 18 | 333 | 12.9 | 24.1 | 0.00 | 0.00 | 0.00 | 32 | 1006.2 |
| 20260508172620 | 18 | 343 | 8.0 | 24.1 | 0.00 | 0.00 | 0.00 | 34 | 1006.2 |
| 20260508172547 | 18 | 9 | 8.0 | 24.1 | 0.00 | 0.00 | 0.00 | 32 | 1006.2 |
| 20260508172428 | 17 | 265 | 12.9 | 24.1 | 0.00 | 0.00 | 0.00 | 32 | 1006.1 |
| 20260508172310 | 17 | 290 | 11.3 | 24.1 | 0.00 | 0.00 | 0.00 | 35 | 1006.2 |
| 20260508172234 | 17 | 334 | 14.5 | 24.1 | 0.00 | 0.00 | 0.00 | 34 | 1006.2 |
| 20260508172116 | 17 | 340 | 12.9 | 24.1 | 0.00 | 0.00 | 0.00 | 33 | 1006.2 |
| 20260508172020 | 17 | 346 | 11.3 | 25.7 | 0.00 | 0.00 | 0.00 | 34 | 1006.3 |
| 20260508171922 | 17 | 21 | 12.9 | 25.7 | 0.00 | 0.00 | 0.00 | 35 | 1006.3 |
| 20260508171810 | 17 | 319 | 11.3 | 25.7 | 0.00 | 0.00 | 0.00 | 35 | 1006.3 |
| 20260508171734 | 17 | 294 | 9.7 | 25.7 | 0.00 | 0.00 | 0.00 | 36 | 1006.2 |
| 20260508171608 | 17 | 296 | 14.5 | 25.7 | 0.00 | 0.00 | 0.00 | 35 | 1006.2 |
| 20260508171511 | 17 | 297 | 14.5 | 25.7 | 0.00 | 0.00 | 0.00 | 36 | 1006.2 |
| 20260508171413 | 17 | 279 | 14.5 | 25.7 | 0.00 | 0.00 | 0.00 | 36 | 1006.4 |
| 20260508171318 | 17 | 284 | 16.1 | 25.7 | 0.00 | 0.00 | 0.00 | 36 | 1006.4 |
| 20260508171240 | 17 | 273 | 14.5 | 25.7 | 0.00 | 0.00 | 0.00 | 36 | 1006.4 |
| 20260508171106 | 17 | 297 | 9.7 | 25.7 | 0.00 | 0.00 | 0.00 | 37 | 1006.4 |
| 20260508171030 | 17 | 294 | 9.7 | 25.7 | 0.00 | 0.00 | 0.00 | 36 | 1006.4 |
| 20260508170912 | 17 | 355 | 14.5 | 25.7 | 0.00 | 0.00 | 0.00 | 39 | 1006.4 |
| 20260508170815 | 17 | 294 | 16.1 | 25.7 | 0.00 | 0.00 | 0.00 | 39 | 1006.4 |
| 20260508170718 | 17 | 290 | 17.7 | 25.7 | 0.00 | 0.00 | 0.00 | 36 | 1006.4 |
| 20260508170621 | 17 | 309 | 17.7 | 25.7 | 0.00 | 0.00 | 0.00 | 36 | 1006.4 |
| 20260508170507 | 17 | 269 | 16.1 | 25.7 | 0.00 | 0.00 | 0.00 | 33 | 1006.4 |
| 20260508170432 | 17 | 290 | 16.1 | 25.7 | 0.00 | 0.00 | 0.00 | 33 | 1006.5 |
| 20260508170307 | 17 | 239 | 19.3 | 24.1 | 0.00 | 0.00 | 0.00 | 34 | 1006.6 |
| 20260508170211 | 17 | 298 | 16.1 | 24.1 | 0.00 | 0.00 | 0.00 | 36 | 1006.6 |
| 20260508170113 | 17 | 295 | 12.9 | 24.1 | 0.00 | 0.00 | 0.00 | 36 | 1006.6 |
| 20260508170037 | 17 | 300 | 11.3 | 24.1 | 0.00 | 0.00 | 0.00 | 34 | 1006.6 |
| 20260508165939 | 17 | 292 | 9.7 | 24.1 | 0.00 | 0.00 | 0.00 | 35 | 1006.6 |
| 20260508165842 | 17 | 299 | 12.9 | 24.1 | 0.00 | 0.00 | 0.00 | 34 | 1006.6 |
| 20260508165708 | 17 | 287 | 14.5 | 24.1 | 0.00 | 0.00 | 0.00 | 37 | 1006.7 |
| 20260508165632 | 17 | 289 | 11.3 | 24.1 | 0.00 | 0.00 | 0.00 | 37 | 1006.7 |
| 20260508165509 | 17 | 360 | 11.3 | 20.9 | 0.00 | 0.00 | 0.00 | 36 | 1006.7 |
| 20260508165432 | 17 | 288 | 12.9 | 20.9 | 0.00 | 0.00 | 0.00 | 37 | 1006.8 |
| 20260508165315 | 17 | 288 | 12.9 | 20.9 | 0.00 | 0.00 | 0.00 | 36 | 1006.8 |
| 20260508165240 | 16 | 302 | 12.9 | 20.9 | 0.00 | 0.00 | 0.00 | 37 | 1006.7 |
| 20260508165142 | 16 | 348 | 11.3 | 25.7 | 0.00 | 0.00 | 0.00 | 36 | 1006.7 |
| 20260508165030 | 16 | 329 | 9.7 | 25.7 | 0.00 | 0.00 | 0.00 | 38 | 1006.8 |
| 20260508164906 | 16 | 323 | 12.9 | 25.7 | 0.00 | 0.00 | 0.00 | 39 | 1006.8 |
| 20260508164810 | 16 | 295 | 12.9 | 25.7 | 0.00 | 0.00 | 0.00 | 38 | 1006.8 |
| 20260508164715 | 16 | 299 | 11.3 | 25.7 | 0.00 | 0.00 | 0.00 | 37 | 1006.8 |
| 20260508164619 | 16 | 304 | 9.7 | 25.7 | 0.00 | 0.00 | 0.00 | 36 | 1006.8 |
| 20260508164523 | 16 | 271 | 11.3 | 25.7 | 0.00 | 0.00 | 0.00 | 37 | 1006.9 |
| 20260508164430 | 16 | 284 | 12.9 | 25.7 | 0.00 | 0.00 | 0.00 | 40 | 1006.9 |
| 20260508164307 | 16 | 310 | 16.1 | 25.7 | 0.00 | 0.00 | 0.00 | 41 | 1006.8 |
| 20260508164210 | 16 | 306 | 17.7 | 24.1 | 0.00 | 0.00 | 0.00 | 39 | 1006.9 |
| 20260508164114 | 16 | 328 | 16.1 | 24.1 | 0.00 | 0.00 | 0.00 | 40 | 1006.9 |
| 20260508164020 | 16 | 284 | 12.9 | 22.5 | 0.00 | 0.00 | 0.00 | 39 | 1007.0 |
| 20260508163923 | 16 | 338 | 11.3 | 22.5 | 0.00 | 0.00 | 0.00 | 41 | 1006.9 |
| 20260508163831 | 16 | 343 | 8.0 | 22.5 | 0.00 | 0.00 | 0.00 | 40 | 1007.0 |
| 20260508163707 | 16 | 339 | 11.3 | 22.5 | 0.00 | 0.00 | 0.00 | 38 | 1007.0 |
| 20260508163632 | 16 | 314 | 12.9 | 22.5 | 0.00 | 0.00 | 0.00 | 38 | 1007.1 |
| 20260508163508 | 16 | 341 | 11.3 | 22.5 | 0.00 | 0.00 | 0.00 | 38 | 1006.9 |
| 20260508163433 | 16 | 303 | 12.9 | 22.5 | 0.00 | 0.00 | 0.00 | 38 | 1007.0 |
| 20260508163316 | 16 | 302 | 14.5 | 22.5 | 0.00 | 0.00 | 0.00 | 38 | 1007.0 |
| 20260508163220 | 16 | 306 | 16.1 | 22.5 | 0.00 | 0.00 | 0.00 | 38 | 1007.0 |
| 20260508163106 | 16 | 284 | 16.1 | 22.5 | 0.00 | 0.00 | 0.00 | 37 | 1007.0 |
| 20260508163009 | 16 | 291 | 16.1 | 22.5 | 0.00 | 0.00 | 0.00 | 38 | 1007.0 |
| 20260508162912 | 16 | 272 | 17.7 | 22.5 | 0.00 | 0.00 | 0.00 | 39 | 1007.0 |
| 20260508162836 | 16 | 274 | 17.7 | 22.5 | 0.00 | 0.00 | 0.00 | 40 | 1007.0 |
| 20260508162719 | 16 | 294 | 14.5 | 22.5 | 0.00 | 0.00 | 0.00 | 38 | 1007.1 |
| 20260508162622 | 16 | 276 | 12.9 | 19.3 | 0.00 | 0.00 | 0.00 | 40 | 1007.0 |
| 20260508162508 | 16 | 266 | 12.9 | 19.3 | 0.00 | 0.00 | 0.00 | 41 | 1007.0 |
| 20260508162432 | 16 | 305 | 14.5 | 19.3 | 0.00 | 0.00 | 0.00 | 41 | 1007.1 |
| 20260508162308 | 16 | 298 | 11.3 | 19.3 | 0.00 | 0.00 | 0.00 | 42 | 1007.1 |
| 20260508162231 | 16 | 317 | 8.0 | 17.7 | 0.00 | 0.00 | 0.00 | 43 | 1007.0 |
| 20260508162114 | 16 | 286 | 6.4 | 17.7 | 0.00 | 0.00 | 0.00 | 42 | 1007.0 |
| 20260508162017 | 15 | 360 | 8.0 | 17.7 | 0.00 | 0.00 | 0.00 | 46 | 1007.1 |
| 20260508161939 | 15 | 296 | 11.3 | 17.7 | 0.00 | 0.00 | 0.00 | 44 | 1007.2 |
| 20260508161808 | 15 | 293 | 12.9 | 17.7 | 0.00 | 0.00 | 0.00 | 43 | 1007.1 |
| 20260508161711 | 15 | 313 | 11.3 | 17.7 | 0.00 | 0.00 | 0.00 | 43 | 1007.2 |
| 20260508161614 | 15 | 303 | 9.7 | 17.7 | 0.00 | 0.00 | 0.00 | 44 | 1007.2 |
| 20260508161516 | 15 | 271 | 8.0 | 17.7 | 0.00 | 0.00 | 0.00 | 43 | 1007.1 |
| 20260508161419 | 15 | 225 | 9.7 | 17.7 | 0.00 | 0.00 | 0.00 | 43 | 1007.3 |
| 20260508161322 | 15 | 270 | 12.9 | 17.7 | 0.00 | 0.00 | 0.00 | 43 | 1007.3 |
| 20260508161209 | 15 | 296 | 9.7 | 17.7 | 0.00 | 0.00 | 0.00 | 45 | 1007.3 |
| 20260508161113 | 15 | 304 | 6.4 | 17.7 | 0.00 | 0.00 | 0.00 | 45 | 1007.3 |
| 20260508161036 | 15 | 301 | 6.4 | 17.7 | 0.00 | 0.00 | 0.00 | 45 | 1007.3 |
| 20260508160918 | 14 | 309 | 6.4 | 17.7 | 0.00 | 0.00 | 0.00 | 43 | 1007.3 |
| 20260508160841 | 14 | 296 | 8.0 | 17.7 | 0.00 | 0.00 | 0.00 | 44 | 1007.3 |
| 20260508160724 | 14 | 289 | 9.7 | 17.7 | 0.00 | 0.00 | 0.00 | 43 | 1007.4 |
| 20260508160626 | 14 | 306 | 9.7 | 17.7 | 0.00 | 0.00 | 0.00 | 45 | 1007.3 |
| 20260508160513 | 14 | 297 | 8.0 | 17.7 | 0.00 | 0.00 | 0.00 | 45 | 1007.3 |
| 20260508160415 | 14 | 265 | 9.7 | 17.7 | 0.00 | 0.00 | 0.00 | 45 | 1007.3 |
| 20260508160318 | 14 | 304 | 11.3 | 17.7 | 0.00 | 0.00 | 0.00 | 46 | 1007.3 |
| 20260508160222 | 14 | 302 | 11.3 | 17.7 | 0.00 | 0.00 | 0.00 | 44 | 1007.4 |
| 20260508160146 | 14 | 274 | 12.9 | 17.7 | 0.00 | 0.00 | 0.00 | 45 | 1007.3 |
| 20260508160029 | 14 | 259 | 12.9 | 17.7 | 0.00 | 0.00 | 0.00 | 44 | 1007.3 |
| 20260508155912 | 14 | 281 | 11.3 | 17.7 | 0.00 | 0.00 | 0.00 | 46 | 1007.4 |
| 20260508155820 | 13 | 288 | 12.9 | 17.7 | 0.00 | 0.00 | 0.00 | 45 | 1007.4 |
| 20260508155723 | 13 | 294 | 12.9 | 17.7 | 0.00 | 0.00 | 0.00 | 45 | 1007.4 |
| 20260508155608 | 13 | 295 | 11.3 | 17.7 | 0.00 | 0.00 | 0.00 | 44 | 1007.4 |
| 20260508155512 | 13 | 325 | 11.3 | 17.7 | 0.00 | 0.00 | 0.00 | 45 | 1007.4 |
| 20260508155435 | 13 | 295 | 12.9 | 17.7 | 0.00 | 0.00 | 0.00 | 48 | 1007.4 |
| 20260508155338 | 13 | 290 | 9.7 | 19.3 | 0.00 | 0.00 | 0.00 | 45 | 1007.4 |
| 20260508155220 | 13 | 306 | 6.4 | 19.3 | 0.00 | 0.00 | 0.00 | 46 | 1007.4 |
| 20260508155108 | 13 | 306 | 4.8 | 19.3 | 0.00 | 0.00 | 0.00 | 47 | 1007.4 |
| 20260508155032 | 13 | 269 | 6.4 | 20.9 | 0.00 | 0.00 | 0.00 | 46 | 1007.4 |
| 20260508154908 | 13 | 271 | 11.3 | 20.9 | 0.00 | 0.00 | 0.00 | 46 | 1007.4 |
| 20260508154832 | 13 | 296 | 12.9 | 20.9 | 0.00 | 0.00 | 0.00 | 46 | 1007.5 |
| 20260508154708 | 13 | 286 | 12.9 | 20.9 | 0.00 | 0.00 | 0.00 | 45 | 1007.5 |
| 20260508154612 | 13 | 293 | 14.5 | 20.9 | 0.00 | 0.00 | 0.00 | 45 | 1007.5 |
| 20260508154521 | 13 | 303 | 14.5 | 20.9 | 0.00 | 0.00 | 0.00 | 48 | 1007.5 |
| 20260508154423 | 13 | 297 | 14.5 | 20.9 | 0.00 | 0.00 | 0.00 | 46 | 1007.5 |
| 20260508154308 | 13 | 301 | 14.5 | 20.9 | 0.00 | 0.00 | 0.00 | 46 | 1007.5 |
| 20260508154232 | 13 | 315 | 14.5 | 20.9 | 0.00 | 0.00 | 0.00 | 46 | 1007.5 |
| 20260508154108 | 13 | 288 | 11.3 | 19.3 | 0.00 | 0.00 | 0.00 | 46 | 1007.5 |
| 20260508154013 | 13 | 265 | 9.7 | 19.3 | 0.00 | 0.00 | 0.00 | 46 | 1007.6 |
| 20260508153922 | 13 | 272 | 11.3 | 19.3 | 0.00 | 0.00 | 0.00 | 45 | 1007.6 |
| 20260508153806 | 13 | 275 | 12.9 | 19.3 | 0.00 | 0.00 | 0.00 | 47 | 1007.6 |
| 20260508153711 | 13 | 269 | 11.3 | 19.3 | 0.00 | 0.00 | 0.00 | 47 | 1007.6 |
| 20260508153616 | 13 | 306 | 11.3 | 19.3 | 0.00 | 0.00 | 0.00 | 46 | 1007.6 |
| 20260508153522 | 13 | 295 | 11.3 | 19.3 | 0.00 | 0.00 | 0.00 | 45 | 1007.6 |
| 20260508153424 | 13 | 317 | 12.9 | 19.3 | 0.00 | 0.00 | 0.00 | 46 | 1007.7 |
| 20260508153351 | 13 | 327 | 11.3 | 19.3 | 0.00 | 0.00 | 0.00 | 46 | 1007.6 |
| 20260508153207 | 13 | 329 | 11.3 | 19.3 | 0.00 | 0.00 | 0.00 | 44 | 1007.6 |
| 20260508153132 | 13 | 258 | 11.3 | 16.1 | 0.00 | 0.00 | 0.00 | 44 | 1007.6 |
| 20260508153009 | 13 | 261 | 9.7 | 19.3 | 0.00 | 0.00 | 0.00 | 45 | 1007.7 |
| 20260508152931 | 13 | 304 | 11.3 | 19.3 | 0.00 | 0.00 | 0.00 | 47 | 1007.6 |
| 20260508152815 | 13 | 316 | 11.3 | 19.3 | 0.00 | 0.00 | 0.00 | 46 | 1007.7 |
| 20260508152719 | 13 | 299 | 11.3 | 19.3 | 0.00 | 0.00 | 0.00 | 46 | 1007.7 |
| 20260508152647 | 13 | 286 | 11.3 | 19.3 | 0.00 | 0.00 | 0.00 | 47 | 1007.6 |
| 20260508152551 | 13 | 306 | 11.3 | 19.3 | 0.00 | 0.00 | 0.00 | 47 | 1007.7 |
| 20260508152407 | 13 | 288 | 12.9 | 19.3 | 0.00 | 0.00 | 0.00 | 47 | 1007.6 |
| 20260508152311 | 13 | 292 | 12.9 | 19.3 | 0.00 | 0.00 | 0.00 | 48 | 1007.6 |
| 20260508152235 | 13 | 292 | 12.9 | 19.3 | 0.00 | 0.00 | 0.00 | 49 | 1007.7 |
| 20260508152118 | 13 | 244 | 9.7 | 17.7 | 0.00 | 0.00 | 0.00 | 47 | 1007.7 |
| 20260508152022 | 13 | 284 | 8.0 | 17.7 | 0.00 | 0.00 | 0.00 | 47 | 1007.7 |
| 20260508151911 | 13 | 292 | 9.7 | 17.7 | 0.00 | 0.00 | 0.00 | 48 | 1007.7 |
| 20260508151835 | 13 | 285 | 12.9 | 17.7 | 0.00 | 0.00 | 0.00 | 46 | 1007.7 |
| 20260508151738 | 13 | 275 | 12.9 | 17.7 | 0.00 | 0.00 | 0.00 | 47 | 1007.7 |
| 20260508151642 | 13 | 309 | 11.3 | 17.7 | 0.00 | 0.00 | 0.00 | 47 | 1007.7 |
| 20260508151525 | 13 | 285 | 11.3 | 17.7 | 0.00 | 0.00 | 0.00 | 48 | 1007.8 |
| 20260508151429 | 13 | 302 | 11.3 | 16.1 | 0.00 | 0.00 | 0.00 | 49 | 1007.7 |
| 20260508151306 | 13 | 265 | 12.9 | 16.1 | 0.00 | 0.00 | 0.00 | 49 | 1007.8 |
| 20260508151214 | 13 | 282 | 11.3 | 16.1 | 0.00 | 0.00 | 0.00 | 49 | 1007.8 |
| 20260508151118 | 13 | 289 | 9.7 | 14.5 | 0.00 | 0.00 | 0.00 | 47 | 1007.9 |
| 20260508151023 | 12 | 284 | 6.4 | 11.3 | 0.00 | 0.00 | 0.00 | 47 | 1007.7 |
| 20260508150925 | 12 | 294 | 4.8 | 11.3 | 0.00 | 0.00 | 0.00 | 49 | 1007.7 |
| 20260508150809 | 12 | 11 | 3.2 | 12.9 | 0.00 | 0.00 | 0.00 | 51 | 1007.8 |
| 20260508150733 | 12 | 13 | 1.6 | 16.1 | 0.00 | 0.00 | 0.00 | 50 | 1007.7 |
| 20260508150617 | 12 | 13 | 3.2 | 16.1 | 0.00 | 0.00 | 0.00 | 50 | 1007.8 |
| 20260508150518 | 12 | 13 | 3.2 | 16.1 | 0.00 | 0.00 | 0.00 | 52 | 1007.9 |
| 20260508150406 | 12 | 269 | 1.6 | 16.1 | 0.00 | 0.00 | 0.00 | 52 | 1007.9 |
| 20260508150330 | 12 | 269 | 1.6 | 16.1 | 0.00 | 0.00 | 0.00 | 51 | 1007.9 |
| 20260508150207 | 12 | 317 | 3.2 | 16.1 | 0.00 | 0.00 | 0.00 | 50 | 1007.9 |
| 20260508150112 | 12 | 315 | 8.0 | 16.1 | 0.00 | 0.00 | 0.00 | 50 | 1007.9 |
| 20260508150016 | 12 | 316 | 11.3 | 16.1 | 0.00 | 0.00 | 0.00 | 48 | 1007.9 |
| 20260508145920 | 12 | 284 | 11.3 | 16.1 | 0.00 | 0.00 | 0.00 | 51 | 1008.0 |
| 20260508145807 | 12 | 297 | 8.0 | 11.3 | 0.00 | 0.00 | 0.00 | 50 | 1007.9 |
| 20260508145731 | 12 | 310 | 6.4 | 8.0 | 0.00 | 0.00 | 0.00 | 49 | 1007.9 |
| 20260508145608 | 12 | 307 | 4.8 | 8.0 | 0.00 | 0.00 | 0.00 | 50 | 1007.9 |
| 20260508145533 | 12 | 324 | 4.8 | 6.4 | 0.00 | 0.00 | 0.00 | 51 | 1007.9 |
| 20260508145435 | 12 | 313 | 3.2 | 6.4 | 0.00 | 0.00 | 0.00 | 50 | 1008.0 |
| 20260508145317 | 12 | 315 | 4.8 | 6.4 | 0.00 | 0.00 | 0.00 | 49 | 1008.0 |
| 20260508145221 | 12 | 249 | 4.8 | 8.0 | 0.00 | 0.00 | 0.00 | 49 | 1008.0 |
| 20260508145130 | 12 | 244 | 4.8 | 8.0 | 0.00 | 0.00 | 0.00 | 50 | 1008.0 |
| 20260508145007 | 12 | 269 | 4.8 | 9.7 | 0.00 | 0.00 | 0.00 | 53 | 1008.0 |
| 20260508144932 | 12 | 289 | 4.8 | 9.7 | 0.00 | 0.00 | 0.00 | 53 | 1008.1 |
| 20260508144808 | 12 | 287 | 1.6 | 12.9 | 0.00 | 0.00 | 0.00 | 53 | 1008.1 |
| 20260508144732 | 12 | 299 | 1.6 | 12.9 | 0.00 | 0.00 | 0.00 | 52 | 1008.1 |
| 20260508144635 | 12 | 300 | 1.6 | 12.9 | 0.00 | 0.00 | 0.00 | 51 | 1008.1 |
| 20260508144518 | 12 | 300 | 3.2 | 12.9 | 0.00 | 0.00 | 0.00 | 50 | 1008.1 |
| 20260508144425 | 12 | 298 | 4.8 | 12.9 | 0.00 | 0.00 | 0.00 | 50 | 1008.2 |
| 20260508144310 | 12 | 335 | 6.4 | 12.9 | 0.00 | 0.00 | 0.00 | 50 | 1008.1 |
| 20260508144215 | 12 | 331 | 6.4 | 12.9 | 0.00 | 0.00 | 0.00 | 51 | 1008.1 |
| 20260508144120 | 12 | 314 | 6.4 | 12.9 | 0.00 | 0.00 | 0.00 | 50 | 1008.2 |
| 20260508144024 | 12 | 345 | 3.2 | 9.7 | 0.00 | 0.00 | 0.00 | 52 | 1008.3 |
| 20260508143912 | 12 | 339 | 1.6 | 6.4 | 0.00 | 0.00 | 0.00 | 52 | 1008.3 |
| 20260508143815 | 12 | 336 | 1.6 | 6.4 | 0.00 | 0.00 | 0.00 | 50 | 1008.1 |
| 20260508143740 | 11 | 336 | 1.6 | 6.4 | 0.00 | 0.00 | 0.00 | 51 | 1008.2 |
| 20260508143623 | 12 | 336 | 1.6 | 6.4 | 0.00 | 0.00 | 0.00 | 50 | 1008.3 |
| 20260508143527 | 11 | 346 | 1.6 | 6.4 | 0.00 | 0.00 | 0.00 | 51 | 1008.2 |
| 20260508143410 | 11 | 346 | 3.2 | 6.4 | 0.00 | 0.00 | 0.00 | 52 | 1008.2 |
| 20260508143315 | 11 | 346 | 3.2 | 6.4 | 0.00 | 0.00 | 0.00 | 51 | 1008.2 |
| 20260508143223 | 11 | 346 | 3.2 | 6.4 | 0.00 | 0.00 | 0.00 | 51 | 1008.2 |
| 20260508143107 | 11 | 355 | 3.2 | 8.0 | 0.00 | 0.00 | 0.00 | 52 | 1008.3 |
| 20260508143029 | 11 | 342 | 3.2 | 8.0 | 0.00 | 0.00 | 0.00 | 52 | 1008.3 |
| 20260508142907 | 11 | 355 | 3.2 | 8.0 | 0.00 | 0.00 | 0.00 | 50 | 1008.3 |
| 20260508142812 | 11 | 300 | 4.8 | 8.0 | 0.00 | 0.00 | 0.00 | 51 | 1008.3 |
| 20260508142717 | 11 | 300 | 4.8 | 8.0 | 0.00 | 0.00 | 0.00 | 51 | 1008.3 |
| 20260508142625 | 11 | 299 | 4.8 | 8.0 | 0.00 | 0.00 | 0.00 | 51 | 1008.3 |
| 20260508142529 | 11 | 276 | 3.2 | 8.0 | 0.00 | 0.00 | 0.00 | 51 | 1008.3 |
| 20260508142411 | 11 | 360 | 4.8 | 8.0 | 0.00 | 0.00 | 0.00 | 52 | 1008.3 |
| 20260508142335 | 11 | 360 | 4.8 | 8.0 | 0.00 | 0.00 | 0.00 | 52 | 1008.3 |
| 20260508142219 | 11 | 355 | 4.8 | 8.0 | 0.00 | 0.00 | 0.00 | 52 | 1008.3 |
| 20260508142124 | 11 | 17 | 4.8 | 8.0 | 0.00 | 0.00 | 0.00 | 52 | 1008.3 |
| 20260508142028 | 11 | 22 | 3.2 | 9.7 | 0.00 | 0.00 | 0.00 | 53 | 1008.3 |
| 20260508141915 | 11 | 5 | 1.6 | 9.7 | 0.00 | 0.00 | 0.00 | 52 | 1008.3 |
| 20260508141820 | 11 | 346 | 3.2 | 9.7 | 0.00 | 0.00 | 0.00 | 52 | 1008.3 |
| 20260508141723 | 11 | 347 | 3.2 | 9.7 | 0.00 | 0.00 | 0.00 | 51 | 1008.4 |
| 20260508141627 | 11 | 305 | 1.6 | 9.7 | 0.00 | 0.00 | 0.00 | 52 | 1008.3 |
| 20260508141529 | 11 | 304 | 3.2 | 9.7 | 0.00 | 0.00 | 0.00 | 52 | 1008.3 |
| 20260508141406 | 11 | 304 | 4.8 | 9.7 | 0.00 | 0.00 | 0.00 | 51 | 1008.3 |
| 20260508141311 | 11 | 338 | 4.8 | 9.7 | 0.00 | 0.00 | 0.00 | 52 | 1008.3 |
| 20260508141219 | 11 | 333 | 4.8 | 9.7 | 0.00 | 0.00 | 0.00 | 51 | 1008.3 |
| 20260508141123 | 11 | 338 | 3.2 | 9.7 | 0.00 | 0.00 | 0.00 | 53 | 1008.8 |
| 20260508141028 | 11 | 308 | 3.2 | 8.0 | 0.00 | 0.00 | 0.00 | 52 | 1008.3 |
| 20260508140952 | 11 | 307 | 4.8 | 8.0 | 0.00 | 0.00 | 0.00 | 51 | 1008.3 |
| 20260508140809 | 11 | 308 | 4.8 | 8.0 | 0.00 | 0.00 | 0.00 | 52 | 1008.3 |
| 20260508140713 | 11 | 24 | 3.2 | 6.4 | 0.00 | 0.00 | 0.00 | 54 | 1008.3 |
| 20260508140622 | 11 | 25 | 3.2 | 6.4 | 0.00 | 0.00 | 0.00 | 53 | 1008.2 |
| 20260508140526 | 11 | 26 | 3.2 | 6.4 | 0.00 | 0.00 | 0.00 | 51 | 1008.3 |
| 20260508140429 | 11 | 355 | 3.2 | 6.4 | 0.00 | 0.00 | 0.00 | 52 | 1008.3 |
| 20260508140306 | 11 | 288 | 3.2 | 6.4 | 0.00 | 0.00 | 0.00 | 55 | 1008.3 |
| 20260508140231 | 11 | 260 | 3.2 | 6.4 | 0.00 | 0.00 | 0.00 | 53 | 1008.3 |
| 20260508140108 | 11 | 260 | 3.2 | 6.4 | 0.00 | 0.00 | 0.00 | 53 | 1008.3 |
| 20260508140031 | 10 | 325 | 3.2 | 6.4 | 0.00 | 0.00 | 0.00 | 53 | 1008.3 |
| 20260508135919 | 10 | 248 | 1.6 | 4.8 | 0.00 | 0.00 | 0.00 | 53 | 1008.4 |
| 20260508135823 | 10 | 248 | 1.6 | 4.8 | 0.00 | 0.00 | 0.00 | 55 | 1008.4 |
| 20260508135708 | 10 | 248 | 1.6 | 4.8 | 0.00 | 0.00 | 0.00 | 54 | 1008.4 |
| 20260508135632 | 10 | 248 | 1.6 | 4.8 | 0.00 | 0.00 | 0.00 | 54 | 1008.4 |
| 20260508135508 | 10 | 248 | 3.2 | 4.8 | 0.00 | 0.00 | 0.00 | 55 | 1008.4 |
| 20260508135412 | 10 | 248 | 1.6 | 4.8 | 0.00 | 0.00 | 0.00 | 56 | 1008.4 |
| 20260508135320 | 10 | 244 | 1.6 | 4.8 | 0.00 | 0.00 | 0.00 | 57 | 1008.4 |
| 20260508135225 | 10 | 256 | 1.6 | 6.4 | 0.00 | 0.00 | 0.00 | 57 | 1008.4 |
| 20260508135129 | 10 | 57 | 1.6 | 6.4 | 0.00 | 0.00 | 0.00 | 54 | 1008.4 |
| 20260508135033 | 10 | 63 | 1.6 | 6.4 | 0.00 | 0.00 | 0.00 | 55 | 1008.4 |
| 20260508134917 | 10 | 63 | 1.6 | 6.4 | 0.00 | 0.00 | 0.00 | 54 | 1008.5 |
| 20260508134841 | 10 | 63 | 3.2 | 6.4 | 0.00 | 0.00 | 0.00 | 54 | 1008.5 |
| 20260508134724 | 10 | 63 | 3.2 | 6.4 | 0.00 | 0.00 | 0.00 | 55 | 1008.5 |
| 20260508134632 | 10 | 63 | 3.2 | 6.4 | 0.00 | 0.00 | 0.00 | 57 | 1008.5 |
| 20260508134509 | 10 | 63 | 3.2 | 6.4 | 0.00 | 0.00 | 0.00 | 55 | 1008.5 |
| 20260508134434 | 10 | 64 | 4.8 | 6.4 | 0.00 | 0.00 | 0.00 | 55 | 1008.5 |
| 20260508134316 | 10 | 59 | 4.8 | 6.4 | 0.00 | 0.00 | 0.00 | 56 | 1008.5 |
| 20260508134221 | 10 | 49 | 3.2 | 6.4 | 0.00 | 0.00 | 0.00 | 54 | 1008.5 |
| 20260508134124 | 10 | 49 | 1.6 | 6.4 | 0.00 | 0.00 | 0.00 | 56 | 1008.5 |
| 20260508134012 | 10 | 50 | 3.2 | 6.4 | 0.00 | 0.00 | 0.00 | 54 | 1008.6 |
| 20260508133917 | 10 | 50 | 4.8 | 6.4 | 0.00 | 0.00 | 0.00 | 54 | 1008.6 |
| 20260508133820 | 10 | 26 | 4.8 | 6.4 | 0.00 | 0.00 | 0.00 | 55 | 1008.6 |
| 20260508133724 | 10 | 23 | 4.8 | 6.4 | 0.00 | 0.00 | 0.00 | 56 | 1008.6 |
| 20260508133610 | 10 | 22 | 4.8 | 6.4 | 0.00 | 0.00 | 0.00 | 59 | 1008.6 |
| 20260508133514 | 10 | 36 | 3.2 | 6.4 | 0.00 | 0.00 | 0.00 | 58 | 1008.6 |
| 20260508133422 | 10 | 37 | 3.2 | 6.4 | 0.00 | 0.00 | 0.00 | 55 | 1008.6 |
| 20260508133307 | 10 | 37 | 3.2 | 6.4 | 0.00 | 0.00 | 0.00 | 57 | 1008.6 |
| 20260508133231 | 10 | 37 | 4.8 | 6.4 | 0.00 | 0.00 | 0.00 | 56 | 1008.6 |
| 20260508133115 | 10 | 24 | 4.8 | 6.4 | 0.00 | 0.00 | 0.00 | 54 | 1008.6 |
| 20260508133039 | 10 | 18 | 3.2 | 6.4 | 0.00 | 0.00 | 0.00 | 54 | 1008.6 |
| 20260508132922 | 10 | 360 | 3.2 | 6.4 | 0.00 | 0.00 | 0.00 | 57 | 1008.7 |
| 20260508132806 | 10 | 355 | 1.6 | 6.4 | 0.00 | 0.00 | 0.00 | 54 | 1008.7 |
| 20260508132713 | 10 | 355 | 3.2 | 6.4 | 0.00 | 0.00 | 0.00 | 55 | 1008.7 |
| 20260508132616 | 10 | 355 | 3.2 | 6.4 | 0.00 | 0.00 | 0.00 | 55 | 1008.6 |
| 20260508132541 | 10 | 346 | 4.8 | 6.4 | 0.00 | 0.00 | 0.00 | 57 | 1008.6 |
| 20260508132424 | 10 | 355 | 4.8 | 6.4 | 0.00 | 0.00 | 0.00 | 57 | 1008.7 |
| 20260508132309 | 10 | 339 | 3.2 | 6.4 | 0.00 | 0.00 | 0.00 | 62 | 1008.6 |
| 20260508132212 | 9 | 11 | 1.6 | 4.8 | 0.00 | 0.00 | 0.00 | 62 | 1008.6 |
| 20260508132119 | 9 | 11 | 1.6 | 8.0 | 0.00 | 0.00 | 0.00 | 63 | 1008.7 |
| 20260508132023 | 9 | 11 | 1.6 | 8.0 | 0.00 | 0.00 | 0.00 | 62 | 1008.6 |
| 20260508131908 | 9 | 11 | 1.6 | 8.0 | 0.00 | 0.00 | 0.00 | 62 | 1008.6 |
| 20260508131831 | 8 | 11 | 1.6 | 8.0 | 0.00 | 0.00 | 0.00 | 63 | 1008.7 |
| 20260508131733 | 8 | 11 | 1.6 | 8.0 | 0.00 | 0.00 | 0.00 | 64 | 1008.7 |
| 20260508131608 | 8 | 11 | 1.6 | 8.0 | 0.00 | 0.00 | 0.00 | 63 | 1008.6 |
| 20260508131513 | 8 | 11 | 3.2 | 8.0 | 0.00 | 0.00 | 0.00 | 64 | 1008.7 |
| 20260508131422 | 8 | 11 | 3.2 | 8.0 | 0.00 | 0.00 | 0.00 | 63 | 1008.7 |
| 20260508131325 | 8 | 11 | 4.8 | 8.0 | 0.00 | 0.00 | 0.00 | 62 | 1008.7 |
| 20260508131229 | 8 | 309 | 6.4 | 8.0 | 0.00 | 0.00 | 0.00 | 62 | 1008.7 |
| 20260508131106 | 8 | 296 | 4.8 | 6.4 | 0.00 | 0.00 | 0.00 | 65 | 1008.6 |
| 20260508131010 | 8 | 338 | 3.2 | 6.4 | 0.00 | 0.00 | 0.00 | 66 | 1008.7 |
| 20260508130933 | 8 | 41 | 3.2 | 6.4 | 0.00 | 0.00 | 0.00 | 66 | 1008.7 |
| 20260508130821 | 7 | 75 | 1.6 | 3.2 | 0.00 | 0.00 | 0.00 | 66 | 1008.6 |
| 20260508130745 | 7 | 75 | 1.6 | 3.2 | 0.00 | 0.00 | 0.00 | 67 | 1008.7 |
| 20260508130628 | 7 | 75 | 0.0 | 3.2 | 0.00 | 0.00 | 0.00 | 68 | 1008.7 |
| 20260508130552 | 7 | 75 | 0.0 | 3.2 | 0.00 | 0.00 | 0.00 | 69 | 1008.7 |
| 20260508130407 | 7 | 75 | 0.0 | 3.2 | 0.00 | 0.00 | 0.00 | 70 | 1008.7 |
| 20260508130311 | 7 | 75 | 1.6 | 3.2 | 0.00 | 0.00 | 0.00 | 72 | 1008.7 |
| 20260508130236 | 7 | 75 | 1.6 | 3.2 | 0.00 | 0.00 | 0.00 | 70 | 1008.6 |
| 20260508130120 | 7 | 75 | 1.6 | 3.2 | 0.00 | 0.00 | 0.00 | 71 | 1008.6 |
| 20260508130028 | 7 | 75 | 1.6 | 3.2 | 0.00 | 0.00 | 0.00 | 72 | 1008.7 |
| 20260508125910 | 6 | 75 | 1.6 | 3.2 | 0.00 | 0.00 | 0.00 | 71 | 1008.7 |
| 20260508125835 | 6 | 75 | 1.6 | 3.2 | 0.00 | 0.00 | 0.00 | 71 | 1008.7 |
| 20260508125718 | 6 | 75 | 1.6 | 3.2 | 0.00 | 0.00 | 0.00 | 72 | 1008.6 |
| 20260508125621 | 6 | 75 | 1.6 | 3.2 | 0.00 | 0.00 | 0.00 | 72 | 1008.7 |
| 20260508125546 | 6 | 75 | 1.6 | 3.2 | 0.00 | 0.00 | 0.00 | 72 | 1008.7 |
| 20260508125410 | 6 | 75 | 1.6 | 4.8 | 0.00 | 0.00 | 0.00 | 71 | 1008.6 |
| 20260508125337 | 6 | 75 | 1.6 | 4.8 | 0.00 | 0.00 | 0.00 | 72 | 1008.7 |
| 20260508125220 | 6 | 75 | 1.6 | 4.8 | 0.00 | 0.00 | 0.00 | 72 | 1008.7 |
| 20260508125125 | 6 | 75 | 3.2 | 4.8 | 0.00 | 0.00 | 0.00 | 73 | 1008.7 |
| 20260508125028 | 6 | 75 | 3.2 | 4.8 | 0.00 | 0.00 | 0.00 | 74 | 1008.8 |
| 20260508124911 | 6 | 75 | 3.2 | 4.8 | 0.00 | 0.00 | 0.00 | 74 | 1008.7 |
| 20260508124815 | 5 | 75 | 3.2 | 4.8 | 0.00 | 0.00 | 0.00 | 75 | 1008.7 |
| 20260508124721 | 5 | 75 | 3.2 | 4.8 | 0.00 | 0.00 | 0.00 | 76 | 1008.7 |
| 20260508124608 | 5 | 75 | 3.2 | 3.2 | 0.00 | 0.00 | 0.00 | 76 | 1008.7 |
| 20260508124514 | 5 | 75 | 3.2 | 3.2 | 0.00 | 0.00 | 0.00 | 77 | 1008.7 |
| 20260508124417 | 5 | 75 | 3.2 | 3.2 | 0.00 | 0.00 | 0.00 | 77 | 1008.8 |
| 20260508124322 | 5 | 75 | 1.6 | 3.2 | 0.00 | 0.00 | 0.00 | 77 | 1008.7 |
| 20260508124227 | 5 | 75 | 1.6 | 3.2 | 0.00 | 0.00 | 0.00 | 78 | 1008.8 |
| 20260508124111 | 5 | 75 | 3.2 | 3.2 | 0.00 | 0.00 | 0.00 | 78 | 1008.7 |
| 20260508124017 | 5 | 75 | 3.2 | 3.2 | 0.00 | 0.00 | 0.00 | 78 | 1008.7 |
| 20260508123922 | 5 | 75 | 1.6 | 3.2 | 0.00 | 0.00 | 0.00 | 78 | 1008.7 |
| 20260508123826 | 5 | 75 | 1.6 | 3.2 | 0.00 | 0.00 | 0.00 | 78 | 1008.7 |
| 20260508123711 | 5 | 75 | 1.6 | 3.2 | 0.00 | 0.00 | 0.00 | 78 | 1008.7 |
| 20260508123615 | 4 | 75 | 1.6 | 3.2 | 0.00 | 0.00 | 0.00 | 78 | 1008.7 |
| 20260508123518 | 4 | 75 | 0.0 | 1.6 | 0.00 | 0.00 | 0.00 | 78 | 1008.8 |
| 20260508123406 | 4 | 75 | 0.0 | 0.0 | 0.00 | 0.00 | 0.00 | 78 | 1008.7 |
| 20260508123329 | 4 | 75 | 0.0 | 0.0 | 0.00 | 0.00 | 0.00 | 78 | 1008.7 |
| 20260508123206 | 4 | 75 | 0.0 | 0.0 | 0.00 | 0.00 | 0.00 | 78 | 1008.7 |
| 20260508123109 | 3 | 75 | 0.0 | 0.0 | 0.00 | 0.00 | 0.00 | 78 | 1008.7 |
| 20260508123011 | 3 | 75 | 0.0 | 0.0 | 0.00 | 0.00 | 0.00 | 79 | 1008.7 |
| 20260508122935 | 3 | 75 | 0.0 | 0.0 | 0.00 | 0.00 | 0.00 | 79 | 1008.7 |
| 20260508122818 | 3 | 75 | 0.0 | 0.0 | 0.00 | 0.00 | 0.00 | 79 | 1008.7 |
| 20260508122706 | 3 | 75 | 0.0 | 0.0 | 0.00 | 0.00 | 0.00 | 79 | 1008.8 |
| 20260508122610 | 3 | 75 | 0.0 | 0.0 | 0.00 | 0.00 | 0.00 | 79 | 1008.8 |
| 20260508122514 | 3 | 75 | 0.0 | 0.0 | 0.00 | 0.00 | 0.00 | 79 | 1008.7 |
| 20260508122416 | 3 | 75 | 0.0 | 0.0 | 0.00 | 0.00 | 0.00 | 80 | 1008.7 |
| 20260508122319 | 3 | 75 | 0.0 | 0.0 | 0.00 | 0.00 | 0.00 | 81 | 1008.7 |
| 20260508122206 | 3 | 75 | 0.0 | 0.0 | 0.00 | 0.00 | 0.00 | 81 | 1008.6 |
| 20260508122131 | 3 | 75 | 0.0 | 0.0 | 0.00 | 0.00 | 0.00 | 81 | 1008.7 |
| 20260508122008 | 2 | 75 | 0.0 | 0.0 | 0.00 | 0.00 | 0.00 | 81 | 1008.7 |
| 20260508121913 | 2 | 75 | 0.0 | 0.0 | 0.00 | 0.00 | 0.00 | 81 | 1008.7 |
| 20260508121816 | 2 | 75 | 0.0 | 1.6 | 0.00 | 0.00 | 0.00 | 81 | 1008.7 |
| 20260508121720 | 2 | 75 | 0.0 | 3.2 | 0.00 | 0.00 | 0.00 | 81 | 1008.7 |
| 20260508121622 | 2 | 75 | 0.0 | 3.2 | 0.00 | 0.00 | 0.00 | 81 | 1008.6 |
| 20260508121551 | 2 | 75 | 0.0 | 3.2 | 0.00 | 0.00 | 0.00 | 80 | 1008.6 |
| 20260508121407 | 2 | 75 | 0.0 | 3.2 | 0.00 | 0.00 | 0.00 | 80 | 1008.6 |
| 20260508121331 | 2 | 75 | 0.0 | 3.2 | 0.00 | 0.00 | 0.00 | 80 | 1008.6 |
| 20260508121207 | 2 | 75 | 0.0 | 3.2 | 0.00 | 0.00 | 0.00 | 80 | 1008.7 |
| 20260508121111 | 2 | 75 | 1.6 | 3.2 | 0.00 | 0.00 | 0.00 | 80 | 1008.7 |
| 20260508121034 | 2 | 75 | 1.6 | 3.2 | 0.00 | 0.00 | 0.00 | 81 | 1008.7 |
| 20260508120916 | 1 | 75 | 1.6 | 3.2 | 0.00 | 0.00 | 0.00 | 81 | 1008.6 |
| 20260508120822 | 1 | 75 | 1.6 | 3.2 | 0.00 | 0.00 | 0.00 | 81 | 1008.7 |
| 20260508120726 | 1 | 75 | 1.6 | 3.2 | 0.00 | 0.00 | 0.00 | 80 | 1008.7 |
| 20260508120628 | 1 | 75 | 1.6 | 3.2 | 0.00 | 0.00 | 0.00 | 80 | 1008.7 |
| 20260508120510 | 1 | 75 | 1.6 | 3.2 | 0.00 | 0.00 | 0.00 | 81 | 1008.7 |
| 20260508120413 | 1 | 75 | 1.6 | 3.2 | 0.00 | 0.00 | 0.00 | 81 | 1008.7 |
| 20260508120316 | 1 | 75 | 1.6 | 3.2 | 0.00 | 0.00 | 0.00 | 81 | 1008.7 |
| 20260508120219 | 1 | 75 | 0.0 | 1.6 | 0.00 | 0.00 | 0.00 | 81 | 1008.6 |
| 20260508120106 | 1 | 75 | 0.0 | 1.6 | 0.00 | 0.00 | 0.00 | 82 | 1008.6 |
| 20260508120009 | 1 | 75 | 0.0 | 0.0 | 0.00 | 0.00 | 0.00 | 82 | 1008.6 |
| 20260508115933 | 1 | 75 | 0.0 | 0.0 | 0.00 | 0.00 | 0.00 | 82 | 1008.7 |
| 20260508115815 | 1 | 75 | 0.0 | 0.0 | 0.00 | 0.00 | 0.00 | 82 | 1008.6 |
| 20260508115717 | 1 | 75 | 0.0 | 0.0 | 0.00 | 0.00 | 0.00 | 82 | 1008.6 |
| 20260508115620 | 1 | 75 | 0.0 | 0.0 | 0.00 | 0.00 | 0.00 | 82 | 1008.6 |